Wetterdaten: Montag, 29.01.2024
Datum Zeit Temp. I. Temp. A. Feuchte I. Feuchte A. Luftdruck Regen Wind Richtung Richtung Sonnenschein Solar Taupunkt Windchill Windböen
29.01.2024 00:00 22,3 °C 0,8 °C 51 % 81 % 1031,4 hPa 0,0 l/m² 6,4 km/h (2 Bft) O 90 ° 0 min 0 W/m² -2,1 °C 0,8 °C 8,0 km/h (2 Bft)
29.01.2024 00:01 22,3 °C 0,8 °C 51 % 81 % 1031,4 hPa 0,0 l/m² 6,4 km/h (2 Bft) O 90 ° 0 min 0 W/m² -2,1 °C 0,8 °C 6,4 km/h (2 Bft)
29.01.2024 00:02 22,3 °C 0,8 °C 51 % 81 % 1031,3 hPa 0,0 l/m² 6,4 km/h (2 Bft) N 0 ° 0 min 0 W/m² -2,1 °C 0,8 °C 0,0 km/h (0 Bft)
29.01.2024 00:03 22,3 °C 0,8 °C 51 % 81 % 1031,3 hPa 0,0 l/m² 6,4 km/h (2 Bft) O 90 ° 0 min 0 W/m² -2,1 °C 0,8 °C 6,4 km/h (2 Bft)
29.01.2024 00:04 22,3 °C 0,7 °C 51 % 81 % 1031,4 hPa 0,0 l/m² 4,8 km/h (1 Bft) O 90 ° 0 min 0 W/m² -2,2 °C 0,7 °C 8,0 km/h (2 Bft)
29.01.2024 00:05 22,3 °C 0,7 °C 51 % 81 % 1031,4 hPa 0,0 l/m² 4,8 km/h (1 Bft) O 90 ° 0 min 0 W/m² -2,2 °C 0,7 °C 6,4 km/h (2 Bft)
29.01.2024 00:06 22,3 °C 0,7 °C 51 % 81 % 1031,4 hPa 0,0 l/m² 6,4 km/h (2 Bft) O 90 ° 0 min 0 W/m² -2,2 °C 0,7 °C 8,0 km/h (2 Bft)
29.01.2024 00:07 22,3 °C 0,7 °C 51 % 81 % 1031,3 hPa 0,0 l/m² 6,4 km/h (2 Bft) O 90 ° 0 min 0 W/m² -2,2 °C 0,7 °C 11,3 km/h (2 Bft)
29.01.2024 00:08 22,3 °C 0,7 °C 51 % 81 % 1031,3 hPa 0,0 l/m² 8,0 km/h (2 Bft) O 90 ° 0 min 0 W/m² -2,2 °C -0,9 °C 11,3 km/h (2 Bft)
29.01.2024 00:09 22,3 °C 0,7 °C 51 % 81 % 1031,3 hPa 0,0 l/m² 8,0 km/h (2 Bft) O 90 ° 0 min 0 W/m² -2,2 °C -0,9 °C 11,3 km/h (2 Bft)
29.01.2024 00:10 22,3 °C 0,7 °C 51 % 82 % 1031,3 hPa 0,0 l/m² 9,7 km/h (2 Bft) O 90 ° 0 min 0 W/m² -2,0 °C -2,4 °C 11,3 km/h (2 Bft)
29.01.2024 00:11 22,3 °C 0,7 °C 51 % 82 % 1031,3 hPa 0,0 l/m² 9,7 km/h (2 Bft) O 90 ° 0 min 0 W/m² -2,0 °C -2,4 °C 12,9 km/h (3 Bft)
29.01.2024 00:12 22,3 °C 0,7 °C 51 % 82 % 1031,2 hPa 0,0 l/m² 11,3 km/h (2 Bft) O 90 ° 0 min 0 W/m² -2,0 °C -3,7 °C 12,9 km/h (3 Bft)
29.01.2024 00:13 22,3 °C 0,7 °C 51 % 82 % 1031,3 hPa 0,0 l/m² 9,7 km/h (2 Bft) O 90 ° 0 min 0 W/m² -2,0 °C -2,4 °C 12,9 km/h (3 Bft)
29.01.2024 00:14 22,3 °C 0,7 °C 51 % 82 % 1031,3 hPa 0,0 l/m² 8,0 km/h (2 Bft) O 90 ° 0 min 0 W/m² -2,0 °C -0,9 °C 11,3 km/h (2 Bft)
29.01.2024 00:15 22,3 °C 0,7 °C 51 % 82 % 1031,3 hPa 0,0 l/m² 11,3 km/h (2 Bft) O 90 ° 0 min 0 W/m² -2,0 °C -3,7 °C 12,9 km/h (3 Bft)
29.01.2024 00:16 22,3 °C 0,7 °C 51 % 82 % 1031,2 hPa 0,0 l/m² 11,3 km/h (2 Bft) O 90 ° 0 min 0 W/m² -2,0 °C -3,7 °C 12,9 km/h (3 Bft)
29.01.2024 00:17 22,3 °C 0,7 °C 51 % 82 % 1031,3 hPa 0,0 l/m² 11,3 km/h (2 Bft) O 90 ° 0 min 0 W/m² -2,0 °C -3,7 °C 12,9 km/h (3 Bft)
29.01.2024 00:18 22,3 °C 0,7 °C 51 % 82 % 1031,2 hPa 0,0 l/m² 11,3 km/h (2 Bft) O 90 ° 0 min 0 W/m² -2,0 °C -3,7 °C 14,5 km/h (3 Bft)
29.01.2024 00:19 22,3 °C 0,8 °C 51 % 82 % 1031,3 hPa 0,0 l/m² 11,3 km/h (2 Bft) O 90 ° 0 min 0 W/m² -1,9 °C -3,6 °C 14,5 km/h (3 Bft)
29.01.2024 00:20 22,3 °C 0,8 °C 51 % 82 % 1031,2 hPa 0,0 l/m² 11,3 km/h (2 Bft) O 90 ° 0 min 0 W/m² -1,9 °C -3,6 °C 12,9 km/h (3 Bft)
29.01.2024 00:21 22,3 °C 0,8 °C 51 % 81 % 1031,3 hPa 0,0 l/m² 11,3 km/h (2 Bft) O 90 ° 0 min 0 W/m² -2,1 °C -3,6 °C 12,9 km/h (3 Bft)
29.01.2024 00:22 22,3 °C 0,8 °C 51 % 81 % 1031,3 hPa 0,0 l/m² 11,3 km/h (2 Bft) O 90 ° 0 min 0 W/m² -2,1 °C -3,6 °C 12,9 km/h (3 Bft)
29.01.2024 00:23 22,3 °C 0,8 °C 51 % 81 % 1031,3 hPa 0,0 l/m² 12,9 km/h (3 Bft) O 90 ° 0 min 0 W/m² -2,1 °C -4,7 °C 14,5 km/h (3 Bft)
29.01.2024 00:24 22,3 °C 0,8 °C 51 % 81 % 1031,2 hPa 0,0 l/m² 12,9 km/h (3 Bft) O 90 ° 0 min 0 W/m² -2,1 °C -4,7 °C 14,5 km/h (3 Bft)
29.01.2024 00:25 22,3 °C 0,8 °C 51 % 81 % 1031,2 hPa 0,0 l/m² 14,5 km/h (3 Bft) O 90 ° 0 min 0 W/m² -2,1 °C -5,7 °C 16,1 km/h (3 Bft)
29.01.2024 00:26 22,3 °C 0,8 °C 51 % 82 % 1031,2 hPa 0,0 l/m² 14,5 km/h (3 Bft) O 90 ° 0 min 0 W/m² -1,9 °C -5,7 °C 16,1 km/h (3 Bft)
29.01.2024 00:27 22,3 °C 0,8 °C 51 % 82 % 1031,2 hPa 0,0 l/m² 14,5 km/h (3 Bft) O 90 ° 0 min 0 W/m² -1,9 °C -5,7 °C 16,1 km/h (3 Bft)
29.01.2024 00:28 22,3 °C 0,8 °C 51 % 82 % 1031,4 hPa 0,0 l/m² 14,5 km/h (3 Bft) O 90 ° 0 min 0 W/m² -1,9 °C -5,7 °C 16,1 km/h (3 Bft)
29.01.2024 00:29 22,3 °C 0,8 °C 51 % 82 % 1031,3 hPa 0,0 l/m² 12,9 km/h (3 Bft) O 90 ° 0 min 0 W/m² -1,9 °C -4,7 °C 14,5 km/h (3 Bft)
29.01.2024 00:30 22,3 °C 0,8 °C 51 % 82 % 1031,2 hPa 0,0 l/m² 12,9 km/h (3 Bft) O 90 ° 0 min 0 W/m² -1,9 °C -4,7 °C 14,5 km/h (3 Bft)
29.01.2024 00:31 22,3 °C 0,9 °C 51 % 82 % 1031,2 hPa 0,0 l/m² 12,9 km/h (3 Bft) O 90 ° 0 min 0 W/m² -1,8 °C -4,6 °C 14,5 km/h (3 Bft)
29.01.2024 00:32 22,3 °C 0,9 °C 51 % 82 % 1031,3 hPa 0,0 l/m² 12,9 km/h (3 Bft) O 90 ° 0 min 0 W/m² -1,8 °C -4,6 °C 16,1 km/h (3 Bft)
29.01.2024 00:33 22,3 °C 0,9 °C 51 % 82 % 1031,2 hPa 0,0 l/m² 12,9 km/h (3 Bft) O 90 ° 0 min 0 W/m² -1,8 °C -4,6 °C 14,5 km/h (3 Bft)
29.01.2024 00:34 22,3 °C 0,9 °C 51 % 82 % 1031,1 hPa 0,0 l/m² 12,9 km/h (3 Bft) O 90 ° 0 min 0 W/m² -1,8 °C -4,6 °C 16,1 km/h (3 Bft)
29.01.2024 00:35 22,3 °C 1,0 °C 51 % 82 % 1031,2 hPa 0,0 l/m² 12,9 km/h (3 Bft) O 90 ° 0 min 0 W/m² -1,7 °C -4,5 °C 14,5 km/h (3 Bft)
29.01.2024 00:36 22,3 °C 1,0 °C 51 % 81 % 1031,2 hPa 0,0 l/m² 12,9 km/h (3 Bft) O 90 ° 0 min 0 W/m² -1,9 °C -4,5 °C 14,5 km/h (3 Bft)
29.01.2024 00:37 22,3 °C 1,0 °C 51 % 82 % 1031,2 hPa 0,0 l/m² 14,5 km/h (3 Bft) O 90 ° 0 min 0 W/m² -1,7 °C -5,5 °C 16,1 km/h (3 Bft)
29.01.2024 00:38 22,2 °C 1,0 °C 51 % 82 % 1031,2 hPa 0,0 l/m² 14,5 km/h (3 Bft) O 90 ° 0 min 0 W/m² -1,7 °C -5,5 °C 16,1 km/h (3 Bft)
29.01.2024 00:39 22,3 °C 1,0 °C 51 % 82 % 1031,2 hPa 0,0 l/m² 14,5 km/h (3 Bft) O 90 ° 0 min 0 W/m² -1,7 °C -5,5 °C 16,1 km/h (3 Bft)
29.01.2024 00:40 22,3 °C 1,1 °C 51 % 81 % 1031,2 hPa 0,0 l/m² 12,9 km/h (3 Bft) O 90 ° 0 min 0 W/m² -1,8 °C -4,3 °C 16,1 km/h (3 Bft)
29.01.2024 00:41 22,3 °C 1,1 °C 51 % 81 % 1031,1 hPa 0,0 l/m² 12,9 km/h (3 Bft) O 90 ° 0 min 0 W/m² -1,8 °C -4,3 °C 14,5 km/h (3 Bft)
29.01.2024 00:42 22,3 °C 1,1 °C 51 % 81 % 1031,2 hPa 0,0 l/m² 9,7 km/h (2 Bft) O 90 ° 0 min 0 W/m² -1,8 °C -2,0 °C 12,9 km/h (3 Bft)
29.01.2024 00:43 22,3 °C 1,0 °C 51 % 81 % 1031,1 hPa 0,0 l/m² 9,7 km/h (2 Bft) O 90 ° 0 min 0 W/m² -1,9 °C -2,1 °C 14,5 km/h (3 Bft)
29.01.2024 00:44 22,3 °C 0,9 °C 51 % 81 % 1031,1 hPa 0,0 l/m² 11,3 km/h (2 Bft) O 90 ° 0 min 0 W/m² -2,0 °C -3,5 °C 14,5 km/h (3 Bft)
29.01.2024 00:45 22,3 °C 0,9 °C 51 % 81 % 1031,1 hPa 0,0 l/m² 9,7 km/h (2 Bft) O 90 ° 0 min 0 W/m² -2,0 °C -2,2 °C 12,9 km/h (3 Bft)
29.01.2024 00:46 22,3 °C 0,8 °C 51 % 81 % 1031,1 hPa 0,0 l/m² 9,7 km/h (2 Bft) O 90 ° 0 min 0 W/m² -2,1 °C -2,3 °C 11,3 km/h (2 Bft)
29.01.2024 00:47 22,3 °C 0,8 °C 51 % 81 % 1031,2 hPa 0,0 l/m² 9,7 km/h (2 Bft) O 90 ° 0 min 0 W/m² -2,1 °C -2,3 °C 14,5 km/h (3 Bft)
29.01.2024 00:48 22,3 °C 0,8 °C 51 % 81 % 1031,2 hPa 0,0 l/m² 9,7 km/h (2 Bft) O 90 ° 0 min 0 W/m² -2,1 °C -2,3 °C 12,9 km/h (3 Bft)
29.01.2024 00:49 22,3 °C 0,7 °C 51 % 81 % 1031,1 hPa 0,0 l/m² 8,0 km/h (2 Bft) O 90 ° 0 min 0 W/m² -2,2 °C -0,9 °C 12,9 km/h (3 Bft)
29.01.2024 00:50 22,3 °C 0,7 °C 51 % 81 % 1031,2 hPa 0,0 l/m² 8,0 km/h (2 Bft) O 90 ° 0 min 0 W/m² -2,2 °C -0,9 °C 11,3 km/h (2 Bft)
29.01.2024 00:51 22,3 °C 0,7 °C 51 % 82 % 1031,1 hPa 0,0 l/m² 8,0 km/h (2 Bft) O 90 ° 0 min 0 W/m² -2,0 °C -0,9 °C 11,3 km/h (2 Bft)
29.01.2024 00:52 22,3 °C 0,7 °C 51 % 82 % 1031,1 hPa 0,0 l/m² 8,0 km/h (2 Bft) O 90 ° 0 min 0 W/m² -2,0 °C -0,9 °C 11,3 km/h (2 Bft)
29.01.2024 00:53 22,3 °C 0,7 °C 51 % 82 % 1031,2 hPa 0,0 l/m² 6,4 km/h (2 Bft) O 90 ° 0 min 0 W/m² -2,0 °C 0,7 °C 8,0 km/h (2 Bft)
29.01.2024 00:54 22,3 °C 0,7 °C 51 % 82 % 1031,1 hPa 0,0 l/m² 4,8 km/h (1 Bft) O 90 ° 0 min 0 W/m² -2,0 °C 0,7 °C 8,0 km/h (2 Bft)
29.01.2024 00:55 22,3 °C 0,7 °C 51 % 82 % 1031,2 hPa 0,0 l/m² 3,2 km/h (1 Bft) O 90 ° 0 min 0 W/m² -2,0 °C 0,7 °C 6,4 km/h (2 Bft)
29.01.2024 00:56 22,3 °C 0,7 °C 51 % 82 % 1031,2 hPa 0,0 l/m² 4,8 km/h (1 Bft) O 90 ° 0 min 0 W/m² -2,0 °C 0,7 °C 6,4 km/h (2 Bft)
29.01.2024 00:57 22,3 °C 0,7 °C 51 % 82 % 1031,1 hPa 0,0 l/m² 3,2 km/h (1 Bft) O 90 ° 0 min 0 W/m² -2,0 °C 0,7 °C 4,8 km/h (1 Bft)
29.01.2024 00:58 22,3 °C 0,7 °C 51 % 82 % 1031,1 hPa 0,0 l/m² 3,2 km/h (1 Bft) O 90 ° 0 min 0 W/m² -2,0 °C 0,7 °C 6,4 km/h (2 Bft)
29.01.2024 00:59 22,3 °C 0,7 °C 51 % 82 % 1031,1 hPa 0,0 l/m² 3,2 km/h (1 Bft) O 90 ° 0 min 0 W/m² -2,0 °C 0,7 °C 6,4 km/h (2 Bft)
29.01.2024 01:00 22,3 °C 0,7 °C 51 % 81 % 1031,1 hPa 0,0 l/m² 4,8 km/h (1 Bft) O 90 ° 0 min 0 W/m² -2,2 °C 0,7 °C 6,4 km/h (2 Bft)
29.01.2024 01:01 22,3 °C 0,8 °C 51 % 81 % 1031,1 hPa 0,0 l/m² 3,2 km/h (1 Bft) O 90 ° 0 min 0 W/m² -2,1 °C 0,8 °C 4,8 km/h (1 Bft)
29.01.2024 01:02 22,3 °C 0,8 °C 51 % 81 % 1031,1 hPa 0,0 l/m² 3,2 km/h (1 Bft) O 90 ° 0 min 0 W/m² -2,1 °C 0,8 °C 4,8 km/h (1 Bft)
29.01.2024 01:03 22,3 °C 0,8 °C 51 % 81 % 1031,1 hPa 0,0 l/m² 3,2 km/h (1 Bft) O 90 ° 0 min 0 W/m² -2,1 °C 0,8 °C 4,8 km/h (1 Bft)
29.01.2024 01:04 22,3 °C 0,8 °C 51 % 81 % 1031,1 hPa 0,0 l/m² 4,8 km/h (1 Bft) O 90 ° 0 min 0 W/m² -2,1 °C 0,8 °C 6,4 km/h (2 Bft)
29.01.2024 01:05 22,3 °C 0,8 °C 51 % 81 % 1031,1 hPa 0,0 l/m² 6,4 km/h (2 Bft) O 90 ° 0 min 0 W/m² -2,1 °C 0,8 °C 8,0 km/h (2 Bft)
29.01.2024 01:06 22,3 °C 0,8 °C 51 % 81 % 1031,1 hPa 0,0 l/m² 6,4 km/h (2 Bft) O 90 ° 0 min 0 W/m² -2,1 °C 0,8 °C 8,0 km/h (2 Bft)
29.01.2024 01:07 22,3 °C 0,8 °C 51 % 81 % 1031,1 hPa 0,0 l/m² 4,8 km/h (1 Bft) O 90 ° 0 min 0 W/m² -2,1 °C 0,8 °C 8,0 km/h (2 Bft)
29.01.2024 01:08 22,3 °C 0,8 °C 51 % 81 % 1031,1 hPa 0,0 l/m² 6,4 km/h (2 Bft) O 90 ° 0 min 0 W/m² -2,1 °C 0,8 °C 8,0 km/h (2 Bft)
29.01.2024 01:09 22,3 °C 0,8 °C 51 % 81 % 1031,1 hPa 0,0 l/m² 1,6 km/h (1 Bft) O 90 ° 0 min 0 W/m² -2,1 °C 0,8 °C 6,4 km/h (2 Bft)
29.01.2024 01:10 22,3 °C 0,8 °C 51 % 81 % 1031,0 hPa 0,0 l/m² 3,2 km/h (1 Bft) O 90 ° 0 min 0 W/m² -2,1 °C 0,8 °C 8,0 km/h (2 Bft)
29.01.2024 01:11 22,3 °C 0,8 °C 51 % 81 % 1031,1 hPa 0,0 l/m² 6,4 km/h (2 Bft) O 90 ° 0 min 0 W/m² -2,1 °C 0,8 °C 8,0 km/h (2 Bft)
29.01.2024 01:12 22,3 °C 0,8 °C 51 % 81 % 1031,1 hPa 0,0 l/m² 4,8 km/h (1 Bft) O 90 ° 0 min 0 W/m² -2,1 °C 0,8 °C 8,0 km/h (2 Bft)
29.01.2024 01:13 22,3 °C 0,8 °C 51 % 81 % 1031,1 hPa 0,0 l/m² 3,2 km/h (1 Bft) O 90 ° 0 min 0 W/m² -2,1 °C 0,8 °C 4,8 km/h (1 Bft)
29.01.2024 01:14 22,3 °C 0,8 °C 51 % 81 % 1031,1 hPa 0,0 l/m² 1,6 km/h (1 Bft) O 90 ° 0 min 0 W/m² -2,1 °C 0,8 °C 3,2 km/h (1 Bft)
29.01.2024 01:15 22,3 °C 0,8 °C 51 % 81 % 1031,1 hPa 0,0 l/m² 1,6 km/h (1 Bft) O 90 ° 0 min 0 W/m² -2,1 °C 0,8 °C 3,2 km/h (1 Bft)
29.01.2024 01:16 22,3 °C 0,9 °C 51 % 81 % 1031,1 hPa 0,0 l/m² 0,0 km/h (0 Bft) O 90 ° 0 min 0 W/m² -2,0 °C 0,9 °C 1,6 km/h (1 Bft)
29.01.2024 01:17 22,3 °C 0,9 °C 51 % 80 % 1031,1 hPa 0,0 l/m² 0,0 km/h (0 Bft) O 90 ° 0 min 0 W/m² -2,2 °C 0,9 °C 1,6 km/h (1 Bft)
29.01.2024 01:18 22,3 °C 0,9 °C 51 % 80 % 1031,0 hPa 0,0 l/m² 0,0 km/h (0 Bft) O 90 ° 0 min 0 W/m² -2,2 °C 0,9 °C 1,6 km/h (1 Bft)
29.01.2024 01:19 22,3 °C 0,9 °C 51 % 80 % 1031,0 hPa 0,0 l/m² 0,0 km/h (0 Bft) O 90 ° 0 min 0 W/m² -2,2 °C 0,9 °C 1,6 km/h (1 Bft)
29.01.2024 01:20 22,3 °C 0,9 °C 51 % 80 % 1031,0 hPa 0,0 l/m² 1,6 km/h (1 Bft) O 90 ° 0 min 0 W/m² -2,2 °C 0,9 °C 3,2 km/h (1 Bft)
29.01.2024 01:21 22,3 °C 0,9 °C 51 % 80 % 1030,9 hPa 0,0 l/m² 1,6 km/h (1 Bft) O 90 ° 0 min 0 W/m² -2,2 °C 0,9 °C 3,2 km/h (1 Bft)
29.01.2024 01:22 22,3 °C 0,9 °C 51 % 80 % 1030,9 hPa 0,0 l/m² 1,6 km/h (1 Bft) O 90 ° 0 min 0 W/m² -2,2 °C 0,9 °C 3,2 km/h (1 Bft)
29.01.2024 01:23 22,3 °C 0,8 °C 51 % 80 % 1030,8 hPa 0,0 l/m² 1,6 km/h (1 Bft) O 90 ° 0 min 0 W/m² -2,2 °C 0,8 °C 3,2 km/h (1 Bft)
29.01.2024 01:24 22,3 °C 0,8 °C 51 % 80 % 1030,9 hPa 0,0 l/m² 1,6 km/h (1 Bft) O 90 ° 0 min 0 W/m² -2,2 °C 0,8 °C 3,2 km/h (1 Bft)
29.01.2024 01:25 22,3 °C 0,8 °C 51 % 80 % 1030,9 hPa 0,0 l/m² 1,6 km/h (1 Bft) O 90 ° 0 min 0 W/m² -2,2 °C 0,8 °C 3,2 km/h (1 Bft)
29.01.2024 01:26 22,3 °C 0,8 °C 51 % 80 % 1030,8 hPa 0,0 l/m² 1,6 km/h (1 Bft) O 90 ° 0 min 0 W/m² -2,2 °C 0,8 °C 1,6 km/h (1 Bft)
29.01.2024 01:27 22,3 °C 0,8 °C 51 % 80 % 1030,8 hPa 0,0 l/m² 1,6 km/h (1 Bft) O 90 ° 0 min 0 W/m² -2,2 °C 0,8 °C 4,8 km/h (1 Bft)
29.01.2024 01:28 22,3 °C 0,7 °C 51 % 80 % 1030,8 hPa 0,0 l/m² 3,2 km/h (1 Bft) O 90 ° 0 min 0 W/m² -2,3 °C 0,7 °C 4,8 km/h (1 Bft)
29.01.2024 01:29 22,3 °C 0,7 °C 51 % 80 % 1030,8 hPa 0,0 l/m² 3,2 km/h (1 Bft) O 90 ° 0 min 0 W/m² -2,3 °C 0,7 °C 4,8 km/h (1 Bft)
29.01.2024 01:30 22,3 °C 0,7 °C 51 % 80 % 1030,8 hPa 0,0 l/m² 1,6 km/h (1 Bft) O 90 ° 0 min 0 W/m² -2,3 °C 0,7 °C 3,2 km/h (1 Bft)
29.01.2024 01:31 22,3 °C 0,7 °C 51 % 80 % 1030,8 hPa 0,0 l/m² 1,6 km/h (1 Bft) O 90 ° 0 min 0 W/m² -2,3 °C 0,7 °C 3,2 km/h (1 Bft)
29.01.2024 01:32 22,3 °C 0,7 °C 51 % 80 % 1030,8 hPa 0,0 l/m² 1,6 km/h (1 Bft) O 90 ° 0 min 0 W/m² -2,3 °C 0,7 °C 3,2 km/h (1 Bft)
29.01.2024 01:33 22,3 °C 0,6 °C 51 % 80 % 1030,8 hPa 0,0 l/m² 0,0 km/h (0 Bft) O 90 ° 0 min 0 W/m² -2,4 °C 0,6 °C 1,6 km/h (1 Bft)
29.01.2024 01:34 22,3 °C 0,6 °C 51 % 80 % 1030,8 hPa 0,0 l/m² 0,0 km/h (0 Bft) O 90 ° 0 min 0 W/m² -2,4 °C 0,6 °C 1,6 km/h (1 Bft)
29.01.2024 01:35 22,3 °C 0,6 °C 51 % 81 % 1030,8 hPa 0,0 l/m² 1,6 km/h (1 Bft) O 90 ° 0 min 0 W/m² -2,3 °C 0,6 °C 3,2 km/h (1 Bft)
29.01.2024 01:36 22,3 °C 0,6 °C 51 % 81 % 1030,8 hPa 0,0 l/m² 1,6 km/h (1 Bft) O 90 ° 0 min 0 W/m² -2,3 °C 0,6 °C 3,2 km/h (1 Bft)
29.01.2024 01:37 22,3 °C 0,6 °C 51 % 81 % 1030,7 hPa 0,0 l/m² 3,2 km/h (1 Bft) O 90 ° 0 min 0 W/m² -2,3 °C 0,6 °C 4,8 km/h (1 Bft)
29.01.2024 01:38 22,3 °C 0,6 °C 51 % 81 % 1030,8 hPa 0,0 l/m² 1,6 km/h (1 Bft) O 90 ° 0 min 0 W/m² -2,3 °C 0,6 °C 4,8 km/h (1 Bft)
29.01.2024 01:39 22,3 °C 0,7 °C 51 % 81 % 1030,7 hPa 0,0 l/m² 1,6 km/h (1 Bft) O 90 ° 0 min 0 W/m² -2,2 °C 0,7 °C 3,2 km/h (1 Bft)
29.01.2024 01:40 22,3 °C 0,7 °C 51 % 81 % 1030,7 hPa 0,0 l/m² 3,2 km/h (1 Bft) O 90 ° 0 min 0 W/m² -2,2 °C 0,7 °C 4,8 km/h (1 Bft)
29.01.2024 01:41 22,3 °C 0,7 °C 51 % 81 % 1030,8 hPa 0,0 l/m² 3,2 km/h (1 Bft) O 90 ° 0 min 0 W/m² -2,2 °C 0,7 °C 4,8 km/h (1 Bft)
29.01.2024 01:42 22,3 °C 0,7 °C 51 % 81 % 1030,7 hPa 0,0 l/m² 3,2 km/h (1 Bft) O 90 ° 0 min 0 W/m² -2,2 °C 0,7 °C 4,8 km/h (1 Bft)
29.01.2024 01:43 22,3 °C 0,6 °C 51 % 81 % 1030,7 hPa 0,0 l/m² 3,2 km/h (1 Bft) O 90 ° 0 min 0 W/m² -2,3 °C 0,6 °C 4,8 km/h (1 Bft)
29.01.2024 01:44 22,3 °C 0,6 °C 51 % 81 % 1030,8 hPa 0,0 l/m² 4,8 km/h (1 Bft) O 90 ° 0 min 0 W/m² -2,3 °C 0,6 °C 6,4 km/h (2 Bft)
29.01.2024 01:45 22,3 °C 0,6 °C 51 % 81 % 1030,7 hPa 0,0 l/m² 4,8 km/h (1 Bft) O 90 ° 0 min 0 W/m² -2,3 °C 0,6 °C 6,4 km/h (2 Bft)
29.01.2024 01:46 22,3 °C 0,6 °C 51 % 81 % 1030,8 hPa 0,0 l/m² 3,2 km/h (1 Bft) O 90 ° 0 min 0 W/m² -2,3 °C 0,6 °C 4,8 km/h (1 Bft)
29.01.2024 01:47 22,3 °C 0,6 °C 51 % 81 % 1030,6 hPa 0,0 l/m² 4,8 km/h (1 Bft) O 90 ° 0 min 0 W/m² -2,3 °C 0,6 °C 6,4 km/h (2 Bft)
29.01.2024 01:48 22,3 °C 0,6 °C 51 % 81 % 1030,7 hPa 0,0 l/m² 4,8 km/h (1 Bft) O 90 ° 0 min 0 W/m² -2,3 °C 0,6 °C 6,4 km/h (2 Bft)
29.01.2024 01:49 22,3 °C 0,6 °C 51 % 81 % 1030,8 hPa 0,0 l/m² 6,4 km/h (2 Bft) O 90 ° 0 min 0 W/m² -2,3 °C 0,6 °C 6,4 km/h (2 Bft)
29.01.2024 01:50 22,3 °C 0,6 °C 51 % 81 % 1030,7 hPa 0,0 l/m² 6,4 km/h (2 Bft) O 90 ° 0 min 0 W/m² -2,3 °C 0,6 °C 8,0 km/h (2 Bft)
29.01.2024 01:51 22,3 °C 0,6 °C 51 % 81 % 1030,8 hPa 0,0 l/m² 6,4 km/h (2 Bft) O 90 ° 0 min 0 W/m² -2,3 °C 0,6 °C 8,0 km/h (2 Bft)
29.01.2024 01:52 22,3 °C 0,6 °C 51 % 81 % 1030,7 hPa 0,0 l/m² 6,4 km/h (2 Bft) O 90 ° 0 min 0 W/m² -2,3 °C 0,6 °C 8,0 km/h (2 Bft)
29.01.2024 01:53 22,3 °C 0,6 °C 51 % 81 % 1030,8 hPa 0,0 l/m² 4,8 km/h (1 Bft) O 90 ° 0 min 0 W/m² -2,3 °C 0,6 °C 6,4 km/h (2 Bft)
29.01.2024 01:54 22,3 °C 0,5 °C 51 % 81 % 1030,7 hPa 0,0 l/m² 3,2 km/h (1 Bft) O 90 ° 0 min 0 W/m² -2,4 °C 0,5 °C 4,8 km/h (1 Bft)
29.01.2024 01:55 22,3 °C 0,5 °C 51 % 81 % 1030,7 hPa 0,0 l/m² 4,8 km/h (1 Bft) O 90 ° 0 min 0 W/m² -2,4 °C 0,5 °C 8,0 km/h (2 Bft)
29.01.2024 01:56 22,3 °C 0,5 °C 51 % 81 % 1030,6 hPa 0,0 l/m² 3,2 km/h (1 Bft) O 90 ° 0 min 0 W/m² -2,4 °C 0,5 °C 4,8 km/h (1 Bft)
29.01.2024 01:57 22,3 °C 0,5 °C 51 % 81 % 1030,8 hPa 0,0 l/m² 6,4 km/h (2 Bft) O 90 ° 0 min 0 W/m² -2,4 °C 0,5 °C 8,0 km/h (2 Bft)
29.01.2024 01:58 22,3 °C 0,5 °C 51 % 81 % 1030,7 hPa 0,0 l/m² 4,8 km/h (1 Bft) O 90 ° 0 min 0 W/m² -2,4 °C 0,5 °C 6,4 km/h (2 Bft)
29.01.2024 01:59 22,3 °C 0,4 °C 51 % 81 % 1030,7 hPa 0,0 l/m² 3,2 km/h (1 Bft) O 90 ° 0 min 0 W/m² -2,5 °C 0,4 °C 4,8 km/h (1 Bft)
29.01.2024 02:00 22,3 °C 0,4 °C 51 % 81 % 1030,7 hPa 0,0 l/m² 3,2 km/h (1 Bft) O 90 ° 0 min 0 W/m² -2,5 °C 0,4 °C 4,8 km/h (1 Bft)
29.01.2024 02:01 22,3 °C 0,5 °C 51 % 81 % 1030,8 hPa 0,0 l/m² 1,6 km/h (1 Bft) O 90 ° 0 min 0 W/m² -2,4 °C 0,5 °C 3,2 km/h (1 Bft)
29.01.2024 02:02 22,3 °C 0,5 °C 51 % 82 % 1030,8 hPa 0,0 l/m² 1,6 km/h (1 Bft) O 90 ° 0 min 0 W/m² -2,2 °C 0,5 °C 3,2 km/h (1 Bft)
29.01.2024 02:03 22,3 °C 0,6 °C 51 % 82 % 1030,8 hPa 0,0 l/m² 1,6 km/h (1 Bft) O 90 ° 0 min 0 W/m² -2,1 °C 0,6 °C 3,2 km/h (1 Bft)
29.01.2024 02:04 22,3 °C 0,6 °C 51 % 82 % 1030,8 hPa 0,0 l/m² 1,6 km/h (1 Bft) O 90 ° 0 min 0 W/m² -2,1 °C 0,6 °C 4,8 km/h (1 Bft)
29.01.2024 02:05 22,3 °C 0,6 °C 51 % 82 % 1030,9 hPa 0,0 l/m² 1,6 km/h (1 Bft) O 90 ° 0 min 0 W/m² -2,1 °C 0,6 °C 3,2 km/h (1 Bft)
29.01.2024 02:06 22,3 °C 0,7 °C 51 % 82 % 1030,8 hPa 0,0 l/m² 1,6 km/h (1 Bft) O 90 ° 0 min 0 W/m² -2,0 °C 0,7 °C 4,8 km/h (1 Bft)
29.01.2024 02:07 22,3 °C 0,7 °C 51 % 82 % 1030,9 hPa 0,0 l/m² 1,6 km/h (1 Bft) O 90 ° 0 min 0 W/m² -2,0 °C 0,7 °C 3,2 km/h (1 Bft)
29.01.2024 02:08 22,3 °C 0,7 °C 51 % 81 % 1030,8 hPa 0,0 l/m² 1,6 km/h (1 Bft) O 90 ° 0 min 0 W/m² -2,2 °C 0,7 °C 3,2 km/h (1 Bft)
29.01.2024 02:09 22,3 °C 0,8 °C 51 % 81 % 1030,8 hPa 0,0 l/m² 0,0 km/h (0 Bft) O 90 ° 0 min 0 W/m² -2,1 °C 0,8 °C 1,6 km/h (1 Bft)
29.01.2024 02:10 22,3 °C 0,8 °C 51 % 81 % 1030,8 hPa 0,0 l/m² 0,0 km/h (0 Bft) N 0 ° 0 min 0 W/m² -2,1 °C 0,8 °C 0,0 km/h (0 Bft)
29.01.2024 02:11 22,3 °C 0,8 °C 51 % 81 % 1030,9 hPa 0,0 l/m² 0,0 km/h (0 Bft) O 90 ° 0 min 0 W/m² -2,1 °C 0,8 °C 1,6 km/h (1 Bft)
29.01.2024 02:12 22,3 °C 0,8 °C 51 % 81 % 1030,8 hPa 0,0 l/m² 1,6 km/h (1 Bft) O 90 ° 0 min 0 W/m² -2,1 °C 0,8 °C 3,2 km/h (1 Bft)
29.01.2024 02:13 22,3 °C 0,8 °C 51 % 81 % 1030,8 hPa 0,0 l/m² 0,0 km/h (0 Bft) N 0 ° 0 min 0 W/m² -2,1 °C 0,8 °C 0,0 km/h (0 Bft)
29.01.2024 02:14 22,3 °C 0,8 °C 51 % 80 % 1030,8 hPa 0,0 l/m² 1,6 km/h (1 Bft) O 90 ° 0 min 0 W/m² -2,2 °C 0,8 °C 3,2 km/h (1 Bft)
29.01.2024 02:15 22,3 °C 0,8 °C 51 % 80 % 1030,7 hPa 0,0 l/m² 0,0 km/h (0 Bft) O 90 ° 0 min 0 W/m² -2,2 °C 0,8 °C 1,6 km/h (1 Bft)
29.01.2024 02:16 22,3 °C 0,8 °C 51 % 80 % 1030,8 hPa 0,0 l/m² 1,6 km/h (1 Bft) O 90 ° 0 min 0 W/m² -2,2 °C 0,8 °C 3,2 km/h (1 Bft)
29.01.2024 02:17 22,3 °C 0,8 °C 51 % 80 % 1030,8 hPa 0,0 l/m² 1,6 km/h (1 Bft) O 90 ° 0 min 0 W/m² -2,2 °C 0,8 °C 3,2 km/h (1 Bft)
29.01.2024 02:18 22,3 °C 0,8 °C 51 % 80 % 1030,8 hPa 0,0 l/m² 1,6 km/h (1 Bft) O 90 ° 0 min 0 W/m² -2,2 °C 0,8 °C 3,2 km/h (1 Bft)
29.01.2024 02:19 22,3 °C 0,9 °C 51 % 80 % 1030,8 hPa 0,0 l/m² 3,2 km/h (1 Bft) O 90 ° 0 min 0 W/m² -2,2 °C 0,9 °C 4,8 km/h (1 Bft)
29.01.2024 02:20 22,3 °C 0,9 °C 51 % 80 % 1030,7 hPa 0,0 l/m² 3,2 km/h (1 Bft) O 90 ° 0 min 0 W/m² -2,2 °C 0,9 °C 6,4 km/h (2 Bft)
29.01.2024 02:21 22,3 °C 0,9 °C 51 % 80 % 1030,7 hPa 0,0 l/m² 1,6 km/h (1 Bft) O 90 ° 0 min 0 W/m² -2,2 °C 0,9 °C 3,2 km/h (1 Bft)
29.01.2024 02:22 22,3 °C 0,9 °C 51 % 80 % 1030,7 hPa 0,0 l/m² 3,2 km/h (1 Bft) O 90 ° 0 min 0 W/m² -2,2 °C 0,9 °C 6,4 km/h (2 Bft)
29.01.2024 02:23 22,3 °C 1,0 °C 51 % 80 % 1030,8 hPa 0,0 l/m² 3,2 km/h (1 Bft) O 90 ° 0 min 0 W/m² -2,1 °C 1,0 °C 4,8 km/h (1 Bft)
29.01.2024 02:24 22,3 °C 1,0 °C 51 % 80 % 1030,7 hPa 0,0 l/m² 4,8 km/h (1 Bft) O 90 ° 0 min 0 W/m² -2,1 °C 1,0 °C 6,4 km/h (2 Bft)
29.01.2024 02:25 22,3 °C 1,0 °C 51 % 79 % 1030,7 hPa 0,0 l/m² 4,8 km/h (1 Bft) O 90 ° 0 min 0 W/m² -2,2 °C 1,0 °C 6,4 km/h (2 Bft)
29.01.2024 02:26 22,3 °C 1,0 °C 51 % 79 % 1030,7 hPa 0,0 l/m² 3,2 km/h (1 Bft) O 90 ° 0 min 0 W/m² -2,2 °C 1,0 °C 4,8 km/h (1 Bft)
29.01.2024 02:27 22,3 °C 1,0 °C 51 % 79 % 1030,7 hPa 0,0 l/m² 3,2 km/h (1 Bft) O 90 ° 0 min 0 W/m² -2,2 °C 1,0 °C 4,8 km/h (1 Bft)
29.01.2024 02:28 22,3 °C 0,9 °C 51 % 79 % 1030,6 hPa 0,0 l/m² 4,8 km/h (1 Bft) O 90 ° 0 min 0 W/m² -2,3 °C 0,9 °C 4,8 km/h (1 Bft)
29.01.2024 02:29 22,3 °C 0,9 °C 51 % 79 % 1030,7 hPa 0,0 l/m² 3,2 km/h (1 Bft) O 90 ° 0 min 0 W/m² -2,3 °C 0,9 °C 4,8 km/h (1 Bft)
29.01.2024 02:30 22,3 °C 0,9 °C 51 % 79 % 1030,6 hPa 0,0 l/m² 3,2 km/h (1 Bft) O 90 ° 0 min 0 W/m² -2,3 °C 0,9 °C 4,8 km/h (1 Bft)
29.01.2024 02:31 22,3 °C 0,8 °C 51 % 79 % 1030,6 hPa 0,0 l/m² 4,8 km/h (1 Bft) O 90 ° 0 min 0 W/m² -2,4 °C 0,8 °C 6,4 km/h (2 Bft)
29.01.2024 02:32 22,3 °C 0,8 °C 51 % 79 % 1030,6 hPa 0,0 l/m² 4,8 km/h (1 Bft) O 90 ° 0 min 0 W/m² -2,4 °C 0,8 °C 6,4 km/h (2 Bft)
29.01.2024 02:33 22,3 °C 0,8 °C 51 % 79 % 1030,6 hPa 0,0 l/m² 4,8 km/h (1 Bft) O 90 ° 0 min 0 W/m² -2,4 °C 0,8 °C 8,0 km/h (2 Bft)
29.01.2024 02:34 22,3 °C 0,8 °C 51 % 80 % 1030,6 hPa 0,0 l/m² 6,4 km/h (2 Bft) O 90 ° 0 min 0 W/m² -2,2 °C 0,8 °C 8,0 km/h (2 Bft)
29.01.2024 02:35 22,3 °C 0,8 °C 51 % 80 % 1030,5 hPa 0,0 l/m² 6,4 km/h (2 Bft) O 90 ° 0 min 0 W/m² -2,2 °C 0,8 °C 8,0 km/h (2 Bft)
29.01.2024 02:36 22,3 °C 0,8 °C 51 % 80 % 1030,5 hPa 0,0 l/m² 8,0 km/h (2 Bft) O 90 ° 0 min 0 W/m² -2,2 °C -0,8 °C 11,3 km/h (2 Bft)
29.01.2024 02:37 22,3 °C 0,8 °C 51 % 80 % 1030,5 hPa 0,0 l/m² 8,0 km/h (2 Bft) O 90 ° 0 min 0 W/m² -2,2 °C -0,8 °C 12,9 km/h (3 Bft)
29.01.2024 02:38 22,3 °C 0,8 °C 51 % 80 % 1030,5 hPa 0,0 l/m² 8,0 km/h (2 Bft) O-SO 112 ° 0 min 0 W/m² -2,2 °C -0,8 °C 11,3 km/h (2 Bft)
29.01.2024 02:39 22,3 °C 0,8 °C 51 % 80 % 1030,5 hPa 0,0 l/m² 8,0 km/h (2 Bft) O-SO 112 ° 0 min 0 W/m² -2,2 °C -0,8 °C 11,3 km/h (2 Bft)
29.01.2024 02:40 22,3 °C 0,8 °C 51 % 80 % 1030,5 hPa 0,0 l/m² 8,0 km/h (2 Bft) O-SO 112 ° 0 min 0 W/m² -2,2 °C -0,8 °C 11,3 km/h (2 Bft)
29.01.2024 02:41 22,3 °C 0,9 °C 51 % 80 % 1030,5 hPa 0,0 l/m² 8,0 km/h (2 Bft) O-SO 112 ° 0 min 0 W/m² -2,2 °C -0,7 °C 12,9 km/h (3 Bft)
29.01.2024 02:42 22,3 °C 0,9 °C 51 % 80 % 1030,4 hPa 0,0 l/m² 9,7 km/h (2 Bft) O-SO 112 ° 0 min 0 W/m² -2,2 °C -2,2 °C 12,9 km/h (3 Bft)
29.01.2024 02:43 22,3 °C 0,9 °C 51 % 79 % 1030,5 hPa 0,0 l/m² 8,0 km/h (2 Bft) O-SO 112 ° 0 min 0 W/m² -2,3 °C -0,7 °C 12,9 km/h (3 Bft)
29.01.2024 02:44 22,3 °C 0,9 °C 51 % 79 % 1030,5 hPa 0,0 l/m² 8,0 km/h (2 Bft) O-SO 112 ° 0 min 0 W/m² -2,3 °C -0,7 °C 11,3 km/h (2 Bft)
29.01.2024 02:45 22,3 °C 1,0 °C 51 % 79 % 1030,5 hPa 0,0 l/m² 8,0 km/h (2 Bft) O-SO 112 ° 0 min 0 W/m² -2,2 °C -0,6 °C 12,9 km/h (3 Bft)
29.01.2024 02:46 22,2 °C 1,1 °C 51 % 79 % 1030,5 hPa 0,0 l/m² 9,7 km/h (2 Bft) O-SO 112 ° 0 min 0 W/m² -2,1 °C -2,0 °C 11,3 km/h (2 Bft)
29.01.2024 02:47 22,3 °C 1,1 °C 51 % 79 % 1030,5 hPa 0,0 l/m² 9,7 km/h (2 Bft) O-SO 112 ° 0 min 0 W/m² -2,1 °C -2,0 °C 11,3 km/h (2 Bft)
29.01.2024 02:48 22,3 °C 1,1 °C 51 % 79 % 1030,5 hPa 0,0 l/m² 9,7 km/h (2 Bft) O-SO 112 ° 0 min 0 W/m² -2,1 °C -2,0 °C 11,3 km/h (2 Bft)
29.01.2024 02:49 22,3 °C 1,1 °C 51 % 79 % 1030,5 hPa 0,0 l/m² 8,0 km/h (2 Bft) O-SO 112 ° 0 min 0 W/m² -2,1 °C -0,5 °C 9,7 km/h (2 Bft)
29.01.2024 02:50 22,2 °C 1,2 °C 51 % 79 % 1030,5 hPa 0,0 l/m² 6,4 km/h (2 Bft) O-SO 112 ° 0 min 0 W/m² -2,0 °C 1,2 °C 11,3 km/h (2 Bft)
29.01.2024 02:51 22,3 °C 1,2 °C 51 % 79 % 1030,5 hPa 0,0 l/m² 6,4 km/h (2 Bft) O-SO 112 ° 0 min 0 W/m² -2,0 °C 1,2 °C 11,3 km/h (2 Bft)
29.01.2024 02:52 22,3 °C 1,2 °C 51 % 79 % 1030,4 hPa 0,0 l/m² 8,0 km/h (2 Bft) O-SO 112 ° 0 min 0 W/m² -2,0 °C -0,4 °C 11,3 km/h (2 Bft)
29.01.2024 02:53 22,3 °C 1,2 °C 51 % 79 % 1030,4 hPa 0,0 l/m² 4,8 km/h (1 Bft) O-SO 112 ° 0 min 0 W/m² -2,0 °C 1,2 °C 6,4 km/h (2 Bft)
29.01.2024 02:54 22,3 °C 1,2 °C 51 % 79 % 1030,4 hPa 0,0 l/m² 4,8 km/h (1 Bft) O-SO 112 ° 0 min 0 W/m² -2,0 °C 1,2 °C 6,4 km/h (2 Bft)
29.01.2024 02:55 22,2 °C 1,2 °C 51 % 79 % 1030,4 hPa 0,0 l/m² 4,8 km/h (1 Bft) O-SO 112 ° 0 min 0 W/m² -2,0 °C 1,2 °C 9,7 km/h (2 Bft)
29.01.2024 02:56 22,2 °C 1,2 °C 51 % 79 % 1030,4 hPa 0,0 l/m² 4,8 km/h (1 Bft) O-SO 112 ° 0 min 0 W/m² -2,0 °C 1,2 °C 9,7 km/h (2 Bft)
29.01.2024 02:57 22,2 °C 1,2 °C 51 % 79 % 1030,5 hPa 0,0 l/m² 4,8 km/h (1 Bft) O-SO 112 ° 0 min 0 W/m² -2,0 °C 1,2 °C 9,7 km/h (2 Bft)
29.01.2024 02:58 22,3 °C 1,3 °C 51 % 79 % 1030,5 hPa 0,0 l/m² 4,8 km/h (1 Bft) O-SO 112 ° 0 min 0 W/m² -1,9 °C 1,3 °C 9,7 km/h (2 Bft)
29.01.2024 02:59 22,3 °C 1,3 °C 51 % 79 % 1030,4 hPa 0,0 l/m² 4,8 km/h (1 Bft) O-SO 112 ° 0 min 0 W/m² -1,9 °C 1,3 °C 6,4 km/h (2 Bft)
29.01.2024 03:00 22,2 °C 1,3 °C 51 % 79 % 1030,4 hPa 0,0 l/m² 6,4 km/h (2 Bft) O-SO 112 ° 0 min 0 W/m² -1,9 °C 1,3 °C 9,7 km/h (2 Bft)
29.01.2024 03:01 22,2 °C 1,3 °C 51 % 78 % 1030,4 hPa 0,0 l/m² 4,8 km/h (1 Bft) O-SO 112 ° 0 min 0 W/m² -2,1 °C 1,3 °C 6,4 km/h (2 Bft)
29.01.2024 03:02 22,3 °C 1,3 °C 51 % 78 % 1030,4 hPa 0,0 l/m² 4,8 km/h (1 Bft) O-SO 112 ° 0 min 0 W/m² -2,1 °C 1,3 °C 6,4 km/h (2 Bft)
29.01.2024 03:03 22,2 °C 1,3 °C 51 % 78 % 1030,4 hPa 0,0 l/m² 6,4 km/h (2 Bft) O-SO 112 ° 0 min 0 W/m² -2,1 °C 1,3 °C 9,7 km/h (2 Bft)
29.01.2024 03:04 22,3 °C 1,3 °C 51 % 78 % 1030,3 hPa 0,0 l/m² 4,8 km/h (1 Bft) O-SO 112 ° 0 min 0 W/m² -2,1 °C 1,3 °C 6,4 km/h (2 Bft)
29.01.2024 03:05 22,2 °C 1,3 °C 51 % 78 % 1030,4 hPa 0,0 l/m² 4,8 km/h (1 Bft) O-SO 112 ° 0 min 0 W/m² -2,1 °C 1,3 °C 9,7 km/h (2 Bft)
29.01.2024 03:06 22,3 °C 1,3 °C 51 % 78 % 1030,3 hPa 0,0 l/m² 3,2 km/h (1 Bft) O-SO 112 ° 0 min 0 W/m² -2,1 °C 1,3 °C 6,4 km/h (2 Bft)
29.01.2024 03:07 22,3 °C 1,3 °C 51 % 78 % 1030,3 hPa 0,0 l/m² 4,8 km/h (1 Bft) O-SO 112 ° 0 min 0 W/m² -2,1 °C 1,3 °C 6,4 km/h (2 Bft)
29.01.2024 03:08 22,2 °C 1,3 °C 51 % 78 % 1030,3 hPa 0,0 l/m² 4,8 km/h (1 Bft) O-SO 112 ° 0 min 0 W/m² -2,1 °C 1,3 °C 9,7 km/h (2 Bft)
29.01.2024 03:09 22,3 °C 1,3 °C 51 % 78 % 1030,3 hPa 0,0 l/m² 4,8 km/h (1 Bft) O-SO 112 ° 0 min 0 W/m² -2,1 °C 1,3 °C 9,7 km/h (2 Bft)
29.01.2024 03:10 22,2 °C 1,3 °C 51 % 78 % 1030,3 hPa 0,0 l/m² 4,8 km/h (1 Bft) O-SO 112 ° 0 min 0 W/m² -2,1 °C 1,3 °C 9,7 km/h (2 Bft)
29.01.2024 03:11 22,2 °C 1,3 °C 51 % 78 % 1030,3 hPa 0,0 l/m² 6,4 km/h (2 Bft) O-SO 112 ° 0 min 0 W/m² -2,1 °C 1,3 °C 6,4 km/h (2 Bft)
29.01.2024 03:12 22,2 °C 1,2 °C 51 % 78 % 1030,3 hPa 0,0 l/m² 6,4 km/h (2 Bft) O-SO 112 ° 0 min 0 W/m² -2,2 °C 1,2 °C 9,7 km/h (2 Bft)
29.01.2024 03:13 22,2 °C 1,2 °C 51 % 78 % 1030,4 hPa 0,0 l/m² 4,8 km/h (1 Bft) O-SO 112 ° 0 min 0 W/m² -2,2 °C 1,2 °C 6,4 km/h (2 Bft)
29.01.2024 03:14 22,2 °C 1,2 °C 51 % 78 % 1030,3 hPa 0,0 l/m² 4,8 km/h (1 Bft) O-SO 112 ° 0 min 0 W/m² -2,2 °C 1,2 °C 6,4 km/h (2 Bft)
29.01.2024 03:15 22,2 °C 1,1 °C 51 % 78 % 1030,3 hPa 0,0 l/m² 4,8 km/h (1 Bft) O-SO 112 ° 0 min 0 W/m² -2,3 °C 1,1 °C 6,4 km/h (2 Bft)
29.01.2024 03:16 22,2 °C 1,1 °C 51 % 78 % 1030,3 hPa 0,0 l/m² 4,8 km/h (1 Bft) O-SO 112 ° 0 min 0 W/m² -2,3 °C 1,1 °C 6,4 km/h (2 Bft)
29.01.2024 03:17 22,2 °C 1,1 °C 51 % 78 % 1030,3 hPa 0,0 l/m² 3,2 km/h (1 Bft) O-SO 112 ° 0 min 0 W/m² -2,3 °C 1,1 °C 6,4 km/h (2 Bft)
29.01.2024 03:18 22,2 °C 1,0 °C 51 % 79 % 1030,3 hPa 0,0 l/m² 4,8 km/h (1 Bft) O-SO 112 ° 0 min 0 W/m² -2,2 °C 1,0 °C 6,4 km/h (2 Bft)
29.01.2024 03:19 22,2 °C 1,0 °C 51 % 79 % 1030,3 hPa 0,0 l/m² 4,8 km/h (1 Bft) O-SO 112 ° 0 min 0 W/m² -2,2 °C 1,0 °C 6,4 km/h (2 Bft)
29.01.2024 03:20 22,2 °C 1,0 °C 51 % 79 % 1030,3 hPa 0,0 l/m² 4,8 km/h (1 Bft) O-SO 112 ° 0 min 0 W/m² -2,2 °C 1,0 °C 9,7 km/h (2 Bft)
29.01.2024 03:21 22,2 °C 1,0 °C 51 % 79 % 1030,3 hPa 0,0 l/m² 4,8 km/h (1 Bft) O-SO 112 ° 0 min 0 W/m² -2,2 °C 1,0 °C 6,4 km/h (2 Bft)
29.01.2024 03:22 22,2 °C 1,0 °C 51 % 79 % 1030,3 hPa 0,0 l/m² 4,8 km/h (1 Bft) O-SO 112 ° 0 min 0 W/m² -2,2 °C 1,0 °C 9,7 km/h (2 Bft)
29.01.2024 03:23 22,2 °C 1,0 °C 51 % 79 % 1030,2 hPa 0,0 l/m² 3,2 km/h (1 Bft) O-SO 112 ° 0 min 0 W/m² -2,2 °C 1,0 °C 4,8 km/h (1 Bft)
29.01.2024 03:24 22,2 °C 1,1 °C 51 % 79 % 1030,2 hPa 0,0 l/m² 3,2 km/h (1 Bft) O-SO 112 ° 0 min 0 W/m² -2,1 °C 1,1 °C 4,8 km/h (1 Bft)
29.01.2024 03:25 22,2 °C 1,1 °C 51 % 79 % 1030,2 hPa 0,0 l/m² 4,8 km/h (1 Bft) O-SO 112 ° 0 min 0 W/m² -2,1 °C 1,1 °C 4,8 km/h (1 Bft)
29.01.2024 03:26 22,2 °C 1,1 °C 51 % 79 % 1030,2 hPa 0,0 l/m² 4,8 km/h (1 Bft) O-SO 112 ° 0 min 0 W/m² -2,1 °C 1,1 °C 6,4 km/h (2 Bft)
29.01.2024 03:27 22,2 °C 1,1 °C 51 % 79 % 1030,2 hPa 0,0 l/m² 4,8 km/h (1 Bft) O-SO 112 ° 0 min 0 W/m² -2,1 °C 1,1 °C 6,4 km/h (2 Bft)
29.01.2024 03:28 22,2 °C 1,1 °C 51 % 79 % 1030,2 hPa 0,0 l/m² 4,8 km/h (1 Bft) O-SO 112 ° 0 min 0 W/m² -2,1 °C 1,1 °C 6,4 km/h (2 Bft)
29.01.2024 03:29 22,2 °C 1,1 °C 51 % 79 % 1030,2 hPa 0,0 l/m² 4,8 km/h (1 Bft) O-SO 112 ° 0 min 0 W/m² -2,1 °C 1,1 °C 6,4 km/h (2 Bft)
29.01.2024 03:30 22,2 °C 1,1 °C 51 % 78 % 1030,1 hPa 0,0 l/m² 6,4 km/h (2 Bft) O-SO 112 ° 0 min 0 W/m² -2,3 °C 1,1 °C 11,3 km/h (2 Bft)
29.01.2024 03:31 22,2 °C 1,2 °C 51 % 78 % 1030,1 hPa 0,0 l/m² 4,8 km/h (1 Bft) O-SO 112 ° 0 min 0 W/m² -2,2 °C 1,2 °C 6,4 km/h (2 Bft)
29.01.2024 03:32 22,2 °C 1,2 °C 51 % 78 % 1030,2 hPa 0,0 l/m² 4,8 km/h (1 Bft) O-SO 112 ° 0 min 0 W/m² -2,2 °C 1,2 °C 6,4 km/h (2 Bft)
29.01.2024 03:33 22,2 °C 1,2 °C 51 % 78 % 1030,1 hPa 0,0 l/m² 4,8 km/h (1 Bft) O-SO 112 ° 0 min 0 W/m² -2,2 °C 1,2 °C 9,7 km/h (2 Bft)
29.01.2024 03:34 22,2 °C 1,2 °C 51 % 78 % 1030,1 hPa 0,0 l/m² 4,8 km/h (1 Bft) O-SO 112 ° 0 min 0 W/m² -2,2 °C 1,2 °C 6,4 km/h (2 Bft)
29.01.2024 03:35 22,2 °C 1,2 °C 51 % 78 % 1030,1 hPa 0,0 l/m² 6,4 km/h (2 Bft) O-SO 112 ° 0 min 0 W/m² -2,2 °C 1,2 °C 9,7 km/h (2 Bft)
29.01.2024 03:36 22,2 °C 1,2 °C 51 % 78 % 1030,1 hPa 0,0 l/m² 6,4 km/h (2 Bft) O-SO 112 ° 0 min 0 W/m² -2,2 °C 1,2 °C 6,4 km/h (2 Bft)
29.01.2024 03:37 22,2 °C 1,2 °C 51 % 78 % 1030,0 hPa 0,0 l/m² 6,4 km/h (2 Bft) O-SO 112 ° 0 min 0 W/m² -2,2 °C 1,2 °C 9,7 km/h (2 Bft)
29.01.2024 03:38 22,2 °C 1,2 °C 51 % 78 % 1030,0 hPa 0,0 l/m² 6,4 km/h (2 Bft) O-SO 112 ° 0 min 0 W/m² -2,2 °C 1,2 °C 9,7 km/h (2 Bft)
29.01.2024 03:39 22,2 °C 1,2 °C 51 % 78 % 1030,1 hPa 0,0 l/m² 6,4 km/h (2 Bft) O-SO 112 ° 0 min 0 W/m² -2,2 °C 1,2 °C 11,3 km/h (2 Bft)
29.01.2024 03:40 22,2 °C 1,2 °C 51 % 78 % 1030,0 hPa 0,0 l/m² 4,8 km/h (1 Bft) O-SO 112 ° 0 min 0 W/m² -2,2 °C 1,2 °C 6,4 km/h (2 Bft)
29.01.2024 03:41 22,2 °C 1,2 °C 51 % 78 % 1030,1 hPa 0,0 l/m² 6,4 km/h (2 Bft) O-SO 112 ° 0 min 0 W/m² -2,2 °C 1,2 °C 9,7 km/h (2 Bft)
29.01.2024 03:42 22,2 °C 1,2 °C 51 % 78 % 1030,0 hPa 0,0 l/m² 6,4 km/h (2 Bft) O-SO 112 ° 0 min 0 W/m² -2,2 °C 1,2 °C 9,7 km/h (2 Bft)
29.01.2024 03:43 22,2 °C 1,2 °C 51 % 78 % 1030,0 hPa 0,0 l/m² 6,4 km/h (2 Bft) O-SO 112 ° 0 min 0 W/m² -2,2 °C 1,2 °C 9,7 km/h (2 Bft)
29.01.2024 03:44 22,2 °C 1,2 °C 51 % 78 % 1029,9 hPa 0,0 l/m² 4,8 km/h (1 Bft) O-SO 112 ° 0 min 0 W/m² -2,2 °C 1,2 °C 6,4 km/h (2 Bft)
29.01.2024 03:45 22,2 °C 1,2 °C 51 % 78 % 1029,9 hPa 0,0 l/m² 6,4 km/h (2 Bft) O-SO 112 ° 0 min 0 W/m² -2,2 °C 1,2 °C 6,4 km/h (2 Bft)
29.01.2024 03:46 22,2 °C 1,2 °C 51 % 78 % 1030,0 hPa 0,0 l/m² 4,8 km/h (1 Bft) O-SO 112 ° 0 min 0 W/m² -2,2 °C 1,2 °C 6,4 km/h (2 Bft)
29.01.2024 03:47 22,2 °C 1,2 °C 51 % 78 % 1030,1 hPa 0,0 l/m² 6,4 km/h (2 Bft) O-SO 112 ° 0 min 0 W/m² -2,2 °C 1,2 °C 9,7 km/h (2 Bft)
29.01.2024 03:48 22,2 °C 1,2 °C 51 % 78 % 1030,0 hPa 0,0 l/m² 6,4 km/h (2 Bft) O-SO 112 ° 0 min 0 W/m² -2,2 °C 1,2 °C 9,7 km/h (2 Bft)
29.01.2024 03:49 22,2 °C 1,2 °C 51 % 78 % 1029,9 hPa 0,0 l/m² 6,4 km/h (2 Bft) O-SO 112 ° 0 min 0 W/m² -2,2 °C 1,2 °C 9,7 km/h (2 Bft)
29.01.2024 03:50 22,2 °C 1,2 °C 51 % 78 % 1029,9 hPa 0,0 l/m² 4,8 km/h (1 Bft) O-SO 112 ° 0 min 0 W/m² -2,2 °C 1,2 °C 6,4 km/h (2 Bft)
29.01.2024 03:51 22,2 °C 1,2 °C 51 % 78 % 1029,9 hPa 0,0 l/m² 4,8 km/h (1 Bft) O-SO 112 ° 0 min 0 W/m² -2,2 °C 1,2 °C 6,4 km/h (2 Bft)
29.01.2024 03:52 22,2 °C 1,2 °C 51 % 78 % 1030,0 hPa 0,0 l/m² 4,8 km/h (1 Bft) O-SO 112 ° 0 min 0 W/m² -2,2 °C 1,2 °C 6,4 km/h (2 Bft)
29.01.2024 03:53 22,2 °C 1,2 °C 51 % 79 % 1029,9 hPa 0,0 l/m² 3,2 km/h (1 Bft) O-SO 112 ° 0 min 0 W/m² -2,0 °C 1,2 °C 4,8 km/h (1 Bft)
29.01.2024 03:54 22,2 °C 1,2 °C 51 % 79 % 1029,9 hPa 0,0 l/m² 4,8 km/h (1 Bft) O-SO 112 ° 0 min 0 W/m² -2,0 °C 1,2 °C 6,4 km/h (2 Bft)
29.01.2024 03:55 22,2 °C 1,2 °C 51 % 79 % 1030,0 hPa 0,0 l/m² 3,2 km/h (1 Bft) O-SO 112 ° 0 min 0 W/m² -2,0 °C 1,2 °C 4,8 km/h (1 Bft)
29.01.2024 03:56 22,2 °C 1,2 °C 51 % 79 % 1030,0 hPa 0,0 l/m² 3,2 km/h (1 Bft) O-SO 112 ° 0 min 0 W/m² -2,0 °C 1,2 °C 4,8 km/h (1 Bft)
29.01.2024 03:57 22,2 °C 1,2 °C 51 % 79 % 1029,9 hPa 0,0 l/m² 3,2 km/h (1 Bft) O-SO 112 ° 0 min 0 W/m² -2,0 °C 1,2 °C 4,8 km/h (1 Bft)
29.01.2024 03:58 22,2 °C 1,2 °C 51 % 79 % 1029,9 hPa 0,0 l/m² 4,8 km/h (1 Bft) O-SO 112 ° 0 min 0 W/m² -2,0 °C 1,2 °C 6,4 km/h (2 Bft)
29.01.2024 03:59 22,2 °C 1,3 °C 51 % 79 % 1029,9 hPa 0,0 l/m² 3,2 km/h (1 Bft) O-SO 112 ° 0 min 0 W/m² -1,9 °C 1,3 °C 6,4 km/h (2 Bft)
29.01.2024 04:00 22,2 °C 1,3 °C 51 % 79 % 1029,8 hPa 0,0 l/m² 3,2 km/h (1 Bft) O-SO 112 ° 0 min 0 W/m² -1,9 °C 1,3 °C 4,8 km/h (1 Bft)
29.01.2024 04:01 22,2 °C 1,3 °C 51 % 79 % 1029,8 hPa 0,0 l/m² 3,2 km/h (1 Bft) O-SO 112 ° 0 min 0 W/m² -1,9 °C 1,3 °C 4,8 km/h (1 Bft)
29.01.2024 04:02 22,2 °C 1,2 °C 51 % 79 % 1029,8 hPa 0,0 l/m² 3,2 km/h (1 Bft) O-SO 112 ° 0 min 0 W/m² -2,0 °C 1,2 °C 4,8 km/h (1 Bft)
29.01.2024 04:03 22,2 °C 1,2 °C 51 % 79 % 1029,8 hPa 0,0 l/m² 3,2 km/h (1 Bft) O-SO 112 ° 0 min 0 W/m² -2,0 °C 1,2 °C 4,8 km/h (1 Bft)
29.01.2024 04:04 22,2 °C 1,1 °C 51 % 79 % 1029,8 hPa 0,0 l/m² 3,2 km/h (1 Bft) O-SO 112 ° 0 min 0 W/m² -2,1 °C 1,1 °C 4,8 km/h (1 Bft)
29.01.2024 04:05 22,2 °C 1,1 °C 51 % 79 % 1029,8 hPa 0,0 l/m² 3,2 km/h (1 Bft) O-SO 112 ° 0 min 0 W/m² -2,1 °C 1,1 °C 4,8 km/h (1 Bft)
29.01.2024 04:06 22,2 °C 1,1 °C 51 % 79 % 1029,8 hPa 0,0 l/m² 3,2 km/h (1 Bft) O-SO 112 ° 0 min 0 W/m² -2,1 °C 1,1 °C 4,8 km/h (1 Bft)
29.01.2024 04:07 22,2 °C 1,0 °C 51 % 79 % 1029,7 hPa 0,0 l/m² 3,2 km/h (1 Bft) O-SO 112 ° 0 min 0 W/m² -2,2 °C 1,0 °C 4,8 km/h (1 Bft)
29.01.2024 04:08 22,2 °C 1,0 °C 51 % 79 % 1029,8 hPa 0,0 l/m² 3,2 km/h (1 Bft) O-SO 112 ° 0 min 0 W/m² -2,2 °C 1,0 °C 3,2 km/h (1 Bft)
29.01.2024 04:09 22,2 °C 0,9 °C 51 % 79 % 1029,7 hPa 0,0 l/m² 3,2 km/h (1 Bft) O-SO 112 ° 0 min 0 W/m² -2,3 °C 0,9 °C 4,8 km/h (1 Bft)
29.01.2024 04:10 22,2 °C 0,9 °C 51 % 79 % 1029,7 hPa 0,0 l/m² 1,6 km/h (1 Bft) O-SO 112 ° 0 min 0 W/m² -2,3 °C 0,9 °C 3,2 km/h (1 Bft)
29.01.2024 04:11 22,2 °C 0,9 °C 51 % 79 % 1029,8 hPa 0,0 l/m² 3,2 km/h (1 Bft) O-SO 112 ° 0 min 0 W/m² -2,3 °C 0,9 °C 6,4 km/h (2 Bft)
29.01.2024 04:12 22,2 °C 0,8 °C 51 % 79 % 1029,8 hPa 0,0 l/m² 3,2 km/h (1 Bft) O-SO 112 ° 0 min 0 W/m² -2,4 °C 0,8 °C 4,8 km/h (1 Bft)
29.01.2024 04:13 22,2 °C 0,9 °C 51 % 79 % 1029,8 hPa 0,0 l/m² 1,6 km/h (1 Bft) O-SO 112 ° 0 min 0 W/m² -2,3 °C 0,9 °C 3,2 km/h (1 Bft)
29.01.2024 04:14 22,2 °C 0,9 °C 51 % 79 % 1029,8 hPa 0,0 l/m² 3,2 km/h (1 Bft) O-SO 112 ° 0 min 0 W/m² -2,3 °C 0,9 °C 6,4 km/h (2 Bft)
29.01.2024 04:15 22,2 °C 1,0 °C 51 % 79 % 1029,8 hPa 0,0 l/m² 1,6 km/h (1 Bft) O-SO 112 ° 0 min 0 W/m² -2,2 °C 1,0 °C 3,2 km/h (1 Bft)
29.01.2024 04:16 22,2 °C 1,0 °C 51 % 79 % 1029,7 hPa 0,0 l/m² 3,2 km/h (1 Bft) O-SO 112 ° 0 min 0 W/m² -2,2 °C 1,0 °C 3,2 km/h (1 Bft)
29.01.2024 04:17 22,2 °C 1,1 °C 51 % 79 % 1029,7 hPa 0,0 l/m² 1,6 km/h (1 Bft) O-SO 112 ° 0 min 0 W/m² -2,1 °C 1,1 °C 3,2 km/h (1 Bft)
29.01.2024 04:18 22,2 °C 1,2 °C 51 % 79 % 1029,7 hPa 0,0 l/m² 1,6 km/h (1 Bft) O-SO 112 ° 0 min 0 W/m² -2,0 °C 1,2 °C 3,2 km/h (1 Bft)
29.01.2024 04:19 22,3 °C 1,2 °C 51 % 79 % 1029,7 hPa 0,0 l/m² 1,6 km/h (1 Bft) O-SO 112 ° 0 min 0 W/m² -2,0 °C 1,2 °C 3,2 km/h (1 Bft)
29.01.2024 04:20 22,2 °C 1,2 °C 51 % 79 % 1029,8 hPa 0,0 l/m² 3,2 km/h (1 Bft) O-SO 112 ° 0 min 0 W/m² -2,0 °C 1,2 °C 3,2 km/h (1 Bft)
29.01.2024 04:21 22,2 °C 1,3 °C 51 % 79 % 1029,7 hPa 0,0 l/m² 1,6 km/h (1 Bft) O-SO 112 ° 0 min 0 W/m² -1,9 °C 1,3 °C 3,2 km/h (1 Bft)
29.01.2024 04:22 22,2 °C 1,3 °C 51 % 78 % 1029,7 hPa 0,0 l/m² 1,6 km/h (1 Bft) O-SO 112 ° 0 min 0 W/m² -2,1 °C 1,3 °C 3,2 km/h (1 Bft)
29.01.2024 04:23 22,2 °C 1,3 °C 51 % 78 % 1029,7 hPa 0,0 l/m² 1,6 km/h (1 Bft) O-SO 112 ° 0 min 0 W/m² -2,1 °C 1,3 °C 4,8 km/h (1 Bft)
29.01.2024 04:24 22,3 °C 1,4 °C 51 % 78 % 1029,7 hPa 0,0 l/m² 3,2 km/h (1 Bft) O-SO 112 ° 0 min 0 W/m² -2,0 °C 1,4 °C 4,8 km/h (1 Bft)
29.01.2024 04:25 22,2 °C 1,4 °C 51 % 78 % 1029,7 hPa 0,0 l/m² 1,6 km/h (1 Bft) O-SO 112 ° 0 min 0 W/m² -2,0 °C 1,4 °C 3,2 km/h (1 Bft)
29.01.2024 04:26 22,2 °C 1,4 °C 51 % 78 % 1029,7 hPa 0,0 l/m² 3,2 km/h (1 Bft) O-SO 112 ° 0 min 0 W/m² -2,0 °C 1,4 °C 4,8 km/h (1 Bft)
29.01.2024 04:27 22,2 °C 1,4 °C 51 % 77 % 1029,7 hPa 0,0 l/m² 3,2 km/h (1 Bft) O-SO 112 ° 0 min 0 W/m² -2,2 °C 1,4 °C 4,8 km/h (1 Bft)
29.01.2024 04:28 22,2 °C 1,3 °C 51 % 77 % 1029,7 hPa 0,0 l/m² 3,2 km/h (1 Bft) O-SO 112 ° 0 min 0 W/m² -2,3 °C 1,3 °C 6,4 km/h (2 Bft)
29.01.2024 04:29 22,2 °C 1,3 °C 50 % 77 % 1029,7 hPa 0,0 l/m² 3,2 km/h (1 Bft) O-SO 112 ° 0 min 0 W/m² -2,3 °C 1,3 °C 4,8 km/h (1 Bft)
29.01.2024 04:30 22,3 °C 1,3 °C 50 % 77 % 1029,7 hPa 0,0 l/m² 3,2 km/h (1 Bft) O-SO 112 ° 0 min 0 W/m² -2,3 °C 1,3 °C 3,2 km/h (1 Bft)
29.01.2024 04:31 22,3 °C 1,2 °C 50 % 77 % 1029,7 hPa 0,0 l/m² 4,8 km/h (1 Bft) O-SO 112 ° 0 min 0 W/m² -2,4 °C 1,2 °C 4,8 km/h (1 Bft)
29.01.2024 04:32 22,3 °C 1,2 °C 50 % 77 % 1029,6 hPa 0,0 l/m² 4,8 km/h (1 Bft) O-SO 112 ° 0 min 0 W/m² -2,4 °C 1,2 °C 6,4 km/h (2 Bft)
29.01.2024 04:33 22,2 °C 1,2 °C 50 % 77 % 1029,6 hPa 0,0 l/m² 4,8 km/h (1 Bft) O-SO 112 ° 0 min 0 W/m² -2,4 °C 1,2 °C 6,4 km/h (2 Bft)
29.01.2024 04:34 22,3 °C 1,1 °C 50 % 77 % 1029,6 hPa 0,0 l/m² 4,8 km/h (1 Bft) O 90 ° 0 min 0 W/m² -2,5 °C 1,1 °C 6,4 km/h (2 Bft)
29.01.2024 04:35 22,2 °C 1,1 °C 50 % 78 % 1029,6 hPa 0,0 l/m² 4,8 km/h (1 Bft) O 90 ° 0 min 0 W/m² -2,3 °C 1,1 °C 6,4 km/h (2 Bft)
29.01.2024 04:36 22,2 °C 1,1 °C 50 % 78 % 1029,6 hPa 0,0 l/m² 4,8 km/h (1 Bft) O 90 ° 0 min 0 W/m² -2,3 °C 1,1 °C 6,4 km/h (2 Bft)
29.01.2024 04:37 22,2 °C 1,0 °C 50 % 78 % 1029,6 hPa 0,0 l/m² 4,8 km/h (1 Bft) O 90 ° 0 min 0 W/m² -2,4 °C 1,0 °C 6,4 km/h (2 Bft)
29.01.2024 04:38 22,2 °C 0,9 °C 50 % 78 % 1029,6 hPa 0,0 l/m² 4,8 km/h (1 Bft) O 90 ° 0 min 0 W/m² -2,5 °C 0,9 °C 6,4 km/h (2 Bft)
29.01.2024 04:39 22,2 °C 0,9 °C 50 % 78 % 1029,5 hPa 0,0 l/m² 3,2 km/h (1 Bft) O 90 ° 0 min 0 W/m² -2,5 °C 0,9 °C 4,8 km/h (1 Bft)
29.01.2024 04:40 22,2 °C 0,8 °C 50 % 78 % 1029,5 hPa 0,0 l/m² 3,2 km/h (1 Bft) O 90 ° 0 min 0 W/m² -2,6 °C 0,8 °C 4,8 km/h (1 Bft)
29.01.2024 04:41 22,2 °C 0,7 °C 50 % 78 % 1029,6 hPa 0,0 l/m² 4,8 km/h (1 Bft) O 90 ° 0 min 0 W/m² -2,7 °C 0,7 °C 6,4 km/h (2 Bft)
29.01.2024 04:42 22,2 °C 0,6 °C 50 % 78 % 1029,6 hPa 0,0 l/m² 4,8 km/h (1 Bft) O 90 ° 0 min 0 W/m² -2,8 °C 0,6 °C 6,4 km/h (2 Bft)
29.01.2024 04:43 22,3 °C 0,4 °C 50 % 79 % 1029,5 hPa 0,0 l/m² 4,8 km/h (1 Bft) O 90 ° 0 min 0 W/m² -2,8 °C 0,4 °C 6,4 km/h (2 Bft)
29.01.2024 04:44 22,2 °C 0,4 °C 50 % 79 % 1029,5 hPa 0,0 l/m² 4,8 km/h (1 Bft) O 90 ° 0 min 0 W/m² -2,8 °C 0,4 °C 4,8 km/h (1 Bft)
29.01.2024 04:45 22,3 °C 0,4 °C 50 % 79 % 1029,5 hPa 0,0 l/m² 3,2 km/h (1 Bft) O 90 ° 0 min 0 W/m² -2,8 °C 0,4 °C 4,8 km/h (1 Bft)
29.01.2024 04:46 22,3 °C 0,3 °C 50 % 80 % 1029,4 hPa 0,0 l/m² 4,8 km/h (1 Bft) O 90 ° 0 min 0 W/m² -2,7 °C 0,3 °C 6,4 km/h (2 Bft)
29.01.2024 04:47 22,3 °C 0,3 °C 50 % 80 % 1029,4 hPa 0,0 l/m² 4,8 km/h (1 Bft) O 90 ° 0 min 0 W/m² -2,7 °C 0,3 °C 6,4 km/h (2 Bft)
29.01.2024 04:48 22,3 °C 0,3 °C 50 % 80 % 1029,4 hPa 0,0 l/m² 3,2 km/h (1 Bft) O 90 ° 0 min 0 W/m² -2,7 °C 0,3 °C 6,4 km/h (2 Bft)
29.01.2024 04:49 22,3 °C 0,3 °C 50 % 80 % 1029,4 hPa 0,0 l/m² 3,2 km/h (1 Bft) O 90 ° 0 min 0 W/m² -2,7 °C 0,3 °C 6,4 km/h (2 Bft)
29.01.2024 04:50 22,3 °C 0,3 °C 50 % 80 % 1029,5 hPa 0,0 l/m² 3,2 km/h (1 Bft) O 90 ° 0 min 0 W/m² -2,7 °C 0,3 °C 4,8 km/h (1 Bft)
29.01.2024 04:51 22,3 °C 0,3 °C 50 % 80 % 1029,5 hPa 0,0 l/m² 3,2 km/h (1 Bft) O 90 ° 0 min 0 W/m² -2,7 °C 0,3 °C 4,8 km/h (1 Bft)
29.01.2024 04:52 22,3 °C 0,2 °C 50 % 80 % 1029,5 hPa 0,0 l/m² 3,2 km/h (1 Bft) O 90 ° 0 min 0 W/m² -2,8 °C 0,2 °C 6,4 km/h (2 Bft)
29.01.2024 04:53 22,3 °C 0,3 °C 50 % 80 % 1029,4 hPa 0,0 l/m² 3,2 km/h (1 Bft) O 90 ° 0 min 0 W/m² -2,7 °C 0,3 °C 4,8 km/h (1 Bft)
29.01.2024 04:54 22,3 °C 0,2 °C 50 % 80 % 1029,5 hPa 0,0 l/m² 3,2 km/h (1 Bft) O 90 ° 0 min 0 W/m² -2,8 °C 0,2 °C 6,4 km/h (2 Bft)
29.01.2024 04:55 22,3 °C 0,3 °C 50 % 80 % 1029,5 hPa 0,0 l/m² 3,2 km/h (1 Bft) O 90 ° 0 min 0 W/m² -2,7 °C 0,3 °C 4,8 km/h (1 Bft)
29.01.2024 04:56 22,3 °C 0,3 °C 50 % 81 % 1029,5 hPa 0,0 l/m² 1,6 km/h (1 Bft) O 90 ° 0 min 0 W/m² -2,6 °C 0,3 °C 3,2 km/h (1 Bft)
29.01.2024 04:57 22,3 °C 0,3 °C 50 % 81 % 1029,5 hPa 0,0 l/m² 3,2 km/h (1 Bft) O 90 ° 0 min 0 W/m² -2,6 °C 0,3 °C 4,8 km/h (1 Bft)
29.01.2024 04:58 22,3 °C 0,2 °C 50 % 81 % 1029,5 hPa 0,0 l/m² 3,2 km/h (1 Bft) O 90 ° 0 min 0 W/m² -2,7 °C 0,2 °C 4,8 km/h (1 Bft)
29.01.2024 04:59 22,3 °C 0,3 °C 50 % 81 % 1029,5 hPa 0,0 l/m² 3,2 km/h (1 Bft) O 90 ° 0 min 0 W/m² -2,6 °C 0,3 °C 6,4 km/h (2 Bft)
29.01.2024 05:00 22,3 °C 0,3 °C 50 % 81 % 1029,5 hPa 0,0 l/m² 4,8 km/h (1 Bft) O 90 ° 0 min 0 W/m² -2,6 °C 0,3 °C 6,4 km/h (2 Bft)
29.01.2024 05:01 22,3 °C 0,3 °C 50 % 81 % 1029,4 hPa 0,0 l/m² 4,8 km/h (1 Bft) O 90 ° 0 min 0 W/m² -2,6 °C 0,3 °C 9,7 km/h (2 Bft)
29.01.2024 05:02 22,3 °C 0,3 °C 50 % 81 % 1029,6 hPa 0,0 l/m² 1,6 km/h (1 Bft) O 90 ° 0 min 0 W/m² -2,6 °C 0,3 °C 3,2 km/h (1 Bft)
29.01.2024 05:03 22,3 °C 0,4 °C 50 % 81 % 1029,5 hPa 0,0 l/m² 3,2 km/h (1 Bft) O 90 ° 0 min 0 W/m² -2,5 °C 0,4 °C 4,8 km/h (1 Bft)
29.01.2024 05:04 22,3 °C 0,4 °C 50 % 80 % 1029,5 hPa 0,0 l/m² 1,6 km/h (1 Bft) O 90 ° 0 min 0 W/m² -2,6 °C 0,4 °C 4,8 km/h (1 Bft)
29.01.2024 05:05 22,3 °C 0,4 °C 50 % 80 % 1029,5 hPa 0,0 l/m² 1,6 km/h (1 Bft) O 90 ° 0 min 0 W/m² -2,6 °C 0,4 °C 3,2 km/h (1 Bft)
29.01.2024 05:06 22,3 °C 0,5 °C 50 % 80 % 1029,5 hPa 0,0 l/m² 3,2 km/h (1 Bft) O 90 ° 0 min 0 W/m² -2,5 °C 0,5 °C 6,4 km/h (2 Bft)
29.01.2024 05:07 22,3 °C 0,4 °C 50 % 80 % 1029,5 hPa 0,0 l/m² 3,2 km/h (1 Bft) O 90 ° 0 min 0 W/m² -2,6 °C 0,4 °C 4,8 km/h (1 Bft)
29.01.2024 05:08 22,3 °C 0,4 °C 50 % 80 % 1029,5 hPa 0,0 l/m² 1,6 km/h (1 Bft) O 90 ° 0 min 0 W/m² -2,6 °C 0,4 °C 3,2 km/h (1 Bft)
29.01.2024 05:09 22,3 °C 0,4 °C 50 % 80 % 1029,5 hPa 0,0 l/m² 3,2 km/h (1 Bft) O 90 ° 0 min 0 W/m² -2,6 °C 0,4 °C 4,8 km/h (1 Bft)
29.01.2024 05:10 22,3 °C 0,4 °C 50 % 80 % 1029,5 hPa 0,0 l/m² 4,8 km/h (1 Bft) O 90 ° 0 min 0 W/m² -2,6 °C 0,4 °C 9,7 km/h (2 Bft)
29.01.2024 05:11 22,3 °C 0,4 °C 50 % 80 % 1029,5 hPa 0,0 l/m² 1,6 km/h (1 Bft) O 90 ° 0 min 0 W/m² -2,6 °C 0,4 °C 3,2 km/h (1 Bft)
29.01.2024 05:12 22,3 °C 0,5 °C 50 % 80 % 1029,4 hPa 0,0 l/m² 1,6 km/h (1 Bft) O 90 ° 0 min 0 W/m² -2,5 °C 0,5 °C 4,8 km/h (1 Bft)
29.01.2024 05:13 22,3 °C 0,6 °C 50 % 80 % 1029,5 hPa 0,0 l/m² 1,6 km/h (1 Bft) O 90 ° 0 min 0 W/m² -2,4 °C 0,6 °C 3,2 km/h (1 Bft)
29.01.2024 05:14 22,3 °C 0,5 °C 50 % 80 % 1029,4 hPa 0,0 l/m² 3,2 km/h (1 Bft) O 90 ° 0 min 0 W/m² -2,5 °C 0,5 °C 4,8 km/h (1 Bft)
29.01.2024 05:15 22,3 °C 0,6 °C 50 % 80 % 1029,5 hPa 0,0 l/m² 3,2 km/h (1 Bft) O 90 ° 0 min 0 W/m² -2,4 °C 0,6 °C 4,8 km/h (1 Bft)
29.01.2024 05:16 22,3 °C 0,6 °C 50 % 80 % 1029,5 hPa 0,0 l/m² 0,0 km/h (0 Bft) O 90 ° 0 min 0 W/m² -2,4 °C 0,6 °C 3,2 km/h (1 Bft)
29.01.2024 05:17 22,3 °C 0,7 °C 50 % 80 % 1029,5 hPa 0,0 l/m² 1,6 km/h (1 Bft) O 90 ° 0 min 0 W/m² -2,3 °C 0,7 °C 3,2 km/h (1 Bft)
29.01.2024 05:18 22,3 °C 0,7 °C 50 % 79 % 1029,4 hPa 0,0 l/m² 0,0 km/h (0 Bft) O 90 ° 0 min 0 W/m² -2,5 °C 0,7 °C 3,2 km/h (1 Bft)
29.01.2024 05:19 22,3 °C 0,7 °C 50 % 79 % 1029,5 hPa 0,0 l/m² 1,6 km/h (1 Bft) O 90 ° 0 min 0 W/m² -2,5 °C 0,7 °C 3,2 km/h (1 Bft)
29.01.2024 05:20 22,3 °C 0,7 °C 50 % 79 % 1029,5 hPa 0,0 l/m² 3,2 km/h (1 Bft) O 90 ° 0 min 0 W/m² -2,5 °C 0,7 °C 6,4 km/h (2 Bft)
29.01.2024 05:21 22,3 °C 0,8 °C 50 % 79 % 1029,4 hPa 0,0 l/m² 0,0 km/h (0 Bft) O 90 ° 0 min 0 W/m² -2,4 °C 0,8 °C 3,2 km/h (1 Bft)
29.01.2024 05:22 22,3 °C 0,8 °C 50 % 79 % 1029,4 hPa 0,0 l/m² 0,0 km/h (0 Bft) N 0 ° 0 min 0 W/m² -2,4 °C 0,8 °C 0,0 km/h (0 Bft)
29.01.2024 05:23 22,3 °C 0,9 °C 50 % 79 % 1029,4 hPa 0,0 l/m² 1,6 km/h (1 Bft) O 90 ° 0 min 0 W/m² -2,3 °C 0,9 °C 3,2 km/h (1 Bft)
29.01.2024 05:29 22,4 °C 1,0 °C 50 % 77 % 1029,4 hPa 0,0 l/m² 2,6 km/h (1 Bft) O 95 ° 0 min 0 W/m² -2,6 °C 1,0 °C 4,8 km/h (1 Bft)
29.01.2024 05:30 22,4 °C 0,9 °C 50 % 78 % 1029,4 hPa 0,0 l/m² 2,2 km/h (1 Bft) O 95 ° 0 min 0 W/m² -2,5 °C 0,9 °C 3,2 km/h (1 Bft)
29.01.2024 05:32 22,4 °C 0,9 °C 50 % 78 % 1029,4 hPa 0,0 l/m² 3,1 km/h (1 Bft) O 95 ° 0 min 0 W/m² -2,5 °C 0,9 °C 4,8 km/h (1 Bft)
29.01.2024 05:33 22,4 °C 0,8 °C 50 % 77 % 1029,3 hPa 0,0 l/m² 2,5 km/h (1 Bft) O 95 ° 0 min 0 W/m² -2,8 °C 0,8 °C 4,8 km/h (1 Bft)
29.01.2024 05:35 22,4 °C 0,8 °C 50 % 78 % 1029,4 hPa 0,0 l/m² 2,1 km/h (1 Bft) O 95 ° 0 min 0 W/m² -2,6 °C 0,8 °C 3,2 km/h (1 Bft)
29.01.2024 05:37 22,4 °C 0,7 °C 50 % 78 % 1029,3 hPa 0,0 l/m² 1,8 km/h (1 Bft) O 95 ° 0 min 0 W/m² -2,7 °C 0,7 °C 4,8 km/h (1 Bft)
29.01.2024 05:39 22,4 °C 0,8 °C 50 % 78 % 1029,2 hPa 0,0 l/m² 2,0 km/h (1 Bft) O 95 ° 0 min 0 W/m² -2,6 °C 0,8 °C 3,2 km/h (1 Bft)
29.01.2024 05:40 22,4 °C 0,8 °C 50 % 78 % 1029,2 hPa 0,0 l/m² 2,0 km/h (1 Bft) O 95 ° 0 min 0 W/m² -2,6 °C 0,8 °C 3,2 km/h (1 Bft)
29.01.2024 05:42 22,4 °C 0,8 °C 50 % 78 % 1029,2 hPa 0,0 l/m² 2,1 km/h (1 Bft) O 95 ° 0 min 0 W/m² -2,6 °C 0,8 °C 4,8 km/h (1 Bft)
29.01.2024 05:43 22,4 °C 0,8 °C 50 % 78 % 1029,2 hPa 0,0 l/m² 3,7 km/h (1 Bft) O 95 ° 0 min 0 W/m² -2,6 °C 0,8 °C 4,8 km/h (1 Bft)
29.01.2024 05:45 22,4 °C 0,9 °C 50 % 78 % 1029,2 hPa 0,0 l/m² 2,3 km/h (1 Bft) O 95 ° 0 min 0 W/m² -2,5 °C 0,9 °C 4,8 km/h (1 Bft)
29.01.2024 05:47 22,4 °C 1,1 °C 50 % 77 % 1029,1 hPa 0,0 l/m² 2,5 km/h (1 Bft) O 95 ° 0 min 0 W/m² -2,5 °C 1,1 °C 4,8 km/h (1 Bft)
29.01.2024 05:49 22,4 °C 1,1 °C 50 % 77 % 1029,2 hPa 0,0 l/m² 3,1 km/h (1 Bft) O 95 ° 0 min 0 W/m² -2,5 °C 1,1 °C 4,8 km/h (1 Bft)
29.01.2024 05:50 22,4 °C 1,2 °C 50 % 77 % 1029,2 hPa 0,0 l/m² 3,3 km/h (1 Bft) O 95 ° 0 min 0 W/m² -2,4 °C 1,2 °C 6,4 km/h (2 Bft)
29.01.2024 05:52 22,4 °C 1,1 °C 50 % 76 % 1029,2 hPa 0,0 l/m² 0,4 km/h (0 Bft) O 95 ° 0 min 0 W/m² -2,6 °C 1,1 °C 3,2 km/h (1 Bft)
29.01.2024 05:53 22,4 °C 0,9 °C 49 % 76 % 1029,2 hPa 0,0 l/m² 2,0 km/h (1 Bft) O 95 ° 0 min 0 W/m² -2,8 °C 0,9 °C 4,8 km/h (1 Bft)
29.01.2024 05:55 22,4 °C 0,8 °C 49 % 77 % 1029,3 hPa 0,0 l/m² 2,8 km/h (1 Bft) O 95 ° 0 min 0 W/m² -2,8 °C 0,8 °C 4,8 km/h (1 Bft)
29.01.2024 05:57 22,4 °C 0,9 °C 49 % 77 % 1029,3 hPa 0,0 l/m² 2,5 km/h (1 Bft) O 95 ° 0 min 0 W/m² -2,7 °C 0,9 °C 4,8 km/h (1 Bft)
29.01.2024 05:59 22,4 °C 0,9 °C 49 % 77 % 1029,4 hPa 0,0 l/m² 3,7 km/h (1 Bft) O 95 ° 0 min 0 W/m² -2,7 °C 0,9 °C 4,8 km/h (1 Bft)
29.01.2024 06:01 22,4 °C 0,9 °C 49 % 77 % 1029,4 hPa 0,0 l/m² 4,5 km/h (1 Bft) O 95 ° 0 min 0 W/m² -2,7 °C 0,9 °C 6,4 km/h (2 Bft)
29.01.2024 06:02 22,4 °C 0,9 °C 49 % 77 % 1029,4 hPa 0,0 l/m² 4,2 km/h (1 Bft) O 95 ° 0 min 0 W/m² -2,7 °C 0,9 °C 4,8 km/h (1 Bft)
29.01.2024 06:03 22,4 °C 0,9 °C 49 % 78 % 1029,4 hPa 0,0 l/m² 2,8 km/h (1 Bft) O 95 ° 0 min 0 W/m² -2,5 °C 0,9 °C 4,8 km/h (1 Bft)
29.01.2024 06:04 22,4 °C 0,8 °C 49 % 77 % 1029,4 hPa 0,0 l/m² 2,1 km/h (1 Bft) O 95 ° 0 min 0 W/m² -2,8 °C 0,8 °C 4,8 km/h (1 Bft)
29.01.2024 06:06 22,4 °C 0,7 °C 49 % 77 % 1029,4 hPa 0,0 l/m² 4,4 km/h (1 Bft) O 95 ° 0 min 0 W/m² -2,9 °C 0,7 °C 6,4 km/h (2 Bft)
29.01.2024 06:08 22,5 °C 0,6 °C 49 % 78 % 1029,4 hPa 0,0 l/m² 3,2 km/h (1 Bft) O 95 ° 0 min 0 W/m² -2,8 °C 0,6 °C 4,8 km/h (1 Bft)
29.01.2024 06:10 22,4 °C 0,4 °C 49 % 78 % 1029,4 hPa 0,0 l/m² 3,5 km/h (1 Bft) O 95 ° 0 min 0 W/m² -3,0 °C 0,4 °C 4,8 km/h (1 Bft)
29.01.2024 06:11 22,5 °C 0,3 °C 49 % 78 % 1029,5 hPa 0,0 l/m² 3,3 km/h (1 Bft) O 95 ° 0 min 0 W/m² -3,1 °C 0,3 °C 4,8 km/h (1 Bft)
29.01.2024 06:12 22,5 °C 0,3 °C 49 % 79 % 1029,5 hPa 0,0 l/m² 2,5 km/h (1 Bft) O 95 ° 0 min 0 W/m² -2,9 °C 0,3 °C 3,2 km/h (1 Bft)
29.01.2024 06:14 22,5 °C 0,2 °C 49 % 79 % 1029,5 hPa 0,0 l/m² 2,7 km/h (1 Bft) O 95 ° 0 min 0 W/m² -3,0 °C 0,2 °C 4,8 km/h (1 Bft)
29.01.2024 06:16 22,4 °C 0,1 °C 49 % 79 % 1029,5 hPa 0,0 l/m² 2,7 km/h (1 Bft) O 95 ° 0 min 0 W/m² -3,1 °C 0,1 °C 4,8 km/h (1 Bft)
29.01.2024 06:18 22,4 °C -0,1 °C 49 % 79 % 1029,5 hPa 0,0 l/m² 3,1 km/h (1 Bft) O 95 ° 0 min 0 W/m² -3,3 °C -0,1 °C 4,8 km/h (1 Bft)
29.01.2024 06:20 22,5 °C -0,2 °C 49 % 80 % 1029,5 hPa 0,0 l/m² 3,4 km/h (1 Bft) O 95 ° 0 min 0 W/m² -3,2 °C -0,2 °C 4,8 km/h (1 Bft)
29.01.2024 06:21 22,5 °C -0,3 °C 49 % 80 % 1029,6 hPa 0,0 l/m² 2,8 km/h (1 Bft) O 95 ° 0 min 0 W/m² -3,3 °C -0,3 °C 3,2 km/h (1 Bft)
29.01.2024 06:22 22,5 °C -0,3 °C 49 % 80 % 1029,6 hPa 0,0 l/m² 2,6 km/h (1 Bft) O 95 ° 0 min 0 W/m² -3,3 °C -0,3 °C 3,2 km/h (1 Bft)
29.01.2024 06:23 22,5 °C -0,3 °C 49 % 81 % 1029,5 hPa 0,0 l/m² 1,9 km/h (1 Bft) O 95 ° 0 min 0 W/m² -3,2 °C -0,3 °C 4,8 km/h (1 Bft)
29.01.2024 06:25 22,5 °C -0,2 °C 49 % 81 % 1029,5 hPa 0,0 l/m² 0,0 km/h (0 Bft) O 95 ° 0 min 0 W/m² -3,1 °C -0,2 °C 1,6 km/h (1 Bft)
29.01.2024 06:27 22,5 °C -0,2 °C 49 % 81 % 1029,6 hPa 0,0 l/m² 0,0 km/h (0 Bft) O 95 ° 0 min 0 W/m² -3,1 °C -0,2 °C 0,0 km/h (0 Bft)
29.01.2024 06:29 22,5 °C -0,2 °C 49 % 81 % 1029,6 hPa 0,0 l/m² 0,0 km/h (0 Bft) O 95 ° 0 min 0 W/m² -3,1 °C -0,2 °C 0,0 km/h (0 Bft)
29.01.2024 06:30 22,5 °C -0,2 °C 49 % 81 % 1029,5 hPa 0,0 l/m² 1,2 km/h (1 Bft) O 95 ° 0 min 0 W/m² -3,1 °C -0,2 °C 3,2 km/h (1 Bft)
29.01.2024 06:32 22,5 °C -0,2 °C 49 % 81 % 1029,6 hPa 0,0 l/m² 3,1 km/h (1 Bft) O 95 ° 0 min 0 W/m² -3,1 °C -0,2 °C 4,8 km/h (1 Bft)
29.01.2024 06:33 22,5 °C -0,1 °C 49 % 81 % 1029,5 hPa 0,0 l/m² 3,4 km/h (1 Bft) O 95 ° 0 min 0 W/m² -3,0 °C -0,1 °C 4,8 km/h (1 Bft)
29.01.2024 06:35 22,5 °C -0,1 °C 49 % 81 % 1029,6 hPa 0,0 l/m² 3,0 km/h (1 Bft) O 95 ° 0 min 0 W/m² -3,0 °C -0,1 °C 4,8 km/h (1 Bft)
29.01.2024 06:37 22,5 °C 0,1 °C 49 % 81 % 1029,6 hPa 0,0 l/m² 3,8 km/h (1 Bft) O 95 ° 0 min 0 W/m² -2,8 °C 0,1 °C 4,8 km/h (1 Bft)
29.01.2024 06:39 22,5 °C 0,1 °C 49 % 81 % 1029,5 hPa 0,0 l/m² 4,4 km/h (1 Bft) O 95 ° 0 min 0 W/m² -2,8 °C 0,1 °C 6,4 km/h (2 Bft)
29.01.2024 06:40 22,5 °C 0,1 °C 49 % 80 % 1029,5 hPa 0,0 l/m² 3,2 km/h (1 Bft) O 95 ° 0 min 0 W/m² -2,9 °C 0,1 °C 4,8 km/h (1 Bft)
29.01.2024 06:42 22,5 °C 0,1 °C 49 % 80 % 1029,5 hPa 0,0 l/m² 2,0 km/h (1 Bft) O 95 ° 0 min 0 W/m² -2,9 °C 0,1 °C 3,2 km/h (1 Bft)
29.01.2024 06:43 22,5 °C 0,1 °C 49 % 80 % 1029,5 hPa 0,0 l/m² 1,4 km/h (1 Bft) O 95 ° 0 min 0 W/m² -2,9 °C 0,1 °C 3,2 km/h (1 Bft)
29.01.2024 06:45 22,5 °C 0,0 °C 49 % 80 % 1029,5 hPa 0,0 l/m² 1,5 km/h (1 Bft) O 95 ° 0 min 0 W/m² -3,0 °C 0,0 °C 3,2 km/h (1 Bft)
29.01.2024 06:47 22,5 °C -0,2 °C 49 % 80 % 1029,6 hPa 0,0 l/m² 0,0 km/h (0 Bft) O 95 ° 0 min 0 W/m² -3,2 °C -0,2 °C 1,6 km/h (1 Bft)
29.01.2024 06:49 22,5 °C -0,2 °C 49 % 81 % 1029,6 hPa 0,0 l/m² 0,0 km/h (0 Bft) O 95 ° 0 min 0 W/m² -3,1 °C -0,2 °C 0,0 km/h (0 Bft)
29.01.2024 06:50 22,5 °C -0,3 °C 49 % 81 % 1029,5 hPa 0,0 l/m² 0,0 km/h (0 Bft) O 95 ° 0 min 0 W/m² -3,2 °C -0,3 °C 0,0 km/h (0 Bft)
29.01.2024 06:52 22,5 °C -0,4 °C 49 % 81 % 1029,6 hPa 0,0 l/m² 0,0 km/h (0 Bft) O 95 ° 0 min 0 W/m² -3,3 °C -0,4 °C 0,0 km/h (0 Bft)
29.01.2024 06:53 22,5 °C -0,5 °C 49 % 81 % 1029,6 hPa 0,0 l/m² 0,0 km/h (0 Bft) O 95 ° 0 min 0 W/m² -3,3 °C -0,5 °C 0,0 km/h (0 Bft)
29.01.2024 06:55 22,5 °C -0,8 °C 49 % 81 % 1029,5 hPa 0,0 l/m² 0,0 km/h (0 Bft) O 95 ° 0 min 0 W/m² -3,6 °C -0,8 °C 0,0 km/h (0 Bft)
29.01.2024 06:57 22,5 °C -0,9 °C 49 % 81 % 1029,5 hPa 0,0 l/m² 0,0 km/h (0 Bft) O 95 ° 0 min 0 W/m² -3,7 °C -0,9 °C 0,0 km/h (0 Bft)
29.01.2024 06:59 22,5 °C -1,0 °C 49 % 82 % 1029,6 hPa 0,0 l/m² 0,0 km/h (0 Bft) O 95 ° 0 min 0 W/m² -3,7 °C -1,0 °C 0,0 km/h (0 Bft)
29.01.2024 07:01 22,5 °C -1,1 °C 49 % 82 % 1029,6 hPa 0,0 l/m² 0,0 km/h (0 Bft) O 95 ° 0 min 0 W/m² -3,8 °C -1,1 °C 0,0 km/h (0 Bft)
29.01.2024 07:02 22,5 °C -1,1 °C 48 % 83 % 1029,5 hPa 0,0 l/m² 0,0 km/h (0 Bft) O 95 ° 0 min 0 W/m² -3,6 °C -1,1 °C 0,0 km/h (0 Bft)
29.01.2024 07:03 22,6 °C -1,1 °C 48 % 83 % 1029,5 hPa 0,0 l/m² 0,0 km/h (0 Bft) O 95 ° 0 min 0 W/m² -3,6 °C -1,1 °C 0,0 km/h (0 Bft)
29.01.2024 07:04 22,6 °C -1,1 °C 48 % 83 % 1029,6 hPa 0,0 l/m² 0,0 km/h (0 Bft) O 95 ° 0 min 0 W/m² -3,6 °C -1,1 °C 0,0 km/h (0 Bft)
29.01.2024 07:06 22,6 °C -1,2 °C 48 % 83 % 1029,5 hPa 0,0 l/m² 0,0 km/h (0 Bft) O 95 ° 0 min 0 W/m² -3,7 °C -1,2 °C 0,0 km/h (0 Bft)
29.01.2024 07:08 22,5 °C -1,3 °C 47 % 83 % 1029,5 hPa 0,0 l/m² 0,0 km/h (0 Bft) O 95 ° 0 min 0 W/m² -3,8 °C -1,3 °C 0,0 km/h (0 Bft)
29.01.2024 07:10 22,5 °C -1,4 °C 47 % 83 % 1029,5 hPa 0,0 l/m² 0,0 km/h (0 Bft) O 95 ° 0 min 0 W/m² -3,9 °C -1,4 °C 0,0 km/h (0 Bft)
29.01.2024 07:11 22,5 °C -1,5 °C 47 % 83 % 1029,6 hPa 0,0 l/m² 0,0 km/h (0 Bft) O 95 ° 0 min 0 W/m² -4,0 °C -1,5 °C 0,0 km/h (0 Bft)
29.01.2024 07:13 22,5 °C -1,6 °C 47 % 84 % 1029,6 hPa 0,0 l/m² 0,0 km/h (0 Bft) O 95 ° 0 min 0 W/m² -3,9 °C -1,6 °C 0,0 km/h (0 Bft)
29.01.2024 07:14 22,5 °C -1,6 °C 47 % 84 % 1029,6 hPa 0,0 l/m² 0,0 km/h (0 Bft) O 95 ° 0 min 0 W/m² -3,9 °C -1,6 °C 0,0 km/h (0 Bft)
29.01.2024 07:16 22,5 °C -1,7 °C 47 % 84 % 1029,5 hPa 0,0 l/m² 0,0 km/h (0 Bft) O 95 ° 0 min 0 W/m² -4,0 °C -1,7 °C 0,0 km/h (0 Bft)
29.01.2024 07:18 22,5 °C -1,7 °C 47 % 84 % 1029,5 hPa 0,0 l/m² 0,0 km/h (0 Bft) O 95 ° 0 min 0 W/m² -4,0 °C -1,7 °C 0,0 km/h (0 Bft)
29.01.2024 07:20 22,4 °C -1,7 °C 47 % 85 % 1029,5 hPa 0,0 l/m² 0,0 km/h (0 Bft) O 95 ° 0 min 0 W/m² -3,9 °C -1,7 °C 0,0 km/h (0 Bft)
29.01.2024 07:21 22,5 °C -1,8 °C 47 % 85 % 1029,6 hPa 0,0 l/m² 0,0 km/h (0 Bft) O 95 ° 0 min 0 W/m² -4,0 °C -1,8 °C 0,0 km/h (0 Bft)
29.01.2024 07:23 22,5 °C -1,7 °C 47 % 85 % 1029,6 hPa 0,0 l/m² 0,0 km/h (0 Bft) O 95 ° 0 min 0 W/m² -3,9 °C -1,7 °C 0,0 km/h (0 Bft)
29.01.2024 07:24 22,4 °C -1,8 °C 47 % 85 % 1029,6 hPa 0,0 l/m² 0,0 km/h (0 Bft) O 95 ° 0 min 0 W/m² -4,0 °C -1,8 °C 0,0 km/h (0 Bft)
29.01.2024 07:26 22,5 °C -1,8 °C 47 % 85 % 1029,6 hPa 0,0 l/m² 0,0 km/h (0 Bft) O 95 ° 0 min 0 W/m² -4,0 °C -1,8 °C 0,0 km/h (0 Bft)
29.01.2024 07:28 22,5 °C -1,8 °C 47 % 85 % 1029,6 hPa 0,0 l/m² 0,0 km/h (0 Bft) O 95 ° 0 min 0 W/m² -4,0 °C -1,8 °C 0,0 km/h (0 Bft)
29.01.2024 07:30 22,4 °C -1,8 °C 47 % 85 % 1029,6 hPa 0,0 l/m² 0,0 km/h (0 Bft) O 95 ° 0 min 0 W/m² -4,0 °C -1,8 °C 0,0 km/h (0 Bft)
29.01.2024 07:31 22,5 °C -1,8 °C 47 % 85 % 1029,6 hPa 0,0 l/m² 0,0 km/h (0 Bft) O 95 ° 0 min 0 W/m² -4,0 °C -1,8 °C 0,0 km/h (0 Bft)
29.01.2024 07:33 22,5 °C -1,8 °C 47 % 85 % 1029,6 hPa 0,0 l/m² 0,0 km/h (0 Bft) O 95 ° 0 min 0 W/m² -4,0 °C -1,8 °C 0,0 km/h (0 Bft)
29.01.2024 07:34 22,5 °C -1,8 °C 47 % 85 % 1029,6 hPa 0,0 l/m² 0,0 km/h (0 Bft) O 95 ° 0 min 0 W/m² -4,0 °C -1,8 °C 0,0 km/h (0 Bft)
29.01.2024 07:36 22,4 °C -1,9 °C 47 % 85 % 1029,6 hPa 0,0 l/m² 0,0 km/h (0 Bft) O 95 ° 0 min 0 W/m² -4,1 °C -1,9 °C 0,0 km/h (0 Bft)
29.01.2024 07:38 22,4 °C -1,9 °C 47 % 85 % 1029,6 hPa 0,0 l/m² 0,0 km/h (0 Bft) O 95 ° 0 min 0 W/m² -4,1 °C -1,9 °C 0,0 km/h (0 Bft)
29.01.2024 07:39 22,4 °C -1,9 °C 47 % 85 % 1029,6 hPa 0,0 l/m² 0,0 km/h (0 Bft) O 95 ° 0 min 0 W/m² -4,1 °C -1,9 °C 0,0 km/h (0 Bft)
29.01.2024 07:41 22,4 °C -2,0 °C 47 % 85 % 1029,6 hPa 0,0 l/m² 0,0 km/h (0 Bft) O 95 ° 0 min 0 W/m² -4,2 °C -2,0 °C 0,0 km/h (0 Bft)
29.01.2024 07:42 22,4 °C -2,1 °C 47 % 86 % 1029,6 hPa 0,0 l/m² 0,0 km/h (0 Bft) O 95 ° 0 min 0 W/m² -4,1 °C -2,1 °C 0,0 km/h (0 Bft)
29.01.2024 07:44 22,5 °C -2,1 °C 47 % 86 % 1029,7 hPa 0,0 l/m² 0,0 km/h (0 Bft) O 95 ° 0 min 5 W/m² -4,1 °C -2,1 °C 0,0 km/h (0 Bft)
29.01.2024 07:46 22,5 °C -2,1 °C 47 % 86 % 1029,7 hPa 0,0 l/m² 0,0 km/h (0 Bft) O 95 ° 0 min 5 W/m² -4,1 °C -2,1 °C 0,0 km/h (0 Bft)
29.01.2024 07:48 22,4 °C -2,1 °C 47 % 86 % 1029,7 hPa 0,0 l/m² 0,0 km/h (0 Bft) O 95 ° 0 min 7 W/m² -4,1 °C -2,1 °C 0,0 km/h (0 Bft)
29.01.2024 07:50 22,4 °C -2,2 °C 47 % 86 % 1029,7 hPa 0,0 l/m² 0,0 km/h (0 Bft) O 95 ° 0 min 9 W/m² -4,2 °C -2,2 °C 0,0 km/h (0 Bft)
29.01.2024 07:51 22,4 °C -2,2 °C 47 % 86 % 1029,8 hPa 0,0 l/m² 0,0 km/h (0 Bft) O 95 ° 0 min 9 W/m² -4,2 °C -2,2 °C 0,0 km/h (0 Bft)
29.01.2024 07:52 22,4 °C -2,2 °C 47 % 86 % 1029,8 hPa 0,0 l/m² 0,0 km/h (0 Bft) O 95 ° 0 min 11 W/m² -4,2 °C -2,2 °C 0,0 km/h (0 Bft)
29.01.2024 07:53 22,4 °C -2,2 °C 47 % 86 % 1029,7 hPa 0,0 l/m² 0,0 km/h (0 Bft) O 95 ° 0 min 11 W/m² -4,2 °C -2,2 °C 0,0 km/h (0 Bft)
29.01.2024 07:54 22,4 °C -2,3 °C 47 % 86 % 1029,8 hPa 0,0 l/m² 0,0 km/h (0 Bft) O 95 ° 0 min 11 W/m² -4,3 °C -2,3 °C 0,0 km/h (0 Bft)
29.01.2024 07:56 22,5 °C -2,3 °C 47 % 86 % 1029,7 hPa 0,0 l/m² 0,0 km/h (0 Bft) O 95 ° 0 min 12 W/m² -4,3 °C -2,3 °C 0,0 km/h (0 Bft)
29.01.2024 07:58 22,4 °C -2,2 °C 47 % 87 % 1029,7 hPa 0,0 l/m² 0,0 km/h (0 Bft) O 95 ° 0 min 14 W/m² -4,1 °C -2,2 °C 0,0 km/h (0 Bft)
29.01.2024 08:00 22,4 °C -2,2 °C 47 % 87 % 1029,7 hPa 0,0 l/m² 0,0 km/h (0 Bft) O 95 ° 0 min 14 W/m² -4,1 °C -2,2 °C 0,0 km/h (0 Bft)
29.01.2024 08:01 22,4 °C -2,1 °C 47 % 87 % 1029,6 hPa 0,0 l/m² 0,0 km/h (0 Bft) O 95 ° 0 min 16 W/m² -4,0 °C -2,1 °C 0,0 km/h (0 Bft)
29.01.2024 08:02 22,4 °C -2,1 °C 47 % 87 % 1029,6 hPa 0,0 l/m² 0,0 km/h (0 Bft) O 95 ° 0 min 16 W/m² -4,0 °C -2,1 °C 0,0 km/h (0 Bft)
29.01.2024 08:04 22,4 °C -1,9 °C 47 % 87 % 1029,6 hPa 0,0 l/m² 0,0 km/h (0 Bft) O 95 ° 0 min 18 W/m² -3,8 °C -1,9 °C 0,0 km/h (0 Bft)
29.01.2024 08:06 22,5 °C -1,9 °C 47 % 87 % 1029,6 hPa 0,0 l/m² 0,0 km/h (0 Bft) O 95 ° 0 min 18 W/m² -3,8 °C -1,9 °C 0,0 km/h (0 Bft)
29.01.2024 08:08 22,4 °C -1,9 °C 47 % 87 % 1029,6 hPa 0,0 l/m² 0,0 km/h (0 Bft) O 95 ° 0 min 19 W/m² -3,8 °C -1,9 °C 0,0 km/h (0 Bft)
29.01.2024 08:10 22,4 °C -1,8 °C 47 % 87 % 1029,6 hPa 0,0 l/m² 0,0 km/h (0 Bft) O 95 ° 0 min 19 W/m² -3,7 °C -1,8 °C 0,0 km/h (0 Bft)
29.01.2024 08:11 22,4 °C -1,8 °C 47 % 87 % 1029,6 hPa 0,0 l/m² 0,0 km/h (0 Bft) O 95 ° 0 min 19 W/m² -3,7 °C -1,8 °C 0,0 km/h (0 Bft)
29.01.2024 08:12 22,4 °C -1,8 °C 47 % 86 % 1029,6 hPa 0,0 l/m² 0,0 km/h (0 Bft) O 95 ° 0 min 21 W/m² -3,8 °C -1,8 °C 0,0 km/h (0 Bft)
29.01.2024 08:13 22,4 °C -1,8 °C 47 % 87 % 1029,6 hPa 0,0 l/m² 0,0 km/h (0 Bft) O 95 ° 0 min 21 W/m² -3,7 °C -1,8 °C 0,0 km/h (0 Bft)
29.01.2024 08:15 22,4 °C -1,8 °C 47 % 86 % 1029,6 hPa 0,0 l/m² 0,0 km/h (0 Bft) O 95 ° 0 min 23 W/m² -3,8 °C -1,8 °C 0,0 km/h (0 Bft)
29.01.2024 08:17 22,4 °C -1,8 °C 47 % 86 % 1029,6 hPa 0,0 l/m² 0,0 km/h (0 Bft) O 95 ° 0 min 25 W/m² -3,8 °C -1,8 °C 0,0 km/h (0 Bft)
29.01.2024 08:19 22,5 °C -1,9 °C 47 % 86 % 1029,6 hPa 0,0 l/m² 0,0 km/h (0 Bft) O 95 ° 0 min 26 W/m² -3,9 °C -1,9 °C 0,0 km/h (0 Bft)
29.01.2024 08:21 22,4 °C -1,9 °C 47 % 86 % 1029,6 hPa 0,0 l/m² 0,0 km/h (0 Bft) O 95 ° 0 min 28 W/m² -3,9 °C -1,9 °C 0,0 km/h (0 Bft)
29.01.2024 08:22 22,4 °C -1,9 °C 47 % 86 % 1029,6 hPa 0,0 l/m² 0,0 km/h (0 Bft) O 95 ° 0 min 28 W/m² -3,9 °C -1,9 °C 0,0 km/h (0 Bft)
29.01.2024 08:23 22,4 °C -1,9 °C 47 % 86 % 1029,6 hPa 0,0 l/m² 0,0 km/h (0 Bft) O 95 ° 0 min 30 W/m² -3,9 °C -1,9 °C 0,0 km/h (0 Bft)
29.01.2024 08:24 22,4 °C -1,9 °C 47 % 86 % 1029,5 hPa 0,0 l/m² 0,0 km/h (0 Bft) O 95 ° 0 min 30 W/m² -3,9 °C -1,9 °C 0,0 km/h (0 Bft)
29.01.2024 08:26 22,4 °C -1,8 °C 47 % 87 % 1029,6 hPa 0,0 l/m² 0,0 km/h (0 Bft) O 95 ° 0 min 33 W/m² -3,7 °C -1,8 °C 0,0 km/h (0 Bft)
29.01.2024 08:28 22,5 °C -1,8 °C 47 % 87 % 1029,6 hPa 0,0 l/m² 0,0 km/h (0 Bft) O 95 ° 0 min 35 W/m² -3,7 °C -1,8 °C 0,0 km/h (0 Bft)
29.01.2024 08:30 22,4 °C -1,7 °C 47 % 87 % 1029,6 hPa 0,0 l/m² 0,0 km/h (0 Bft) O 95 ° 0 min 39 W/m² -3,6 °C -1,7 °C 0,0 km/h (0 Bft)
29.01.2024 08:31 22,4 °C -1,7 °C 47 % 87 % 1029,5 hPa 0,0 l/m² 0,0 km/h (0 Bft) O 95 ° 0 min 42 W/m² -3,6 °C -1,7 °C 0,0 km/h (0 Bft)
29.01.2024 08:33 22,4 °C -1,6 °C 47 % 87 % 1029,5 hPa 0,0 l/m² 0,0 km/h (0 Bft) O 95 ° 0 min 44 W/m² -3,5 °C -1,6 °C 0,0 km/h (0 Bft)
29.01.2024 08:34 22,5 °C -1,6 °C 47 % 87 % 1029,6 hPa 0,0 l/m² 0,0 km/h (0 Bft) O 95 ° 0 min 44 W/m² -3,5 °C -1,6 °C 0,0 km/h (0 Bft)
29.01.2024 08:36 22,4 °C -1,4 °C 47 % 87 % 1029,6 hPa 0,0 l/m² 0,0 km/h (0 Bft) O 95 ° 0 min 49 W/m² -3,3 °C -1,4 °C 0,0 km/h (0 Bft)
29.01.2024 08:38 22,4 °C -1,2 °C 47 % 87 % 1029,6 hPa 0,0 l/m² 0,0 km/h (0 Bft) O 95 ° 2 min 53 W/m² -3,1 °C -1,2 °C 0,0 km/h (0 Bft)
29.01.2024 08:40 22,4 °C -1,0 °C 47 % 87 % 1029,7 hPa 0,0 l/m² 0,0 km/h (0 Bft) O 95 ° 2 min 54 W/m² -2,9 °C -1,0 °C 0,0 km/h (0 Bft)
29.01.2024 08:41 22,5 °C -0,9 °C 47 % 86 % 1029,6 hPa 0,0 l/m² 0,0 km/h (0 Bft) O 95 ° 1 min 54 W/m² -2,9 °C -0,9 °C 0,0 km/h (0 Bft)
29.01.2024 08:43 22,5 °C -0,9 °C 47 % 86 % 1029,6 hPa 0,0 l/m² 0,0 km/h (0 Bft) O 95 ° 2 min 60 W/m² -2,9 °C -0,9 °C 0,0 km/h (0 Bft)
29.01.2024 08:45 22,5 °C -1,1 °C 47 % 85 % 1029,7 hPa 0,0 l/m² 0,0 km/h (0 Bft) O 95 ° 2 min 62 W/m² -3,3 °C -1,1 °C 0,0 km/h (0 Bft)
29.01.2024 08:47 22,5 °C -1,1 °C 47 % 86 % 1029,7 hPa 0,0 l/m² 0,0 km/h (0 Bft) O 95 ° 2 min 65 W/m² -3,1 °C -1,1 °C 0,0 km/h (0 Bft)
29.01.2024 08:49 22,5 °C -1,1 °C 47 % 86 % 1029,7 hPa 0,0 l/m² 0,0 km/h (0 Bft) O 95 ° 2 min 70 W/m² -3,1 °C -1,1 °C 0,0 km/h (0 Bft)
29.01.2024 08:51 22,6 °C -0,8 °C 47 % 86 % 1029,7 hPa 0,0 l/m² 0,0 km/h (0 Bft) O 95 ° 2 min 72 W/m² -2,8 °C -0,8 °C 0,0 km/h (0 Bft)
29.01.2024 08:53 22,6 °C -0,6 °C 47 % 86 % 1029,8 hPa 0,0 l/m² 0,0 km/h (0 Bft) O 95 ° 2 min 76 W/m² -2,6 °C -0,6 °C 0,0 km/h (0 Bft)
29.01.2024 08:55 22,6 °C -0,4 °C 47 % 85 % 1029,7 hPa 0,0 l/m² 0,0 km/h (0 Bft) O 95 ° 2 min 83 W/m² -2,6 °C -0,4 °C 0,0 km/h (0 Bft)
29.01.2024 08:57 22,6 °C -0,7 °C 47 % 85 % 1029,7 hPa 0,0 l/m² 0,0 km/h (0 Bft) O 95 ° 2 min 88 W/m² -2,9 °C -0,7 °C 0,0 km/h (0 Bft)
29.01.2024 08:59 22,6 °C -0,8 °C 47 % 85 % 1029,6 hPa 0,0 l/m² 0,0 km/h (0 Bft) O 95 ° 2 min 93 W/m² -3,0 °C -0,8 °C 0,0 km/h (0 Bft)
29.01.2024 09:01 22,7 °C -0,7 °C 47 % 85 % 1029,6 hPa 0,0 l/m² 0,0 km/h (0 Bft) O 95 ° 2 min 98 W/m² -2,9 °C -0,7 °C 0,0 km/h (0 Bft)
29.01.2024 09:03 22,7 °C -0,5 °C 47 % 86 % 1029,6 hPa 0,0 l/m² 0,0 km/h (0 Bft) O 95 ° 2 min 102 W/m² -2,5 °C -0,5 °C 0,0 km/h (0 Bft)
29.01.2024 09:05 22,7 °C -0,4 °C 47 % 85 % 1029,6 hPa 0,0 l/m² 0,0 km/h (0 Bft) O 95 ° 2 min 105 W/m² -2,6 °C -0,4 °C 0,0 km/h (0 Bft)
29.01.2024 09:07 22,7 °C -0,3 °C 47 % 84 % 1029,6 hPa 0,0 l/m² 0,0 km/h (0 Bft) O 95 ° 2 min 111 W/m² -2,7 °C -0,3 °C 0,0 km/h (0 Bft)
29.01.2024 09:09 22,8 °C -0,2 °C 47 % 85 % 1029,6 hPa 0,0 l/m² 0,0 km/h (0 Bft) O 95 ° 2 min 111 W/m² -2,4 °C -0,2 °C 0,0 km/h (0 Bft)
29.01.2024 09:11 22,8 °C -0,2 °C 47 % 85 % 1029,6 hPa 0,0 l/m² 0,0 km/h (0 Bft) O 95 ° 2 min 104 W/m² -2,4 °C -0,2 °C 0,0 km/h (0 Bft)
29.01.2024 09:13 22,9 °C -0,2 °C 46 % 85 % 1029,6 hPa 0,0 l/m² 0,0 km/h (0 Bft) O 95 ° 2 min 70 W/m² -2,4 °C -0,2 °C 0,0 km/h (0 Bft)
29.01.2024 09:15 22,9 °C -0,1 °C 46 % 85 % 1029,6 hPa 0,0 l/m² 0,0 km/h (0 Bft) O 95 ° 2 min 81 W/m² -2,3 °C -0,1 °C 0,0 km/h (0 Bft)
29.01.2024 09:17 22,9 °C 0,1 °C 46 % 86 % 1029,6 hPa 0,0 l/m² 0,0 km/h (0 Bft) O 95 ° 2 min 70 W/m² -2,0 °C 0,1 °C 0,0 km/h (0 Bft)
29.01.2024 09:19 22,9 °C 0,2 °C 46 % 87 % 1029,6 hPa 0,0 l/m² 0,0 km/h (0 Bft) O 95 ° 2 min 72 W/m² -1,7 °C 0,2 °C 0,0 km/h (0 Bft)
29.01.2024 09:21 22,9 °C 0,3 °C 46 % 87 % 1029,6 hPa 0,0 l/m² 0,0 km/h (0 Bft) O 95 ° 2 min 100 W/m² -1,6 °C 0,3 °C 0,0 km/h (0 Bft)
29.01.2024 09:23 22,9 °C 0,3 °C 46 % 87 % 1029,6 hPa 0,0 l/m² 0,0 km/h (0 Bft) O 95 ° 2 min 97 W/m² -1,6 °C 0,3 °C 0,0 km/h (0 Bft)
29.01.2024 09:25 22,9 °C 0,4 °C 46 % 87 % 1029,7 hPa 0,0 l/m² 0,0 km/h (0 Bft) O 95 ° 2 min 100 W/m² -1,5 °C 0,4 °C 0,0 km/h (0 Bft)
29.01.2024 09:27 22,9 °C 0,5 °C 46 % 87 % 1029,7 hPa 0,0 l/m² 0,0 km/h (0 Bft) O 95 ° 2 min 130 W/m² -1,4 °C 0,5 °C 0,0 km/h (0 Bft)
29.01.2024 09:29 22,9 °C 0,6 °C 46 % 87 % 1029,7 hPa 0,0 l/m² 0,0 km/h (0 Bft) O 95 ° 2 min 155 W/m² -1,3 °C 0,6 °C 0,0 km/h (0 Bft)
29.01.2024 09:31 22,9 °C 0,6 °C 46 % 86 % 1029,7 hPa 0,0 l/m² 0,0 km/h (0 Bft) O 95 ° 2 min 167 W/m² -1,5 °C 0,6 °C 0,0 km/h (0 Bft)
29.01.2024 09:33 23,0 °C 0,7 °C 46 % 86 % 1029,8 hPa 0,0 l/m² 0,0 km/h (0 Bft) O 95 ° 2 min 165 W/m² -1,4 °C 0,7 °C 0,0 km/h (0 Bft)
29.01.2024 09:35 23,0 °C 0,8 °C 46 % 86 % 1029,7 hPa 0,0 l/m² 0,0 km/h (0 Bft) O 95 ° 2 min 162 W/m² -1,3 °C 0,8 °C 0,0 km/h (0 Bft)
29.01.2024 09:37 23,0 °C 0,8 °C 46 % 87 % 1029,7 hPa 0,0 l/m² 0,0 km/h (0 Bft) O 95 ° 2 min 174 W/m² -1,1 °C 0,8 °C 0,0 km/h (0 Bft)
29.01.2024 09:39 23,1 °C 1,1 °C 46 % 85 % 1029,7 hPa 0,0 l/m² 0,0 km/h (0 Bft) O 95 ° 2 min 183 W/m² -1,1 °C 1,1 °C 0,0 km/h (0 Bft)
29.01.2024 09:41 23,1 °C 1,5 °C 46 % 83 % 1029,7 hPa 0,0 l/m² 0,0 km/h (0 Bft) O 95 ° 2 min 174 W/m² -1,1 °C 1,5 °C 0,0 km/h (0 Bft)
29.01.2024 09:43 23,1 °C 1,8 °C 46 % 82 % 1029,8 hPa 0,0 l/m² 0,0 km/h (0 Bft) O 95 ° 2 min 181 W/m² -0,9 °C 1,8 °C 0,0 km/h (0 Bft)
29.01.2024 09:45 23,1 °C 1,9 °C 46 % 81 % 1029,8 hPa 0,0 l/m² 0,0 km/h (0 Bft) O 95 ° 2 min 185 W/m² -1,0 °C 1,9 °C 0,0 km/h (0 Bft)
29.01.2024 09:46 23,2 °C 1,9 °C 46 % 80 % 1029,8 hPa 0,0 l/m² 0,0 km/h (0 Bft) O 95 ° 1 min 190 W/m² -1,2 °C 1,9 °C 0,0 km/h (0 Bft)
29.01.2024 09:47 23,2 °C 2,0 °C 46 % 80 % 1029,8 hPa 0,0 l/m² 0,0 km/h (0 Bft) O 95 ° 1 min 197 W/m² -1,1 °C 2,0 °C 0,0 km/h (0 Bft)
29.01.2024 09:49 23,2 °C 2,2 °C 46 % 79 % 1029,8 hPa 0,0 l/m² 0,0 km/h (0 Bft) O 95 ° 2 min 192 W/m² -1,1 °C 2,2 °C 1,6 km/h (1 Bft)
29.01.2024 09:51 23,2 °C 2,3 °C 46 % 78 % 1029,8 hPa 0,0 l/m² 0,0 km/h (0 Bft) O 95 ° 2 min 193 W/m² -1,1 °C 2,3 °C 0,0 km/h (0 Bft)
29.01.2024 09:53 23,2 °C 2,4 °C 46 % 77 % 1029,8 hPa 0,0 l/m² 0,3 km/h (0 Bft) O 95 ° 2 min 192 W/m² -1,2 °C 2,4 °C 1,6 km/h (1 Bft)
29.01.2024 09:55 23,3 °C 2,4 °C 46 % 77 % 1029,8 hPa 0,0 l/m² 0,0 km/h (0 Bft) O 95 ° 2 min 172 W/m² -1,2 °C 2,4 °C 1,6 km/h (1 Bft)
29.01.2024 09:57 23,3 °C 2,6 °C 46 % 76 % 1029,9 hPa 0,0 l/m² 0,0 km/h (0 Bft) O 95 ° 2 min 162 W/m² -1,2 °C 2,6 °C 0,0 km/h (0 Bft)
29.01.2024 09:59 23,3 °C 2,8 °C 46 % 77 % 1029,8 hPa 0,0 l/m² 0,5 km/h (0 Bft) O 95 ° 2 min 195 W/m² -0,8 °C 2,8 °C 3,2 km/h (1 Bft)
29.01.2024 10:01 23,3 °C 2,8 °C 46 % 77 % 1029,8 hPa 0,0 l/m² 1,6 km/h (1 Bft) O 95 ° 2 min 174 W/m² -0,8 °C 2,8 °C 3,2 km/h (1 Bft)
29.01.2024 10:03 23,3 °C 2,6 °C 46 % 80 % 1029,8 hPa 0,0 l/m² 2,0 km/h (1 Bft) O 95 ° 2 min 190 W/m² -0,5 °C 2,6 °C 3,2 km/h (1 Bft)
29.01.2024 10:05 23,4 °C 2,4 °C 46 % 82 % 1029,9 hPa 0,0 l/m² 1,8 km/h (1 Bft) O 95 ° 2 min 192 W/m² -0,4 °C 2,4 °C 3,2 km/h (1 Bft)
29.01.2024 10:07 23,4 °C 2,4 °C 46 % 82 % 1029,9 hPa 0,0 l/m² 1,1 km/h (1 Bft) O 95 ° 2 min 213 W/m² -0,4 °C 2,4 °C 3,2 km/h (1 Bft)
29.01.2024 10:09 23,4 °C 2,7 °C 46 % 82 % 1029,9 hPa 0,0 l/m² 0,3 km/h (0 Bft) O 95 ° 2 min 218 W/m² -0,1 °C 2,7 °C 3,2 km/h (1 Bft)
29.01.2024 10:11 23,4 °C 2,9 °C 46 % 81 % 1029,8 hPa 0,0 l/m² 0,7 km/h (0 Bft) O 95 ° 2 min 230 W/m² -0,0 °C 2,9 °C 3,2 km/h (1 Bft)
29.01.2024 10:13 23,5 °C 3,2 °C 46 % 81 % 1029,9 hPa 0,0 l/m² 0,0 km/h (0 Bft) O 95 ° 2 min 234 W/m² 0,3 °C 3,2 °C 0,0 km/h (0 Bft)
29.01.2024 10:15 23,6 °C 3,2 °C 46 % 78 % 1029,9 hPa 0,0 l/m² 0,0 km/h (0 Bft) O 95 ° 2 min 237 W/m² -0,3 °C 3,2 °C 0,0 km/h (0 Bft)
29.01.2024 10:17 23,6 °C 3,2 °C 46 % 79 % 1029,9 hPa 0,0 l/m² 0,0 km/h (0 Bft) O 95 ° 2 min 243 W/m² -0,1 °C 3,2 °C 0,0 km/h (0 Bft)
29.01.2024 10:19 23,6 °C 3,2 °C 46 % 80 % 1029,9 hPa 0,0 l/m² 0,0 km/h (0 Bft) O 95 ° 2 min 243 W/m² 0,1 °C 3,2 °C 0,0 km/h (0 Bft)
29.01.2024 10:21 23,6 °C 3,3 °C 46 % 80 % 1030,0 hPa 0,0 l/m² 0,0 km/h (0 Bft) O 95 ° 2 min 244 W/m² 0,2 °C 3,3 °C 0,0 km/h (0 Bft)
29.01.2024 10:23 23,7 °C 3,4 °C 46 % 80 % 1029,8 hPa 0,0 l/m² 0,0 km/h (0 Bft) O 95 ° 2 min 251 W/m² 0,3 °C 3,4 °C 0,0 km/h (0 Bft)
29.01.2024 10:25 23,7 °C 3,4 °C 46 % 79 % 1029,8 hPa 0,0 l/m² 0,0 km/h (0 Bft) O 95 ° 2 min 251 W/m² 0,1 °C 3,4 °C 0,0 km/h (0 Bft)
29.01.2024 10:27 23,7 °C 3,6 °C 46 % 78 % 1029,8 hPa 0,0 l/m² 0,0 km/h (0 Bft) O 95 ° 2 min 251 W/m² 0,1 °C 3,6 °C 0,0 km/h (0 Bft)
29.01.2024 10:29 23,7 °C 3,6 °C 46 % 77 % 1029,7 hPa 0,0 l/m² 0,0 km/h (0 Bft) O 95 ° 2 min 260 W/m² -0,0 °C 3,6 °C 0,0 km/h (0 Bft)
29.01.2024 10:31 23,7 °C 3,8 °C 46 % 77 % 1029,7 hPa 0,0 l/m² 0,0 km/h (0 Bft) O 95 ° 2 min 264 W/m² 0,1 °C 3,8 °C 0,0 km/h (0 Bft)
29.01.2024 10:33 23,8 °C 3,9 °C 46 % 77 % 1029,7 hPa 0,0 l/m² 0,0 km/h (0 Bft) O 95 ° 2 min 264 W/m² 0,2 °C 3,9 °C 0,0 km/h (0 Bft)
29.01.2024 10:35 23,8 °C 4,0 °C 46 % 76 % 1029,8 hPa 0,0 l/m² 0,0 km/h (0 Bft) O 95 ° 2 min 276 W/m² 0,2 °C 4,0 °C 0,0 km/h (0 Bft)
29.01.2024 10:37 23,8 °C 4,1 °C 45 % 75 % 1029,9 hPa 0,0 l/m² 0,0 km/h (0 Bft) O 95 ° 2 min 279 W/m² 0,1 °C 4,1 °C 0,0 km/h (0 Bft)
29.01.2024 10:39 23,9 °C 4,2 °C 45 % 75 % 1029,9 hPa 0,0 l/m² 0,7 km/h (0 Bft) O 95 ° 2 min 283 W/m² 0,2 °C 4,2 °C 3,2 km/h (1 Bft)
29.01.2024 10:41 23,9 °C 4,3 °C 45 % 74 % 1029,9 hPa 0,0 l/m² 2,0 km/h (1 Bft) O 95 ° 2 min 288 W/m² 0,1 °C 4,3 °C 3,2 km/h (1 Bft)
29.01.2024 10:43 23,9 °C 4,3 °C 45 % 75 % 1029,8 hPa 0,0 l/m² 2,3 km/h (1 Bft) O 95 ° 2 min 295 W/m² 0,3 °C 4,3 °C 3,2 km/h (1 Bft)
29.01.2024 10:45 23,9 °C 4,3 °C 45 % 75 % 1029,8 hPa 0,0 l/m² 2,4 km/h (1 Bft) O 95 ° 2 min 301 W/m² 0,3 °C 4,3 °C 3,2 km/h (1 Bft)
29.01.2024 10:47 23,9 °C 4,4 °C 45 % 75 % 1029,8 hPa 0,0 l/m² 3,3 km/h (1 Bft) O 95 ° 2 min 309 W/m² 0,4 °C 4,4 °C 4,8 km/h (1 Bft)
29.01.2024 10:49 23,9 °C 4,6 °C 45 % 76 % 1029,8 hPa 0,0 l/m² 3,3 km/h (1 Bft) O 95 ° 2 min 309 W/m² 0,7 °C 4,6 °C 4,8 km/h (1 Bft)
29.01.2024 10:51 24,0 °C 4,9 °C 45 % 75 % 1029,8 hPa 0,0 l/m² 4,0 km/h (1 Bft) S-SW 205 ° 2 min 304 W/m² 0,8 °C 4,9 °C 6,4 km/h (2 Bft)
29.01.2024 10:53 24,1 °C 5,3 °C 45 % 75 % 1029,9 hPa 0,0 l/m² 4,2 km/h (1 Bft) S-SW 211 ° 2 min 301 W/m² 1,2 °C 5,3 °C 6,4 km/h (2 Bft)
29.01.2024 10:55 24,1 °C 5,4 °C 45 % 75 % 1029,9 hPa 0,0 l/m² 3,9 km/h (1 Bft) S-SW 211 ° 2 min 302 W/m² 1,3 °C 5,4 °C 6,4 km/h (2 Bft)
29.01.2024 10:57 24,1 °C 5,4 °C 45 % 73 % 1029,9 hPa 0,0 l/m² 4,5 km/h (1 Bft) SW 215 ° 2 min 302 W/m² 1,0 °C 5,4 °C 6,4 km/h (2 Bft)
29.01.2024 10:59 24,1 °C 5,3 °C 45 % 72 % 1029,9 hPa 0,0 l/m² 4,3 km/h (1 Bft) SW 216 ° 2 min 308 W/m² 0,7 °C 5,3 °C 4,8 km/h (1 Bft)
29.01.2024 11:01 24,1 °C 5,3 °C 45 % 72 % 1029,8 hPa 0,0 l/m² 3,5 km/h (1 Bft) SW 217 ° 2 min 313 W/m² 0,7 °C 5,3 °C 4,8 km/h (1 Bft)
29.01.2024 11:03 24,1 °C 5,3 °C 45 % 72 % 1029,9 hPa 0,0 l/m² 5,3 km/h (1 Bft) SW 217 ° 2 min 320 W/m² 0,7 °C 5,3 °C 6,4 km/h (2 Bft)
29.01.2024 11:05 24,1 °C 5,3 °C 45 % 73 % 1029,9 hPa 0,0 l/m² 4,4 km/h (1 Bft) SW 217 ° 2 min 330 W/m² 0,9 °C 5,3 °C 6,4 km/h (2 Bft)
29.01.2024 11:07 24,1 °C 5,4 °C 45 % 74 % 1029,9 hPa 0,0 l/m² 3,5 km/h (1 Bft) SW 217 ° 2 min 338 W/m² 1,1 °C 5,4 °C 6,4 km/h (2 Bft)
29.01.2024 11:09 24,2 °C 5,7 °C 45 % 74 % 1029,9 hPa 0,0 l/m² 4,0 km/h (1 Bft) SW 217 ° 2 min 339 W/m² 1,4 °C 5,7 °C 6,4 km/h (2 Bft)
29.01.2024 11:11 24,1 °C 5,6 °C 45 % 72 % 1029,9 hPa 0,0 l/m² 4,9 km/h (1 Bft) SW 217 ° 2 min 346 W/m² 1,0 °C 5,6 °C 8,0 km/h (2 Bft)
29.01.2024 11:13 24,1 °C 5,5 °C 45 % 72 % 1029,9 hPa 0,0 l/m² 5,5 km/h (2 Bft) SW 217 ° 2 min 348 W/m² 0,9 °C 5,5 °C 6,4 km/h (2 Bft)
29.01.2024 11:15 24,2 °C 5,6 °C 45 % 72 % 1029,9 hPa 0,0 l/m² 3,8 km/h (1 Bft) SW 217 ° 2 min 350 W/m² 1,0 °C 5,6 °C 4,8 km/h (1 Bft)
29.01.2024 11:17 24,1 °C 5,6 °C 45 % 72 % 1029,9 hPa 0,0 l/m² 2,6 km/h (1 Bft) SW 217 ° 2 min 350 W/m² 1,0 °C 5,6 °C 4,8 km/h (1 Bft)
29.01.2024 11:19 24,2 °C 5,7 °C 45 % 73 % 1029,9 hPa 0,0 l/m² 0,2 km/h (0 Bft) SW 217 ° 2 min 353 W/m² 1,2 °C 5,7 °C 3,2 km/h (1 Bft)
29.01.2024 11:21 24,2 °C 5,8 °C 45 % 72 % 1030,0 hPa 0,0 l/m² 2,8 km/h (1 Bft) SW 217 ° 2 min 352 W/m² 1,2 °C 5,8 °C 4,8 km/h (1 Bft)
29.01.2024 11:22 24,2 °C 5,9 °C 45 % 70 % 1030,0 hPa 0,0 l/m² 2,4 km/h (1 Bft) SW 217 ° 1 min 353 W/m² 0,9 °C 5,9 °C 4,8 km/h (1 Bft)
29.01.2024 11:23 24,2 °C 5,9 °C 45 % 70 % 1030,0 hPa 0,0 l/m² 1,7 km/h (1 Bft) SW 217 ° 1 min 355 W/m² 0,9 °C 5,9 °C 3,2 km/h (1 Bft)
29.01.2024 11:25 24,2 °C 6,1 °C 45 % 70 % 1030,0 hPa 0,0 l/m² 2,9 km/h (1 Bft) SW 217 ° 2 min 350 W/m² 1,0 °C 6,1 °C 4,8 km/h (1 Bft)
29.01.2024 11:27 24,2 °C 6,3 °C 45 % 71 % 1029,9 hPa 0,0 l/m² 2,6 km/h (1 Bft) SW 217 ° 2 min 360 W/m² 1,4 °C 6,3 °C 4,8 km/h (1 Bft)
29.01.2024 11:29 24,2 °C 6,3 °C 45 % 70 % 1030,0 hPa 0,0 l/m² 2,7 km/h (1 Bft) SW 217 ° 2 min 362 W/m² 1,2 °C 6,3 °C 6,4 km/h (2 Bft)
29.01.2024 11:31 24,2 °C 6,4 °C 45 % 70 % 1030,0 hPa 0,0 l/m² 2,6 km/h (1 Bft) SW 217 ° 2 min 359 W/m² 1,3 °C 6,4 °C 4,8 km/h (1 Bft)
29.01.2024 11:33 24,2 °C 6,4 °C 45 % 68 % 1029,9 hPa 0,0 l/m² 2,1 km/h (1 Bft) SW 217 ° 2 min 346 W/m² 0,9 °C 6,4 °C 4,8 km/h (1 Bft)
29.01.2024 11:35 24,2 °C 6,3 °C 45 % 70 % 1030,0 hPa 0,0 l/m² 3,3 km/h (1 Bft) SW 217 ° 2 min 362 W/m² 1,2 °C 6,3 °C 4,8 km/h (1 Bft)
29.01.2024 11:37 24,2 °C 6,3 °C 45 % 70 % 1029,9 hPa 0,0 l/m² 1,9 km/h (1 Bft) SW 217 ° 2 min 373 W/m² 1,2 °C 6,3 °C 3,2 km/h (1 Bft)
29.01.2024 11:39 24,2 °C 6,4 °C 45 % 69 % 1029,9 hPa 0,0 l/m² 2,6 km/h (1 Bft) SW 217 ° 2 min 369 W/m² 1,1 °C 6,4 °C 4,8 km/h (1 Bft)
29.01.2024 11:41 24,2 °C 6,4 °C 45 % 71 % 1029,8 hPa 0,0 l/m² 2,4 km/h (1 Bft) SW 217 ° 2 min 364 W/m² 1,5 °C 6,4 °C 3,2 km/h (1 Bft)
29.01.2024 11:43 24,2 °C 6,6 °C 45 % 71 % 1029,9 hPa 0,0 l/m² 1,3 km/h (1 Bft) SW 217 ° 2 min 353 W/m² 1,7 °C 6,6 °C 3,2 km/h (1 Bft)
29.01.2024 11:45 24,2 °C 6,7 °C 45 % 69 % 1029,8 hPa 0,0 l/m² 2,7 km/h (1 Bft) SW 217 ° 2 min 359 W/m² 1,4 °C 6,7 °C 4,8 km/h (1 Bft)
29.01.2024 11:46 24,2 °C 6,6 °C 45 % 69 % 1029,9 hPa 0,0 l/m² 1,8 km/h (1 Bft) SW 217 ° 1 min 359 W/m² 1,3 °C 6,6 °C 3,2 km/h (1 Bft)
29.01.2024 11:47 24,2 °C 6,7 °C 45 % 70 % 1029,9 hPa 0,0 l/m² 2,1 km/h (1 Bft) SW 217 ° 1 min 359 W/m² 1,6 °C 6,7 °C 4,8 km/h (1 Bft)
29.01.2024 11:49 24,2 °C 6,8 °C 45 % 70 % 1029,9 hPa 0,0 l/m² 2,1 km/h (1 Bft) SW 217 ° 2 min 350 W/m² 1,7 °C 6,8 °C 4,8 km/h (1 Bft)
29.01.2024 11:51 24,2 °C 6,8 °C 45 % 68 % 1029,8 hPa 0,0 l/m² 2,4 km/h (1 Bft) SW 217 ° 2 min 325 W/m² 1,3 °C 6,8 °C 4,8 km/h (1 Bft)
29.01.2024 11:53 24,2 °C 6,9 °C 45 % 70 % 1029,9 hPa 0,0 l/m² 2,4 km/h (1 Bft) SW 217 ° 2 min 336 W/m² 1,8 °C 6,9 °C 3,2 km/h (1 Bft)
29.01.2024 11:55 24,2 °C 7,1 °C 45 % 69 % 1029,8 hPa 0,0 l/m² 2,3 km/h (1 Bft) SW 217 ° 2 min 339 W/m² 1,8 °C 7,1 °C 4,8 km/h (1 Bft)
29.01.2024 11:57 24,2 °C 7,2 °C 45 % 69 % 1029,9 hPa 0,0 l/m² 1,5 km/h (1 Bft) SW 217 ° 2 min 376 W/m² 1,9 °C 7,2 °C 4,8 km/h (1 Bft)
29.01.2024 11:59 24,2 °C 7,3 °C 45 % 68 % 1029,8 hPa 0,0 l/m² 3,0 km/h (1 Bft) SW 217 ° 2 min 378 W/m² 1,8 °C 7,3 °C 4,8 km/h (1 Bft)
29.01.2024 12:01 24,2 °C 7,2 °C 45 % 70 % 1029,7 hPa 0,0 l/m² 2,8 km/h (1 Bft) SW 217 ° 2 min 371 W/m² 2,1 °C 7,2 °C 4,8 km/h (1 Bft)
29.01.2024 12:03 24,2 °C 7,2 °C 45 % 69 % 1029,8 hPa 0,0 l/m² 2,6 km/h (1 Bft) SW 217 ° 2 min 366 W/m² 1,9 °C 7,2 °C 4,8 km/h (1 Bft)
29.01.2024 12:05 24,3 °C 7,3 °C 45 % 70 % 1029,7 hPa 0,0 l/m² 2,8 km/h (1 Bft) SW 217 ° 2 min 373 W/m² 2,2 °C 7,3 °C 4,8 km/h (1 Bft)
29.01.2024 12:07 24,2 °C 7,3 °C 45 % 70 % 1029,8 hPa 0,0 l/m² 1,0 km/h (0 Bft) SW 217 ° 2 min 374 W/m² 2,2 °C 7,3 °C 3,2 km/h (1 Bft)
29.01.2024 12:09 24,3 °C 7,4 °C 45 % 69 % 1029,8 hPa 0,0 l/m² 1,7 km/h (1 Bft) SW 217 ° 2 min 381 W/m² 2,1 °C 7,4 °C 3,2 km/h (1 Bft)
29.01.2024 12:11 24,3 °C 7,4 °C 45 % 69 % 1029,8 hPa 0,0 l/m² 1,5 km/h (1 Bft) SW 217 ° 2 min 374 W/m² 2,1 °C 7,4 °C 3,2 km/h (1 Bft)
29.01.2024 12:13 24,3 °C 7,4 °C 45 % 69 % 1029,7 hPa 0,0 l/m² 0,8 km/h (0 Bft) SW 217 ° 2 min 323 W/m² 2,1 °C 7,4 °C 3,2 km/h (1 Bft)
29.01.2024 12:14 24,3 °C 7,3 °C 45 % 70 % 1029,7 hPa 0,0 l/m² 1,1 km/h (1 Bft) SW 217 ° 1 min 308 W/m² 2,2 °C 7,3 °C 3,2 km/h (1 Bft)
29.01.2024 12:15 24,3 °C 7,3 °C 45 % 70 % 1029,7 hPa 0,0 l/m² 0,5 km/h (0 Bft) SW 217 ° 1 min 315 W/m² 2,2 °C 7,3 °C 1,6 km/h (1 Bft)
29.01.2024 12:17 24,3 °C 7,5 °C 45 % 70 % 1029,7 hPa 0,0 l/m² 0,1 km/h (0 Bft) SW 217 ° 2 min 323 W/m² 2,4 °C 7,5 °C 1,6 km/h (1 Bft)
29.01.2024 12:19 24,3 °C 7,6 °C 45 % 70 % 1029,6 hPa 0,0 l/m² 0,0 km/h (0 Bft) SW 217 ° 2 min 318 W/m² 2,5 °C 7,6 °C 0,0 km/h (0 Bft)
29.01.2024 12:21 24,3 °C 7,7 °C 45 % 70 % 1029,6 hPa 0,0 l/m² 0,0 km/h (0 Bft) SW 217 ° 2 min 311 W/m² 2,6 °C 7,7 °C 1,6 km/h (1 Bft)
29.01.2024 12:23 24,3 °C 7,9 °C 45 % 69 % 1029,6 hPa 0,0 l/m² 0,1 km/h (0 Bft) SW 217 ° 2 min 309 W/m² 2,6 °C 7,9 °C 1,6 km/h (1 Bft)
29.01.2024 12:25 24,3 °C 7,9 °C 45 % 69 % 1029,7 hPa 0,0 l/m² 0,6 km/h (0 Bft) SW 217 ° 2 min 323 W/m² 2,6 °C 7,9 °C 1,6 km/h (1 Bft)
29.01.2024 12:27 24,3 °C 8,2 °C 45 % 69 % 1029,7 hPa 0,0 l/m² 0,0 km/h (0 Bft) SW 217 ° 2 min 345 W/m² 2,9 °C 8,2 °C 1,6 km/h (1 Bft)
29.01.2024 12:29 24,3 °C 8,3 °C 45 % 68 % 1029,7 hPa 0,0 l/m² 0,0 km/h (0 Bft) SW 217 ° 2 min 341 W/m² 2,7 °C 8,3 °C 0,0 km/h (0 Bft)
29.01.2024 12:31 24,3 °C 8,5 °C 45 % 67 % 1029,7 hPa 0,0 l/m² 1,6 km/h (1 Bft) SW 217 ° 2 min 338 W/m² 2,7 °C 8,5 °C 3,2 km/h (1 Bft)
29.01.2024 12:33 24,3 °C 8,6 °C 45 % 67 % 1029,7 hPa 0,0 l/m² 0,5 km/h (0 Bft) SW 217 ° 2 min 320 W/m² 2,8 °C 8,6 °C 3,2 km/h (1 Bft)
29.01.2024 12:35 24,3 °C 8,8 °C 45 % 68 % 1029,7 hPa 0,0 l/m² 0,9 km/h (0 Bft) SW 217 ° 2 min 301 W/m² 3,2 °C 8,8 °C 3,2 km/h (1 Bft)
29.01.2024 12:37 24,3 °C 8,7 °C 45 % 67 % 1029,7 hPa 0,0 l/m² 1,9 km/h (1 Bft) SW 217 ° 2 min 294 W/m² 2,9 °C 8,7 °C 3,2 km/h (1 Bft)
29.01.2024 12:39 24,3 °C 8,7 °C 45 % 66 % 1029,6 hPa 0,0 l/m² 2,9 km/h (1 Bft) SW 217 ° 2 min 258 W/m² 2,7 °C 8,7 °C 4,8 km/h (1 Bft)
29.01.2024 12:41 24,3 °C 8,7 °C 45 % 68 % 1029,7 hPa 0,0 l/m² 4,0 km/h (1 Bft) SW 217 ° 2 min 250 W/m² 3,1 °C 8,7 °C 6,4 km/h (2 Bft)
29.01.2024 12:43 24,3 °C 8,7 °C 45 % 68 % 1029,6 hPa 0,0 l/m² 4,7 km/h (1 Bft) SW 217 ° 2 min 244 W/m² 3,1 °C 8,7 °C 6,4 km/h (2 Bft)
29.01.2024 12:46 24,3 °C 8,9 °C 45 % 68 % 1029,6 hPa 0,0 l/m² 4,1 km/h (1 Bft) SW 217 ° 3 min 264 W/m² 3,3 °C 8,9 °C 6,4 km/h (2 Bft)
29.01.2024 12:48 24,2 °C 8,9 °C 45 % 66 % 1029,6 hPa 0,0 l/m² 6,7 km/h (2 Bft) S-SW 194 ° 2 min 260 W/m² 2,9 °C 8,7 °C 9,7 km/h (2 Bft)
29.01.2024 12:50 24,2 °C 8,9 °C 45 % 69 % 1029,6 hPa 0,0 l/m² 4,3 km/h (1 Bft) S-SW 194 ° 2 min 272 W/m² 3,5 °C 8,9 °C 6,4 km/h (2 Bft)
29.01.2024 12:52 24,3 °C 9,1 °C 45 % 68 % 1029,5 hPa 0,0 l/m² 3,6 km/h (1 Bft) S 191 ° 2 min 265 W/m² 3,5 °C 9,1 °C 4,8 km/h (1 Bft)
29.01.2024 12:54 24,2 °C 9,1 °C 45 % 66 % 1029,5 hPa 0,0 l/m² 6,9 km/h (2 Bft) S 189 ° 2 min 264 W/m² 3,1 °C 8,7 °C 11,3 km/h (2 Bft)
29.01.2024 12:56 24,2 °C 9,2 °C 45 % 66 % 1029,5 hPa 0,0 l/m² 7,2 km/h (2 Bft) S 181 ° 2 min 260 W/m² 3,2 °C 8,6 °C 9,7 km/h (2 Bft)
29.01.2024 12:58 24,2 °C 9,1 °C 45 % 65 % 1029,5 hPa 0,0 l/m² 7,4 km/h (2 Bft) S 182 ° 2 min 269 W/m² 2,9 °C 8,3 °C 9,7 km/h (2 Bft)
29.01.2024 13:00 24,2 °C 9,2 °C 45 % 64 % 1029,4 hPa 0,0 l/m² 9,6 km/h (2 Bft) S-SW 203 ° 2 min 258 W/m² 2,8 °C 7,0 °C 12,9 km/h (3 Bft)
29.01.2024 13:02 24,2 °C 9,2 °C 45 % 63 % 1029,5 hPa 0,0 l/m² 11,1 km/h (2 Bft) S 188 ° 2 min 250 W/m² 2,5 °C 6,1 °C 16,1 km/h (3 Bft)
29.01.2024 13:04 24,2 °C 9,2 °C 45 % 63 % 1029,5 hPa 0,0 l/m² 12,7 km/h (3 Bft) S 176 ° 2 min 253 W/m² 2,5 °C 5,2 °C 16,1 km/h (3 Bft)
29.01.2024 13:06 24,2 °C 9,1 °C 45 % 63 % 1029,4 hPa 0,0 l/m² 12,8 km/h (3 Bft) S 182 ° 2 min 253 W/m² 2,4 °C 5,1 °C 17,7 km/h (3 Bft)
29.01.2024 13:08 24,2 °C 9,1 °C 45 % 63 % 1029,4 hPa 0,0 l/m² 10,8 km/h (2 Bft) S-SW 192 ° 2 min 236 W/m² 2,4 °C 6,1 °C 12,9 km/h (3 Bft)
29.01.2024 13:10 24,2 °C 9,1 °C 45 % 63 % 1029,4 hPa 0,0 l/m² 10,8 km/h (2 Bft) S 184 ° 2 min 237 W/m² 2,4 °C 6,1 °C 14,5 km/h (3 Bft)
29.01.2024 13:12 24,2 °C 9,1 °C 45 % 64 % 1029,4 hPa 0,0 l/m² 9,8 km/h (2 Bft) S-SW 201 ° 2 min 246 W/m² 2,7 °C 6,7 °C 14,5 km/h (3 Bft)
29.01.2024 13:14 24,1 °C 9,1 °C 45 % 64 % 1029,4 hPa 0,0 l/m² 10,3 km/h (2 Bft) S-SW 199 ° 2 min 241 W/m² 2,7 °C 6,4 °C 12,9 km/h (3 Bft)
29.01.2024 13:16 24,2 °C 9,2 °C 45 % 64 % 1029,3 hPa 0,0 l/m² 9,1 km/h (2 Bft) S-SW 193 ° 2 min 244 W/m² 2,8 °C 7,3 °C 11,3 km/h (2 Bft)
29.01.2024 13:18 24,1 °C 9,2 °C 45 % 65 % 1029,4 hPa 0,0 l/m² 8,2 km/h (2 Bft) S-SW 203 ° 2 min 250 W/m² 3,0 °C 7,9 °C 12,9 km/h (3 Bft)
29.01.2024 13:20 24,1 °C 9,2 °C 45 % 64 % 1029,4 hPa 0,0 l/m² 9,1 km/h (2 Bft) S-SW 198 ° 2 min 251 W/m² 2,8 °C 7,3 °C 12,9 km/h (3 Bft)
29.01.2024 13:22 24,1 °C 9,2 °C 45 % 66 % 1029,4 hPa 0,0 l/m² 6,3 km/h (2 Bft) S-SW 204 ° 2 min 250 W/m² 3,2 °C 9,2 °C 9,7 km/h (2 Bft)
29.01.2024 13:24 24,1 °C 9,3 °C 45 % 66 % 1029,4 hPa 0,0 l/m² 7,6 km/h (2 Bft) S-SW 212 ° 2 min 250 W/m² 3,3 °C 8,4 °C 11,3 km/h (2 Bft)
29.01.2024 13:26 24,1 °C 9,4 °C 45 % 67 % 1029,3 hPa 0,0 l/m² 6,1 km/h (2 Bft) S-SW 213 ° 2 min 239 W/m² 3,6 °C 9,4 °C 8,0 km/h (2 Bft)
29.01.2024 13:28 24,1 °C 9,3 °C 45 % 66 % 1029,4 hPa 0,0 l/m² 6,9 km/h (2 Bft) SW 216 ° 2 min 237 W/m² 3,3 °C 8,9 °C 9,7 km/h (2 Bft)
29.01.2024 13:30 24,1 °C 9,4 °C 45 % 66 % 1029,4 hPa 0,0 l/m² 5,0 km/h (1 Bft) SW 219 ° 2 min 232 W/m² 3,4 °C 9,4 °C 8,0 km/h (2 Bft)
29.01.2024 13:32 24,1 °C 9,4 °C 45 % 65 % 1029,3 hPa 0,0 l/m² 5,8 km/h (2 Bft) SW 220 ° 2 min 257 W/m² 3,2 °C 9,4 °C 8,0 km/h (2 Bft)
29.01.2024 13:34 24,1 °C 9,4 °C 45 % 67 % 1029,3 hPa 0,0 l/m² 3,9 km/h (1 Bft) SW 220 ° 2 min 264 W/m² 3,6 °C 9,4 °C 4,8 km/h (1 Bft)
29.01.2024 13:36 24,1 °C 9,5 °C 45 % 67 % 1029,3 hPa 0,0 l/m² 4,6 km/h (1 Bft) SW 220 ° 2 min 265 W/m² 3,7 °C 9,5 °C 8,0 km/h (2 Bft)
29.01.2024 13:38 24,1 °C 9,5 °C 45 % 67 % 1029,3 hPa 0,0 l/m² 5,0 km/h (1 Bft) SW 220 ° 2 min 271 W/m² 3,7 °C 9,5 °C 8,0 km/h (2 Bft)
29.01.2024 13:40 24,0 °C 9,8 °C 45 % 66 % 1029,3 hPa 0,0 l/m² 5,2 km/h (1 Bft) SW 220 ° 2 min 269 W/m² 3,8 °C 9,8 °C 8,0 km/h (2 Bft)
29.01.2024 13:42 24,0 °C 9,8 °C 45 % 64 % 1029,4 hPa 0,0 l/m² 5,0 km/h (1 Bft) SW 220 ° 2 min 262 W/m² 3,3 °C 9,8 °C 6,4 km/h (2 Bft)
29.01.2024 13:44 24,0 °C 9,9 °C 45 % 64 % 1029,3 hPa 0,0 l/m² 4,8 km/h (1 Bft) SW 220 ° 2 min 260 W/m² 3,4 °C 9,9 °C 6,4 km/h (2 Bft)
29.01.2024 13:46 24,0 °C 9,9 °C 45 % 64 % 1029,3 hPa 0,0 l/m² 5,2 km/h (1 Bft) SW 220 ° 2 min 269 W/m² 3,4 °C 9,9 °C 6,4 km/h (2 Bft)
29.01.2024 13:48 24,0 °C 9,8 °C 45 % 66 % 1029,3 hPa 0,0 l/m² 5,4 km/h (2 Bft) SW 220 ° 2 min 234 W/m² 3,8 °C 9,8 °C 6,4 km/h (2 Bft)
29.01.2024 13:50 24,0 °C 9,8 °C 45 % 65 % 1029,3 hPa 0,0 l/m² 5,8 km/h (2 Bft) SW 219 ° 2 min 216 W/m² 3,5 °C 9,8 °C 9,7 km/h (2 Bft)
29.01.2024 13:52 24,0 °C 9,7 °C 45 % 67 % 1029,2 hPa 0,0 l/m² 6,4 km/h (2 Bft) SW 219 ° 2 min 241 W/m² 3,9 °C 9,7 °C 9,7 km/h (2 Bft)
29.01.2024 13:54 24,0 °C 9,6 °C 45 % 67 % 1029,2 hPa 0,0 l/m² 6,3 km/h (2 Bft) SW 217 ° 2 min 241 W/m² 3,8 °C 9,6 °C 8,0 km/h (2 Bft)
29.01.2024 13:56 24,0 °C 9,6 °C 45 % 67 % 1029,2 hPa 0,0 l/m² 8,0 km/h (2 Bft) S 189 ° 2 min 229 W/m² 3,8 °C 8,4 °C 11,3 km/h (2 Bft)
29.01.2024 13:58 23,9 °C 9,6 °C 45 % 67 % 1029,2 hPa 0,0 l/m² 9,1 km/h (2 Bft) S-SW 194 ° 2 min 204 W/m² 3,8 °C 7,7 °C 11,3 km/h (2 Bft)
29.01.2024 14:00 23,9 °C 9,6 °C 45 % 67 % 1029,1 hPa 0,0 l/m² 10,7 km/h (2 Bft) S-SW 199 ° 2 min 214 W/m² 3,8 °C 6,8 °C 14,5 km/h (3 Bft)
29.01.2024 14:02 23,9 °C 9,6 °C 45 % 65 % 1029,2 hPa 0,0 l/m² 11,3 km/h (2 Bft) S 190 ° 2 min 225 W/m² 3,4 °C 6,4 °C 14,5 km/h (3 Bft)
29.01.2024 14:04 23,9 °C 9,6 °C 45 % 66 % 1029,1 hPa 0,0 l/m² 9,9 km/h (2 Bft) S-SW 200 ° 2 min 225 W/m² 3,6 °C 7,2 °C 11,3 km/h (2 Bft)
29.01.2024 14:06 23,9 °C 9,6 °C 45 % 65 % 1029,1 hPa 0,0 l/m² 11,0 km/h (2 Bft) S-SW 193 ° 2 min 236 W/m² 3,4 °C 6,6 °C 12,9 km/h (3 Bft)
29.01.2024 14:08 23,9 °C 9,7 °C 45 % 65 % 1029,0 hPa 0,0 l/m² 12,2 km/h (2 Bft) S-SW 194 ° 2 min 221 W/m² 3,4 °C 6,1 °C 14,5 km/h (3 Bft)
29.01.2024 14:10 23,9 °C 9,7 °C 45 % 64 % 1029,0 hPa 0,0 l/m² 12,9 km/h (3 Bft) S-SW 198 ° 2 min 204 W/m² 3,2 °C 5,7 °C 16,1 km/h (3 Bft)
29.01.2024 14:12 23,9 °C 9,7 °C 45 % 64 % 1029,0 hPa 0,0 l/m² 12,8 km/h (3 Bft) S 187 ° 2 min 176 W/m² 3,2 °C 5,8 °C 14,5 km/h (3 Bft)
29.01.2024 14:14 23,9 °C 9,6 °C 45 % 65 % 1029,0 hPa 0,0 l/m² 11,6 km/h (2 Bft) S 189 ° 2 min 155 W/m² 3,4 °C 6,3 °C 14,5 km/h (3 Bft)
29.01.2024 14:16 23,8 °C 9,5 °C 45 % 65 % 1028,9 hPa 0,0 l/m² 12,7 km/h (3 Bft) S-SW 193 ° 2 min 158 W/m² 3,3 °C 5,6 °C 16,1 km/h (3 Bft)
29.01.2024 14:18 23,8 °C 9,4 °C 45 % 67 % 1028,9 hPa 0,0 l/m² 10,1 km/h (2 Bft) S 188 ° 2 min 172 W/m² 3,6 °C 6,9 °C 12,9 km/h (3 Bft)
29.01.2024 14:20 23,8 °C 9,3 °C 46 % 67 % 1029,0 hPa 0,0 l/m² 10,8 km/h (2 Bft) S 188 ° 2 min 176 W/m² 3,5 °C 6,4 °C 14,5 km/h (3 Bft)
29.01.2024 14:22 23,8 °C 9,4 °C 45 % 66 % 1029,0 hPa 0,0 l/m² 9,3 km/h (2 Bft) S-SW 195 ° 2 min 171 W/m² 3,4 °C 7,4 °C 12,9 km/h (3 Bft)
29.01.2024 14:24 23,8 °C 9,4 °C 46 % 66 % 1028,9 hPa 0,0 l/m² 9,1 km/h (2 Bft) S 185 ° 2 min 162 W/m² 3,4 °C 7,5 °C 12,9 km/h (3 Bft)
29.01.2024 14:26 23,8 °C 9,4 °C 46 % 66 % 1029,0 hPa 0,0 l/m² 7,8 km/h (2 Bft) S 188 ° 2 min 171 W/m² 3,4 °C 8,4 °C 11,3 km/h (2 Bft)
29.01.2024 14:28 23,7 °C 9,4 °C 45 % 66 % 1028,9 hPa 0,0 l/m² 7,2 km/h (2 Bft) S 190 ° 2 min 171 W/m² 3,4 °C 8,8 °C 11,3 km/h (2 Bft)
29.01.2024 14:30 23,8 °C 9,4 °C 46 % 66 % 1028,9 hPa 0,0 l/m² 9,0 km/h (2 Bft) S 178 ° 2 min 178 W/m² 3,4 °C 7,6 °C 12,9 km/h (3 Bft)
29.01.2024 14:32 23,8 °C 9,4 °C 46 % 65 % 1028,9 hPa 0,0 l/m² 7,7 km/h (2 Bft) S 189 ° 2 min 178 W/m² 3,2 °C 8,4 °C 9,7 km/h (2 Bft)
29.01.2024 14:34 23,7 °C 9,6 °C 45 % 66 % 1028,8 hPa 0,0 l/m² 7,8 km/h (2 Bft) SW 215 ° 2 min 181 W/m² 3,6 °C 8,6 °C 14,5 km/h (3 Bft)
29.01.2024 14:36 23,7 °C 9,6 °C 45 % 66 % 1028,8 hPa 0,0 l/m² 7,8 km/h (2 Bft) S-SW 204 ° 2 min 195 W/m² 3,6 °C 8,6 °C 9,7 km/h (2 Bft)
29.01.2024 14:38 23,7 °C 9,6 °C 45 % 66 % 1028,8 hPa 0,0 l/m² 7,0 km/h (2 Bft) S-SW 201 ° 2 min 200 W/m² 3,6 °C 9,2 °C 9,7 km/h (2 Bft)
29.01.2024 14:40 23,7 °C 9,7 °C 45 % 66 % 1028,9 hPa 0,0 l/m² 5,0 km/h (1 Bft) S-SW 203 ° 2 min 193 W/m² 3,7 °C 9,7 °C 8,0 km/h (2 Bft)
29.01.2024 14:42 23,7 °C 9,8 °C 45 % 65 % 1028,8 hPa 0,0 l/m² 4,4 km/h (1 Bft) S-SW 203 ° 2 min 193 W/m² 3,5 °C 9,8 °C 6,4 km/h (2 Bft)
29.01.2024 14:44 23,7 °C 9,9 °C 45 % 66 % 1028,9 hPa 0,0 l/m² 5,3 km/h (1 Bft) S-SW 203 ° 2 min 186 W/m² 3,9 °C 9,9 °C 8,0 km/h (2 Bft)
29.01.2024 14:46 23,7 °C 9,9 °C 45 % 65 % 1028,9 hPa 0,0 l/m² 6,8 km/h (2 Bft) SW 222 ° 2 min 188 W/m² 3,6 °C 9,6 °C 9,7 km/h (2 Bft)
29.01.2024 14:48 23,7 °C 10,0 °C 45 % 66 % 1028,9 hPa 0,0 l/m² 5,8 km/h (2 Bft) SW 225 ° 2 min 202 W/m² 3,9 °C 10,0 °C 8,0 km/h (2 Bft)
29.01.2024 14:50 23,7 °C 9,9 °C 45 % 66 % 1028,9 hPa 0,0 l/m² 6,6 km/h (2 Bft) SW 227 ° 2 min 207 W/m² 3,9 °C 9,8 °C 9,7 km/h (2 Bft)
29.01.2024 14:52 23,7 °C 9,9 °C 45 % 67 % 1028,9 hPa 0,0 l/m² 8,3 km/h (2 Bft) SW 224 ° 2 min 200 W/m² 4,1 °C 8,5 °C 11,3 km/h (2 Bft)
29.01.2024 14:54 23,7 °C 9,7 °C 46 % 68 % 1028,8 hPa 0,0 l/m² 8,0 km/h (2 Bft) SW 223 ° 2 min 185 W/m² 4,1 °C 8,5 °C 11,3 km/h (2 Bft)
29.01.2024 14:56 23,7 °C 9,6 °C 46 % 68 % 1028,9 hPa 0,0 l/m² 9,3 km/h (2 Bft) SW 219 ° 2 min 179 W/m² 4,0 °C 7,6 °C 11,3 km/h (2 Bft)
29.01.2024 14:58 23,7 °C 9,4 °C 46 % 68 % 1028,9 hPa 0,0 l/m² 9,5 km/h (2 Bft) SW 215 ° 2 min 167 W/m² 3,8 °C 7,2 °C 11,3 km/h (2 Bft)
29.01.2024 15:00 23,7 °C 9,3 °C 46 % 69 % 1028,9 hPa 0,0 l/m² 8,0 km/h (2 Bft) SW 215 ° 2 min 149 W/m² 3,9 °C 8,1 °C 9,7 km/h (2 Bft)
29.01.2024 15:02 23,6 °C 9,3 °C 46 % 68 % 1029,1 hPa 0,0 l/m² 7,6 km/h (2 Bft) SW 214 ° 2 min 141 W/m² 3,7 °C 8,4 °C 9,7 km/h (2 Bft)
29.01.2024 15:04 23,7 °C 9,3 °C 46 % 68 % 1029,0 hPa 0,0 l/m² 6,7 km/h (2 Bft) SW 221 ° 2 min 137 W/m² 3,7 °C 9,1 °C 9,7 km/h (2 Bft)
29.01.2024 15:06 23,7 °C 9,3 °C 46 % 68 % 1029,1 hPa 0,0 l/m² 5,7 km/h (2 Bft) SW 221 ° 2 min 151 W/m² 3,7 °C 9,3 °C 8,0 km/h (2 Bft)
29.01.2024 15:08 23,7 °C 9,3 °C 46 % 70 % 1029,0 hPa 0,0 l/m² 5,7 km/h (2 Bft) SW 221 ° 2 min 160 W/m² 4,1 °C 9,3 °C 8,0 km/h (2 Bft)
29.01.2024 15:10 23,6 °C 9,2 °C 46 % 70 % 1029,0 hPa 0,0 l/m² 6,5 km/h (2 Bft) SW 220 ° 2 min 153 W/m² 4,0 °C 9,2 °C 8,0 km/h (2 Bft)
29.01.2024 15:12 23,7 °C 9,2 °C 46 % 70 % 1029,0 hPa 0,0 l/m² 5,9 km/h (2 Bft) SW 221 ° 2 min 139 W/m² 4,0 °C 9,2 °C 8,0 km/h (2 Bft)
29.01.2024 15:14 23,7 °C 9,2 °C 46 % 69 % 1028,9 hPa 0,0 l/m² 6,1 km/h (2 Bft) SW 221 ° 2 min 127 W/m² 3,8 °C 9,2 °C 8,0 km/h (2 Bft)
29.01.2024 15:16 23,6 °C 9,2 °C 46 % 68 % 1029,0 hPa 0,0 l/m² 5,7 km/h (2 Bft) SW 221 ° 2 min 118 W/m² 3,6 °C 9,2 °C 8,0 km/h (2 Bft)
29.01.2024 15:18 23,6 °C 9,2 °C 46 % 68 % 1029,0 hPa 0,0 l/m² 5,8 km/h (2 Bft) SW 221 ° 2 min 120 W/m² 3,6 °C 9,2 °C 8,0 km/h (2 Bft)
29.01.2024 15:20 23,6 °C 9,2 °C 46 % 68 % 1029,0 hPa 0,0 l/m² 4,9 km/h (1 Bft) SW 221 ° 2 min 111 W/m² 3,6 °C 9,2 °C 6,4 km/h (2 Bft)
29.01.2024 15:22 23,6 °C 9,1 °C 46 % 68 % 1029,0 hPa 0,0 l/m² 5,4 km/h (2 Bft) SW 221 ° 2 min 113 W/m² 3,5 °C 9,1 °C 6,4 km/h (2 Bft)
29.01.2024 15:24 23,6 °C 9,1 °C 46 % 68 % 1029,0 hPa 0,0 l/m² 5,3 km/h (1 Bft) SW 221 ° 2 min 113 W/m² 3,5 °C 9,1 °C 8,0 km/h (2 Bft)
29.01.2024 15:26 23,6 °C 9,1 °C 46 % 68 % 1029,0 hPa 0,0 l/m² 5,3 km/h (1 Bft) SW 221 ° 2 min 109 W/m² 3,5 °C 9,1 °C 8,0 km/h (2 Bft)
29.01.2024 15:28 23,6 °C 9,1 °C 46 % 67 % 1029,1 hPa 0,0 l/m² 5,8 km/h (2 Bft) SW 222 ° 2 min 102 W/m² 3,3 °C 9,1 °C 8,0 km/h (2 Bft)
29.01.2024 15:30 23,6 °C 9,1 °C 46 % 67 % 1029,0 hPa 0,0 l/m² 5,4 km/h (2 Bft) SW 222 ° 2 min 93 W/m² 3,3 °C 9,1 °C 6,4 km/h (2 Bft)
29.01.2024 15:32 23,6 °C 9,1 °C 46 % 67 % 1029,1 hPa 0,0 l/m² 4,8 km/h (1 Bft) SW 222 ° 2 min 97 W/m² 3,3 °C 9,1 °C 6,4 km/h (2 Bft)
29.01.2024 15:34 23,6 °C 9,1 °C 46 % 67 % 1029,1 hPa 0,0 l/m² 4,6 km/h (1 Bft) SW 222 ° 2 min 93 W/m² 3,3 °C 9,1 °C 8,0 km/h (2 Bft)
29.01.2024 15:36 23,6 °C 9,2 °C 46 % 66 % 1029,1 hPa 0,0 l/m² 4,0 km/h (1 Bft) SW 222 ° 2 min 86 W/m² 3,2 °C 9,2 °C 6,4 km/h (2 Bft)
29.01.2024 15:38 23,6 °C 9,2 °C 46 % 66 % 1029,0 hPa 0,0 l/m² 4,0 km/h (1 Bft) SW 222 ° 2 min 83 W/m² 3,2 °C 9,2 °C 6,4 km/h (2 Bft)
29.01.2024 15:40 23,6 °C 9,1 °C 46 % 66 % 1029,0 hPa 0,0 l/m² 4,8 km/h (1 Bft) SW 222 ° 2 min 83 W/m² 3,1 °C 9,1 °C 6,4 km/h (2 Bft)
29.01.2024 15:42 23,6 °C 9,1 °C 46 % 66 % 1029,1 hPa 0,0 l/m² 5,0 km/h (1 Bft) SW 222 ° 2 min 83 W/m² 3,1 °C 9,1 °C 6,4 km/h (2 Bft)
29.01.2024 15:43 23,5 °C 9,1 °C 46 % 66 % 1029,0 hPa 0,0 l/m² 4,6 km/h (1 Bft) SW 222 ° 1 min 84 W/m² 3,1 °C 9,1 °C 6,4 km/h (2 Bft)
29.01.2024 15:44 23,6 °C 9,1 °C 46 % 66 % 1029,0 hPa 0,0 l/m² 3,2 km/h (1 Bft) SW 222 ° 1 min 84 W/m² 3,1 °C 9,1 °C 6,4 km/h (2 Bft)
29.01.2024 15:45 23,6 °C 9,1 °C 46 % 66 % 1029,0 hPa 0,0 l/m² 4,3 km/h (1 Bft) SW 222 ° 1 min 84 W/m² 3,1 °C 9,1 °C 6,4 km/h (2 Bft)
29.01.2024 15:47 23,5 °C 8,9 °C 46 % 67 % 1029,0 hPa 0,0 l/m² 5,0 km/h (1 Bft) SW 222 ° 2 min 81 W/m² 3,1 °C 8,9 °C 6,4 km/h (2 Bft)
29.01.2024 15:49 23,5 °C 8,8 °C 46 % 68 % 1029,0 hPa 0,0 l/m² 4,9 km/h (1 Bft) SW 222 ° 2 min 79 W/m² 3,2 °C 8,8 °C 6,4 km/h (2 Bft)
29.01.2024 15:51 23,5 °C 8,6 °C 46 % 69 % 1029,0 hPa 0,0 l/m² 7,2 km/h (2 Bft) SW 221 ° 2 min 69 W/m² 3,2 °C 8,0 °C 9,7 km/h (2 Bft)
29.01.2024 15:53 23,5 °C 8,6 °C 46 % 68 % 1029,0 hPa 0,0 l/m² 7,4 km/h (2 Bft) SW 219 ° 2 min 65 W/m² 3,0 °C 7,8 °C 9,7 km/h (2 Bft)
29.01.2024 15:55 23,4 °C 8,4 °C 46 % 70 % 1029,1 hPa 0,0 l/m² 7,9 km/h (2 Bft) SW 216 ° 2 min 65 W/m² 3,3 °C 7,2 °C 9,7 km/h (2 Bft)
29.01.2024 15:57 23,4 °C 8,2 °C 46 % 71 % 1028,9 hPa 0,0 l/m² 6,4 km/h (2 Bft) SW 215 ° 2 min 63 W/m² 3,3 °C 8,2 °C 8,0 km/h (2 Bft)
29.01.2024 15:59 23,4 °C 8,0 °C 46 % 71 % 1028,9 hPa 0,0 l/m² 5,7 km/h (2 Bft) SW 215 ° 2 min 62 W/m² 3,1 °C 8,0 °C 6,4 km/h (2 Bft)
29.01.2024 16:01 23,4 °C 7,9 °C 46 % 71 % 1028,9 hPa 0,0 l/m² 6,9 km/h (2 Bft) S-SW 206 ° 2 min 58 W/m² 3,0 °C 7,5 °C 9,7 km/h (2 Bft)
29.01.2024 16:03 23,4 °C 7,9 °C 46 % 71 % 1028,9 hPa 0,0 l/m² 5,5 km/h (2 Bft) S-SW 206 ° 0 min 51 W/m² 3,0 °C 7,9 °C 8,0 km/h (2 Bft)
29.01.2024 16:05 23,4 °C 7,9 °C 46 % 71 % 1028,9 hPa 0,0 l/m² 5,8 km/h (2 Bft) S-SW 206 ° 0 min 46 W/m² 3,0 °C 7,9 °C 8,0 km/h (2 Bft)
29.01.2024 16:07 23,4 °C 7,9 °C 46 % 71 % 1028,9 hPa 0,0 l/m² 4,5 km/h (1 Bft) S-SW 206 ° 0 min 42 W/m² 3,0 °C 7,9 °C 6,4 km/h (2 Bft)
29.01.2024 16:09 23,4 °C 7,8 °C 46 % 72 % 1028,9 hPa 0,0 l/m² 4,0 km/h (1 Bft) S-SW 206 ° 0 min 39 W/m² 3,1 °C 7,8 °C 6,4 km/h (2 Bft)
29.01.2024 16:11 23,4 °C 7,7 °C 46 % 72 % 1028,9 hPa 0,0 l/m² 3,4 km/h (1 Bft) S-SW 206 ° 0 min 35 W/m² 3,0 °C 7,7 °C 4,8 km/h (1 Bft)
29.01.2024 16:13 23,4 °C 7,7 °C 46 % 72 % 1028,9 hPa 0,0 l/m² 0,5 km/h (0 Bft) S-SW 206 ° 0 min 33 W/m² 3,0 °C 7,7 °C 4,8 km/h (1 Bft)
29.01.2024 16:15 23,4 °C 7,6 °C 46 % 72 % 1028,9 hPa 0,0 l/m² 0,0 km/h (0 Bft) S-SW 206 ° 0 min 30 W/m² 2,9 °C 7,6 °C 1,6 km/h (1 Bft)
29.01.2024 16:17 23,4 °C 7,6 °C 46 % 72 % 1028,9 hPa 0,0 l/m² 0,0 km/h (0 Bft) S-SW 206 ° 0 min 28 W/m² 2,9 °C 7,6 °C 0,0 km/h (0 Bft)
29.01.2024 16:19 23,3 °C 7,6 °C 46 % 72 % 1028,9 hPa 0,0 l/m² 0,0 km/h (0 Bft) S-SW 206 ° 0 min 26 W/m² 2,9 °C 7,6 °C 0,0 km/h (0 Bft)
29.01.2024 16:21 23,3 °C 7,7 °C 46 % 72 % 1029,0 hPa 0,0 l/m² 0,0 km/h (0 Bft) S-SW 206 ° 0 min 25 W/m² 3,0 °C 7,7 °C 0,0 km/h (0 Bft)
29.01.2024 16:23 23,3 °C 7,7 °C 46 % 72 % 1029,0 hPa 0,0 l/m² 0,0 km/h (0 Bft) S-SW 206 ° 0 min 23 W/m² 3,0 °C 7,7 °C 0,0 km/h (0 Bft)
29.01.2024 16:25 23,3 °C 7,7 °C 46 % 72 % 1029,0 hPa 0,0 l/m² 0,0 km/h (0 Bft) S-SW 206 ° 0 min 21 W/m² 3,0 °C 7,7 °C 0,0 km/h (0 Bft)
29.01.2024 16:27 23,3 °C 7,7 °C 46 % 72 % 1029,1 hPa 0,0 l/m² 0,2 km/h (0 Bft) S-SW 206 ° 0 min 21 W/m² 3,0 °C 7,7 °C 1,6 km/h (1 Bft)
29.01.2024 16:28 23,3 °C 7,7 °C 46 % 72 % 1029,1 hPa 0,0 l/m² 0,0 km/h (0 Bft) S-SW 206 ° 0 min 19 W/m² 3,0 °C 7,7 °C 0,0 km/h (0 Bft)
29.01.2024 16:29 23,3 °C 7,6 °C 46 % 72 % 1029,1 hPa 0,0 l/m² 0,0 km/h (0 Bft) S-SW 206 ° 0 min 19 W/m² 2,9 °C 7,6 °C 0,0 km/h (0 Bft)
29.01.2024 16:31 23,3 °C 7,4 °C 46 % 74 % 1029,0 hPa 0,0 l/m² 0,0 km/h (0 Bft) S-SW 206 ° 0 min 18 W/m² 3,1 °C 7,4 °C 0,0 km/h (0 Bft)
29.01.2024 16:33 23,3 °C 7,2 °C 46 % 74 % 1029,0 hPa 0,0 l/m² 0,1 km/h (0 Bft) S-SW 206 ° 0 min 16 W/m² 2,9 °C 7,2 °C 1,6 km/h (1 Bft)
29.01.2024 16:35 23,3 °C 7,1 °C 46 % 75 % 1029,1 hPa 0,0 l/m² 0,0 km/h (0 Bft) S-SW 206 ° 0 min 14 W/m² 3,0 °C 7,1 °C 0,0 km/h (0 Bft)
29.01.2024 16:37 23,3 °C 7,0 °C 46 % 75 % 1029,2 hPa 0,0 l/m² 0,0 km/h (0 Bft) S-SW 206 ° 0 min 14 W/m² 2,9 °C 7,0 °C 0,0 km/h (0 Bft)
29.01.2024 16:39 23,3 °C 6,9 °C 46 % 75 % 1029,1 hPa 0,0 l/m² 0,0 km/h (0 Bft) S-SW 206 ° 0 min 12 W/m² 2,8 °C 6,9 °C 0,0 km/h (0 Bft)
29.01.2024 16:41 23,3 °C 6,9 °C 46 % 75 % 1029,1 hPa 0,0 l/m² 0,0 km/h (0 Bft) S-SW 206 ° 0 min 11 W/m² 2,8 °C 6,9 °C 0,0 km/h (0 Bft)
29.01.2024 16:43 23,3 °C 6,8 °C 46 % 75 % 1029,1 hPa 0,0 l/m² 0,0 km/h (0 Bft) S-SW 206 ° 0 min 11 W/m² 2,7 °C 6,8 °C 0,0 km/h (0 Bft)
29.01.2024 16:45 23,3 °C 6,8 °C 46 % 75 % 1029,1 hPa 0,0 l/m² 0,0 km/h (0 Bft) S-SW 206 ° 0 min 9 W/m² 2,7 °C 6,8 °C 0,0 km/h (0 Bft)
29.01.2024 16:47 23,2 °C 6,8 °C 46 % 75 % 1029,1 hPa 0,0 l/m² 0,0 km/h (0 Bft) S-SW 206 ° 0 min 7 W/m² 2,7 °C 6,8 °C 0,0 km/h (0 Bft)
29.01.2024 16:48 23,2 °C 6,6 °C 46 % 75 % 1029,2 hPa 0,0 l/m² 0,0 km/h (0 Bft) S-SW 206 ° 0 min 5 W/m² 2,5 °C 6,6 °C 0,0 km/h (0 Bft)
29.01.2024 16:49 23,2 °C 6,4 °C 46 % 75 % 1029,1 hPa 0,0 l/m² 0,0 km/h (0 Bft) S-SW 206 ° 0 min 5 W/m² 2,3 °C 6,4 °C 0,0 km/h (0 Bft)
29.01.2024 16:50 23,2 °C 6,3 °C 46 % 76 % 1029,1 hPa 0,0 l/m² 0,0 km/h (0 Bft) S-SW 206 ° 0 min 5 W/m² 2,4 °C 6,3 °C 0,0 km/h (0 Bft)
29.01.2024 16:52 23,2 °C 6,1 °C 46 % 78 % 1029,1 hPa 0,0 l/m² 0,0 km/h (0 Bft) S-SW 206 ° 0 min 0 W/m² 2,6 °C 6,1 °C 0,0 km/h (0 Bft)
29.01.2024 16:54 23,2 °C 5,9 °C 46 % 78 % 1029,2 hPa 0,0 l/m² 0,0 km/h (0 Bft) S-SW 206 ° 0 min 0 W/m² 2,4 °C 5,9 °C 0,0 km/h (0 Bft)
29.01.2024 16:56 23,2 °C 5,8 °C 46 % 78 % 1029,2 hPa 0,0 l/m² 0,0 km/h (0 Bft) S-SW 206 ° 0 min 0 W/m² 2,3 °C 5,8 °C 0,0 km/h (0 Bft)
29.01.2024 16:58 23,2 °C 5,9 °C 46 % 77 % 1029,2 hPa 0,0 l/m² 0,0 km/h (0 Bft) S-SW 206 ° 0 min 0 W/m² 2,2 °C 5,9 °C 0,0 km/h (0 Bft)
29.01.2024 17:00 23,2 °C 5,9 °C 46 % 77 % 1029,2 hPa 0,0 l/m² 0,0 km/h (0 Bft) S-SW 206 ° 0 min 0 W/m² 2,2 °C 5,9 °C 0,0 km/h (0 Bft)
29.01.2024 17:02 23,2 °C 5,9 °C 46 % 77 % 1029,2 hPa 0,0 l/m² 0,0 km/h (0 Bft) S-SW 206 ° 0 min 0 W/m² 2,2 °C 5,9 °C 0,0 km/h (0 Bft)
29.01.2024 17:04 23,2 °C 5,9 °C 46 % 76 % 1029,3 hPa 0,0 l/m² 0,3 km/h (0 Bft) S-SW 206 ° 0 min 0 W/m² 2,0 °C 5,9 °C 1,6 km/h (1 Bft)
29.01.2024 17:06 23,2 °C 5,9 °C 46 % 76 % 1029,3 hPa 0,0 l/m² 0,6 km/h (0 Bft) S-SW 206 ° 0 min 0 W/m² 2,0 °C 5,9 °C 1,6 km/h (1 Bft)
29.01.2024 17:08 23,2 °C 5,8 °C 46 % 76 % 1029,3 hPa 0,0 l/m² 0,5 km/h (0 Bft) S-SW 206 ° 0 min 0 W/m² 1,9 °C 5,8 °C 3,2 km/h (1 Bft)
29.01.2024 17:10 23,2 °C 5,6 °C 46 % 76 % 1029,3 hPa 0,0 l/m² 0,1 km/h (0 Bft) S-SW 206 ° 0 min 0 W/m² 1,7 °C 5,6 °C 1,6 km/h (1 Bft)
29.01.2024 17:12 23,2 °C 5,6 °C 46 % 76 % 1029,4 hPa 0,0 l/m² 0,7 km/h (0 Bft) S-SW 206 ° 0 min 0 W/m² 1,7 °C 5,6 °C 3,2 km/h (1 Bft)
29.01.2024 17:14 23,2 °C 5,7 °C 46 % 76 % 1029,4 hPa 0,0 l/m² 0,1 km/h (0 Bft) S-SW 206 ° 0 min 0 W/m² 1,8 °C 5,7 °C 1,6 km/h (1 Bft)
29.01.2024 17:16 23,2 °C 5,7 °C 46 % 75 % 1029,5 hPa 0,0 l/m² 0,0 km/h (0 Bft) S-SW 206 ° 0 min 0 W/m² 1,6 °C 5,7 °C 0,0 km/h (0 Bft)
29.01.2024 17:18 23,1 °C 5,4 °C 47 % 76 % 1029,4 hPa 0,0 l/m² 0,0 km/h (0 Bft) S-SW 206 ° 0 min 0 W/m² 1,5 °C 5,4 °C 0,0 km/h (0 Bft)
29.01.2024 17:20 23,1 °C 5,2 °C 46 % 77 % 1029,4 hPa 0,0 l/m² 0,1 km/h (0 Bft) S-SW 206 ° 0 min 0 W/m² 1,5 °C 5,2 °C 1,6 km/h (1 Bft)
29.01.2024 17:22 23,1 °C 5,1 °C 47 % 77 % 1029,4 hPa 0,0 l/m² 0,0 km/h (0 Bft) S-SW 206 ° 0 min 0 W/m² 1,4 °C 5,1 °C 0,0 km/h (0 Bft)
29.01.2024 17:24 23,1 °C 4,7 °C 47 % 78 % 1029,5 hPa 0,0 l/m² 0,0 km/h (0 Bft) S-SW 206 ° 0 min 0 W/m² 1,2 °C 4,7 °C 0,0 km/h (0 Bft)
29.01.2024 17:26 23,1 °C 4,5 °C 46 % 79 % 1029,4 hPa 0,0 l/m² 1,4 km/h (1 Bft) S-SW 206 ° 0 min 0 W/m² 1,2 °C 4,5 °C 3,2 km/h (1 Bft)
29.01.2024 17:28 23,1 °C 4,5 °C 46 % 80 % 1029,6 hPa 0,0 l/m² 2,0 km/h (1 Bft) S-SW 206 ° 0 min 0 W/m² 1,4 °C 4,5 °C 3,2 km/h (1 Bft)
29.01.2024 17:30 23,1 °C 4,6 °C 45 % 80 % 1029,5 hPa 0,0 l/m² 0,1 km/h (0 Bft) S-SW 206 ° 0 min 0 W/m² 1,5 °C 4,6 °C 1,6 km/h (1 Bft)
29.01.2024 17:32 23,1 °C 4,8 °C 44 % 80 % 1029,5 hPa 0,0 l/m² 0,9 km/h (0 Bft) S-SW 206 ° 0 min 0 W/m² 1,6 °C 4,8 °C 3,2 km/h (1 Bft)
29.01.2024 17:34 23,1 °C 4,8 °C 43 % 79 % 1029,5 hPa 0,0 l/m² 2,9 km/h (1 Bft) S-SW 206 ° 0 min 0 W/m² 1,5 °C 4,8 °C 4,8 km/h (1 Bft)
29.01.2024 17:36 23,1 °C 4,9 °C 44 % 79 % 1029,5 hPa 0,0 l/m² 2,7 km/h (1 Bft) S-SW 206 ° 0 min 0 W/m² 1,6 °C 4,9 °C 4,8 km/h (1 Bft)
29.01.2024 17:38 23,0 °C 5,2 °C 44 % 79 % 1029,5 hPa 0,0 l/m² 0,9 km/h (0 Bft) S-SW 206 ° 0 min 0 W/m² 1,9 °C 5,2 °C 3,2 km/h (1 Bft)
29.01.2024 17:40 23,0 °C 5,2 °C 44 % 78 % 1029,5 hPa 0,0 l/m² 0,0 km/h (0 Bft) S-SW 206 ° 0 min 0 W/m² 1,7 °C 5,2 °C 0,0 km/h (0 Bft)
29.01.2024 17:42 23,0 °C 5,3 °C 45 % 78 % 1029,5 hPa 0,0 l/m² 0,0 km/h (0 Bft) S-SW 206 ° 0 min 0 W/m² 1,8 °C 5,3 °C 0,0 km/h (0 Bft)
29.01.2024 17:44 23,0 °C 5,3 °C 45 % 77 % 1029,5 hPa 0,0 l/m² 0,0 km/h (0 Bft) S-SW 206 ° 0 min 0 W/m² 1,6 °C 5,3 °C 0,0 km/h (0 Bft)
29.01.2024 17:46 23,0 °C 5,3 °C 45 % 77 % 1029,4 hPa 0,0 l/m² 0,0 km/h (0 Bft) S-SW 206 ° 0 min 0 W/m² 1,6 °C 5,3 °C 0,0 km/h (0 Bft)
29.01.2024 17:48 22,9 °C 5,2 °C 45 % 76 % 1029,5 hPa 0,0 l/m² 0,0 km/h (0 Bft) S-SW 206 ° 0 min 0 W/m² 1,3 °C 5,2 °C 0,0 km/h (0 Bft)
29.01.2024 17:50 22,9 °C 5,3 °C 45 % 76 % 1029,5 hPa 0,0 l/m² 0,1 km/h (0 Bft) S-SW 206 ° 0 min 0 W/m² 1,4 °C 5,3 °C 1,6 km/h (1 Bft)
29.01.2024 17:52 22,9 °C 5,2 °C 45 % 76 % 1029,5 hPa 0,0 l/m² 2,0 km/h (1 Bft) S-SW 206 ° 0 min 0 W/m² 1,3 °C 5,2 °C 6,4 km/h (2 Bft)
29.01.2024 17:54 22,9 °C 5,4 °C 45 % 75 % 1029,3 hPa 0,0 l/m² 3,5 km/h (1 Bft) S-SW 206 ° 0 min 0 W/m² 1,3 °C 5,4 °C 4,8 km/h (1 Bft)
29.01.2024 17:56 22,9 °C 5,3 °C 45 % 75 % 1029,4 hPa 0,0 l/m² 1,3 km/h (1 Bft) S-SW 206 ° 0 min 0 W/m² 1,2 °C 5,3 °C 4,8 km/h (1 Bft)
29.01.2024 17:58 22,9 °C 5,0 °C 44 % 76 % 1029,4 hPa 0,0 l/m² 0,5 km/h (0 Bft) S-SW 206 ° 0 min 0 W/m² 1,1 °C 5,0 °C 4,8 km/h (1 Bft)
29.01.2024 18:00 22,9 °C 5,0 °C 44 % 76 % 1029,4 hPa 0,0 l/m² 0,5 km/h (0 Bft) S-SW 206 ° 0 min 0 W/m² 1,1 °C 5,0 °C 3,2 km/h (1 Bft)
29.01.2024 18:02 22,9 °C 5,1 °C 44 % 76 % 1029,5 hPa 0,0 l/m² 0,1 km/h (0 Bft) S-SW 206 ° 0 min 0 W/m² 1,2 °C 5,1 °C 1,6 km/h (1 Bft)
29.01.2024 18:04 22,9 °C 5,1 °C 44 % 76 % 1029,4 hPa 0,0 l/m² 0,1 km/h (0 Bft) S-SW 206 ° 0 min 0 W/m² 1,2 °C 5,1 °C 1,6 km/h (1 Bft)
29.01.2024 18:06 22,9 °C 5,2 °C 45 % 76 % 1029,5 hPa 0,0 l/m² 0,0 km/h (0 Bft) S-SW 206 ° 0 min 0 W/m² 1,3 °C 5,2 °C 0,0 km/h (0 Bft)
29.01.2024 18:08 22,9 °C 5,2 °C 45 % 75 % 1029,5 hPa 0,0 l/m² 0,0 km/h (0 Bft) S-SW 206 ° 0 min 0 W/m² 1,1 °C 5,2 °C 0,0 km/h (0 Bft)
29.01.2024 18:10 22,9 °C 5,3 °C 45 % 75 % 1029,5 hPa 0,0 l/m² 1,0 km/h (0 Bft) S-SW 206 ° 0 min 0 W/m² 1,2 °C 5,3 °C 3,2 km/h (1 Bft)
29.01.2024 18:12 22,9 °C 5,2 °C 45 % 75 % 1029,5 hPa 0,0 l/m² 1,4 km/h (1 Bft) S-SW 206 ° 0 min 0 W/m² 1,1 °C 5,2 °C 1,6 km/h (1 Bft)
29.01.2024 18:14 22,9 °C 5,2 °C 45 % 75 % 1029,4 hPa 0,0 l/m² 1,8 km/h (1 Bft) S-SW 206 ° 0 min 0 W/m² 1,1 °C 5,2 °C 3,2 km/h (1 Bft)
29.01.2024 18:16 22,9 °C 5,2 °C 45 % 75 % 1029,4 hPa 0,0 l/m² 1,9 km/h (1 Bft) S-SW 206 ° 0 min 0 W/m² 1,1 °C 5,2 °C 3,2 km/h (1 Bft)
29.01.2024 18:18 22,9 °C 4,9 °C 46 % 75 % 1029,5 hPa 0,0 l/m² 2,0 km/h (1 Bft) S-SW 206 ° 0 min 0 W/m² 0,8 °C 4,9 °C 4,8 km/h (1 Bft)
29.01.2024 18:20 22,9 °C 4,8 °C 46 % 75 % 1029,5 hPa 0,0 l/m² 2,0 km/h (1 Bft) S-SW 206 ° 0 min 0 W/m² 0,8 °C 4,8 °C 4,8 km/h (1 Bft)
29.01.2024 18:22 22,9 °C 4,8 °C 46 % 76 % 1029,4 hPa 0,0 l/m² 4,3 km/h (1 Bft) S-SO 165 ° 0 min 0 W/m² 0,9 °C 4,8 °C 9,7 km/h (2 Bft)
29.01.2024 18:24 22,9 °C 5,0 °C 46 % 76 % 1029,4 hPa 0,0 l/m² 0,5 km/h (0 Bft) S-SO 165 ° 0 min 0 W/m² 1,1 °C 5,0 °C 1,6 km/h (1 Bft)
29.01.2024 18:26 22,9 °C 4,9 °C 46 % 75 % 1029,5 hPa 0,0 l/m² 2,9 km/h (1 Bft) S-SO 165 ° 0 min 0 W/m² 0,8 °C 4,9 °C 6,4 km/h (2 Bft)
29.01.2024 18:28 22,9 °C 4,7 °C 46 % 76 % 1029,5 hPa 0,0 l/m² 4,1 km/h (1 Bft) S-SO 164 ° 0 min 0 W/m² 0,8 °C 4,7 °C 8,0 km/h (2 Bft)
29.01.2024 18:30 22,9 °C 4,5 °C 46 % 77 % 1029,5 hPa 0,0 l/m² 6,4 km/h (2 Bft) S-SO 159 ° 0 min 0 W/m² 0,8 °C 4,5 °C 9,7 km/h (2 Bft)
29.01.2024 18:32 22,9 °C 4,7 °C 46 % 78 % 1029,5 hPa 0,0 l/m² 3,6 km/h (1 Bft) S-SO 158 ° 0 min 0 W/m² 1,2 °C 4,7 °C 8,0 km/h (2 Bft)
29.01.2024 18:34 22,9 °C 4,9 °C 46 % 77 % 1029,4 hPa 0,0 l/m² 5,8 km/h (2 Bft) S-SO 157 ° 0 min 0 W/m² 1,2 °C 4,9 °C 8,0 km/h (2 Bft)
29.01.2024 18:36 22,9 °C 4,9 °C 47 % 76 % 1029,4 hPa 0,0 l/m² 6,8 km/h (2 Bft) S-SO 153 ° 0 min 0 W/m² 1,0 °C 4,6 °C 11,3 km/h (2 Bft)
29.01.2024 18:38 22,9 °C 4,8 °C 47 % 77 % 1029,4 hPa 0,0 l/m² 6,0 km/h (2 Bft) S-SO 153 ° 0 min 0 W/m² 1,1 °C 4,8 °C 8,0 km/h (2 Bft)
29.01.2024 18:40 22,9 °C 4,4 °C 46 % 76 % 1029,4 hPa 0,0 l/m² 3,6 km/h (1 Bft) S-SO 153 ° 0 min 0 W/m² 0,5 °C 4,4 °C 6,4 km/h (2 Bft)
29.01.2024 18:42 22,9 °C 4,2 °C 46 % 78 % 1029,5 hPa 0,0 l/m² 2,7 km/h (1 Bft) S-SO 153 ° 0 min 0 W/m² 0,7 °C 4,2 °C 4,8 km/h (1 Bft)
29.01.2024 18:44 22,9 °C 4,1 °C 46 % 79 % 1029,4 hPa 0,0 l/m² 1,7 km/h (1 Bft) S-SO 153 ° 0 min 0 W/m² 0,8 °C 4,1 °C 4,8 km/h (1 Bft)
29.01.2024 18:47 22,9 °C 4,0 °C 47 % 79 % 1029,4 hPa 0,0 l/m² 2,2 km/h (1 Bft) S-SO 153 ° 0 min 0 W/m² 0,7 °C 4,0 °C 4,8 km/h (1 Bft)
29.01.2024 18:49 22,9 °C 3,9 °C 47 % 79 % 1029,5 hPa 0,0 l/m² 2,5 km/h (1 Bft) S-SO 153 ° 0 min 0 W/m² 0,6 °C 3,9 °C 3,2 km/h (1 Bft)
29.01.2024 18:51 22,8 °C 4,0 °C 47 % 79 % 1029,5 hPa 0,0 l/m² 3,2 km/h (1 Bft) S-SO 153 ° 0 min 0 W/m² 0,7 °C 4,0 °C 4,8 km/h (1 Bft)
29.01.2024 18:53 22,9 °C 4,0 °C 47 % 79 % 1029,5 hPa 0,0 l/m² 3,3 km/h (1 Bft) S-SO 153 ° 0 min 0 W/m² 0,7 °C 4,0 °C 4,8 km/h (1 Bft)
29.01.2024 18:55 22,9 °C 3,9 °C 47 % 79 % 1029,5 hPa 0,0 l/m² 4,0 km/h (1 Bft) S-SO 153 ° 0 min 0 W/m² 0,6 °C 3,9 °C 4,8 km/h (1 Bft)
29.01.2024 18:57 22,8 °C 3,8 °C 47 % 79 % 1029,5 hPa 0,0 l/m² 3,7 km/h (1 Bft) S-SO 153 ° 0 min 0 W/m² 0,5 °C 3,8 °C 4,8 km/h (1 Bft)
29.01.2024 18:59 22,9 °C 3,8 °C 47 % 80 % 1029,5 hPa 0,0 l/m² 4,5 km/h (1 Bft) S-SO 153 ° 0 min 0 W/m² 0,7 °C 3,8 °C 6,4 km/h (2 Bft)
29.01.2024 19:01 22,8 °C 3,8 °C 46 % 80 % 1029,5 hPa 0,0 l/m² 3,4 km/h (1 Bft) S-SO 153 ° 0 min 0 W/m² 0,7 °C 3,8 °C 4,8 km/h (1 Bft)
29.01.2024 19:03 22,8 °C 4,0 °C 46 % 80 % 1029,5 hPa 0,0 l/m² 1,0 km/h (0 Bft) S-SO 153 ° 0 min 0 W/m² 0,9 °C 4,0 °C 3,2 km/h (1 Bft)
29.01.2024 19:05 22,8 °C 4,1 °C 47 % 79 % 1029,5 hPa 0,0 l/m² 0,7 km/h (0 Bft) S-SO 153 ° 0 min 0 W/m² 0,8 °C 4,1 °C 3,2 km/h (1 Bft)
29.01.2024 19:07 22,8 °C 4,3 °C 47 % 79 % 1029,5 hPa 0,0 l/m² 0,5 km/h (0 Bft) S-SO 153 ° 0 min 0 W/m² 1,0 °C 4,3 °C 3,2 km/h (1 Bft)
29.01.2024 19:09 22,8 °C 4,6 °C 47 % 78 % 1029,6 hPa 0,0 l/m² 2,0 km/h (1 Bft) S-SO 153 ° 0 min 0 W/m² 1,1 °C 4,6 °C 4,8 km/h (1 Bft)
29.01.2024 19:11 22,8 °C 4,7 °C 47 % 78 % 1029,6 hPa 0,0 l/m² 0,6 km/h (0 Bft) S-SO 153 ° 0 min 0 W/m² 1,2 °C 4,7 °C 3,2 km/h (1 Bft)
29.01.2024 19:13 22,8 °C 4,7 °C 47 % 77 % 1029,6 hPa 0,0 l/m² 0,4 km/h (0 Bft) S-SO 153 ° 0 min 0 W/m² 1,0 °C 4,7 °C 3,2 km/h (1 Bft)
29.01.2024 19:15 22,8 °C 4,9 °C 47 % 77 % 1029,6 hPa 0,0 l/m² 2,6 km/h (1 Bft) S-SO 153 ° 0 min 0 W/m² 1,2 °C 4,9 °C 4,8 km/h (1 Bft)
29.01.2024 19:17 22,8 °C 5,1 °C 47 % 76 % 1029,6 hPa 0,0 l/m² 3,2 km/h (1 Bft) S-SO 153 ° 0 min 0 W/m² 1,2 °C 5,1 °C 4,8 km/h (1 Bft)
29.01.2024 19:19 22,8 °C 5,1 °C 47 % 76 % 1029,5 hPa 0,0 l/m² 0,5 km/h (0 Bft) S-SO 153 ° 0 min 0 W/m² 1,2 °C 5,1 °C 3,2 km/h (1 Bft)
29.01.2024 19:21 22,8 °C 5,0 °C 47 % 75 % 1029,5 hPa 0,0 l/m² 0,2 km/h (0 Bft) S-SO 153 ° 0 min 0 W/m² 0,9 °C 5,0 °C 1,6 km/h (1 Bft)
29.01.2024 19:23 22,8 °C 5,0 °C 47 % 75 % 1029,5 hPa 0,0 l/m² 0,1 km/h (0 Bft) S-SO 153 ° 0 min 0 W/m² 0,9 °C 5,0 °C 1,6 km/h (1 Bft)
29.01.2024 19:25 22,8 °C 5,0 °C 47 % 75 % 1029,5 hPa 0,0 l/m² 0,8 km/h (0 Bft) S-SO 153 ° 0 min 0 W/m² 0,9 °C 5,0 °C 3,2 km/h (1 Bft)
29.01.2024 19:27 22,8 °C 5,1 °C 47 % 75 % 1029,5 hPa 0,0 l/m² 0,9 km/h (0 Bft) S-SO 153 ° 0 min 0 W/m² 1,0 °C 5,1 °C 4,8 km/h (1 Bft)
29.01.2024 19:29 22,8 °C 5,1 °C 47 % 75 % 1029,5 hPa 0,0 l/m² 2,0 km/h (1 Bft) S-SO 153 ° 0 min 0 W/m² 1,0 °C 5,1 °C 3,2 km/h (1 Bft)
29.01.2024 19:31 22,8 °C 5,2 °C 47 % 75 % 1029,5 hPa 0,0 l/m² 1,3 km/h (1 Bft) S-SO 153 ° 0 min 0 W/m² 1,1 °C 5,2 °C 4,8 km/h (1 Bft)
29.01.2024 19:33 22,8 °C 5,1 °C 47 % 75 % 1029,6 hPa 0,0 l/m² 2,4 km/h (1 Bft) S-SO 153 ° 0 min 0 W/m² 1,0 °C 5,1 °C 3,2 km/h (1 Bft)
29.01.2024 19:35 22,8 °C 5,1 °C 47 % 75 % 1029,8 hPa 0,0 l/m² 1,9 km/h (1 Bft) S-SO 153 ° 0 min 0 W/m² 1,0 °C 5,1 °C 3,2 km/h (1 Bft)
29.01.2024 19:37 22,8 °C 5,2 °C 47 % 75 % 1029,7 hPa 0,0 l/m² 0,0 km/h (0 Bft) S-SO 153 ° 0 min 0 W/m² 1,1 °C 5,2 °C 0,0 km/h (0 Bft)
29.01.2024 19:39 22,8 °C 5,1 °C 47 % 74 % 1029,7 hPa 0,0 l/m² 0,7 km/h (0 Bft) S-SO 153 ° 0 min 0 W/m² 0,9 °C 5,1 °C 3,2 km/h (1 Bft)
29.01.2024 19:41 22,8 °C 4,9 °C 47 % 75 % 1029,7 hPa 0,0 l/m² 0,4 km/h (0 Bft) S-SO 153 ° 0 min 0 W/m² 0,8 °C 4,9 °C 3,2 km/h (1 Bft)
29.01.2024 19:43 22,8 °C 4,8 °C 47 % 75 % 1029,7 hPa 0,0 l/m² 0,0 km/h (0 Bft) S-SO 153 ° 0 min 0 W/m² 0,8 °C 4,8 °C 0,0 km/h (0 Bft)
29.01.2024 19:45 22,8 °C 4,7 °C 47 % 76 % 1029,8 hPa 0,0 l/m² 0,0 km/h (0 Bft) S-SO 153 ° 0 min 0 W/m² 0,8 °C 4,7 °C 0,0 km/h (0 Bft)
29.01.2024 19:47 22,8 °C 4,6 °C 47 % 76 % 1029,8 hPa 0,0 l/m² 0,3 km/h (0 Bft) S-SO 153 ° 0 min 0 W/m² 0,7 °C 4,6 °C 1,6 km/h (1 Bft)
29.01.2024 19:49 22,8 °C 4,4 °C 47 % 76 % 1029,8 hPa 0,0 l/m² 0,0 km/h (0 Bft) S-SO 153 ° 0 min 0 W/m² 0,5 °C 4,4 °C 0,0 km/h (0 Bft)
29.01.2024 19:51 22,8 °C 4,2 °C 47 % 77 % 1029,9 hPa 0,0 l/m² 0,0 km/h (0 Bft) S-SO 153 ° 0 min 0 W/m² 0,5 °C 4,2 °C 0,0 km/h (0 Bft)
29.01.2024 19:53 22,8 °C 4,1 °C 47 % 77 % 1029,8 hPa 0,0 l/m² 0,0 km/h (0 Bft) S-SO 153 ° 0 min 0 W/m² 0,4 °C 4,1 °C 0,0 km/h (0 Bft)
29.01.2024 19:55 22,8 °C 4,1 °C 46 % 78 % 1029,8 hPa 0,0 l/m² 0,0 km/h (0 Bft) S-SO 153 ° 0 min 0 W/m² 0,6 °C 4,1 °C 0,0 km/h (0 Bft)
29.01.2024 19:57 22,8 °C 3,8 °C 46 % 77 % 1029,8 hPa 0,0 l/m² 0,0 km/h (0 Bft) S-SO 153 ° 0 min 0 W/m² 0,1 °C 3,8 °C 0,0 km/h (0 Bft)
29.01.2024 19:59 22,8 °C 3,4 °C 46 % 78 % 1029,9 hPa 0,0 l/m² 0,0 km/h (0 Bft) S-SO 153 ° 0 min 0 W/m² -0,1 °C 3,4 °C 0,0 km/h (0 Bft)
29.01.2024 20:01 22,7 °C 3,2 °C 46 % 79 % 1029,8 hPa 0,0 l/m² 1,9 km/h (1 Bft) S-SO 153 ° 0 min 0 W/m² -0,1 °C 3,2 °C 4,8 km/h (1 Bft)
29.01.2024 20:03 22,8 °C 3,1 °C 46 % 80 % 1029,8 hPa 0,0 l/m² 3,0 km/h (1 Bft) S-SO 153 ° 0 min 0 W/m² -0,0 °C 3,1 °C 4,8 km/h (1 Bft)
29.01.2024 20:05 22,7 °C 3,1 °C 46 % 80 % 1029,8 hPa 0,0 l/m² 4,9 km/h (1 Bft) S-SO 152 ° 0 min 0 W/m² -0,0 °C 3,1 °C 8,0 km/h (2 Bft)
29.01.2024 20:07 22,7 °C 3,1 °C 45 % 81 % 1029,8 hPa 0,0 l/m² 2,8 km/h (1 Bft) S-SO 152 ° 0 min 0 W/m² 0,2 °C 3,1 °C 6,4 km/h (2 Bft)
29.01.2024 20:09 22,7 °C 3,1 °C 45 % 81 % 1029,8 hPa 0,0 l/m² 1,2 km/h (1 Bft) S-SO 152 ° 0 min 0 W/m² 0,2 °C 3,1 °C 3,2 km/h (1 Bft)
29.01.2024 20:11 22,7 °C 3,1 °C 45 % 81 % 1029,9 hPa 0,0 l/m² 0,0 km/h (0 Bft) S-SO 152 ° 0 min 0 W/m² 0,2 °C 3,1 °C 0,0 km/h (0 Bft)
29.01.2024 20:13 22,7 °C 3,3 °C 45 % 82 % 1029,9 hPa 0,0 l/m² 0,1 km/h (0 Bft) S-SO 152 ° 0 min 0 W/m² 0,5 °C 3,3 °C 1,6 km/h (1 Bft)
29.01.2024 20:15 22,7 °C 3,4 °C 45 % 81 % 1029,9 hPa 0,0 l/m² 1,5 km/h (1 Bft) S-SO 152 ° 0 min 0 W/m² 0,5 °C 3,4 °C 3,2 km/h (1 Bft)
29.01.2024 20:17 22,7 °C 3,4 °C 45 % 81 % 1029,8 hPa 0,0 l/m² 1,5 km/h (1 Bft) S-SO 152 ° 0 min 0 W/m² 0,5 °C 3,4 °C 3,2 km/h (1 Bft)
29.01.2024 20:19 22,7 °C 3,5 °C 45 % 81 % 1029,8 hPa 0,0 l/m² 0,6 km/h (0 Bft) S-SO 152 ° 0 min 0 W/m² 0,6 °C 3,5 °C 1,6 km/h (1 Bft)
29.01.2024 20:21 22,7 °C 3,7 °C 45 % 81 % 1029,9 hPa 0,0 l/m² 1,4 km/h (1 Bft) S-SO 152 ° 0 min 0 W/m² 0,7 °C 3,7 °C 3,2 km/h (1 Bft)
29.01.2024 20:23 22,7 °C 3,8 °C 45 % 80 % 1029,8 hPa 0,0 l/m² 1,4 km/h (1 Bft) S-SO 152 ° 0 min 0 W/m² 0,7 °C 3,8 °C 3,2 km/h (1 Bft)
29.01.2024 20:25 22,7 °C 3,8 °C 46 % 80 % 1029,8 hPa 0,0 l/m² 0,7 km/h (0 Bft) S-SO 152 ° 0 min 0 W/m² 0,7 °C 3,8 °C 1,6 km/h (1 Bft)
29.01.2024 20:27 22,7 °C 3,8 °C 46 % 80 % 1029,8 hPa 0,0 l/m² 0,8 km/h (0 Bft) S-SO 152 ° 0 min 0 W/m² 0,7 °C 3,8 °C 3,2 km/h (1 Bft)
29.01.2024 20:29 22,7 °C 3,7 °C 46 % 80 % 1029,8 hPa 0,0 l/m² 0,0 km/h (0 Bft) S-SO 152 ° 0 min 0 W/m² 0,6 °C 3,7 °C 0,0 km/h (0 Bft)
29.01.2024 20:31 22,7 °C 3,7 °C 46 % 80 % 1029,8 hPa 0,0 l/m² 0,0 km/h (0 Bft) S-SO 152 ° 0 min 0 W/m² 0,6 °C 3,7 °C 0,0 km/h (0 Bft)
29.01.2024 20:33 22,7 °C 3,6 °C 46 % 80 % 1029,8 hPa 0,0 l/m² 0,3 km/h (0 Bft) S-SO 152 ° 0 min 0 W/m² 0,5 °C 3,6 °C 1,6 km/h (1 Bft)
29.01.2024 20:35 22,8 °C 3,6 °C 46 % 80 % 1029,8 hPa 0,0 l/m² 0,7 km/h (0 Bft) S-SO 152 ° 0 min 0 W/m² 0,5 °C 3,6 °C 3,2 km/h (1 Bft)
29.01.2024 20:37 22,8 °C 3,7 °C 46 % 80 % 1029,8 hPa 0,0 l/m² 3,7 km/h (1 Bft) S-SO 152 ° 0 min 0 W/m² 0,6 °C 3,7 °C 6,4 km/h (2 Bft)
29.01.2024 20:39 22,8 °C 3,6 °C 46 % 79 % 1029,9 hPa 0,0 l/m² 2,0 km/h (1 Bft) S-SO 153 ° 0 min 0 W/m² 0,3 °C 3,6 °C 6,4 km/h (2 Bft)
29.01.2024 20:41 22,8 °C 3,6 °C 46 % 80 % 1030,0 hPa 0,0 l/m² 0,0 km/h (0 Bft) S-SO 153 ° 0 min 0 W/m² 0,5 °C 3,6 °C 0,0 km/h (0 Bft)
29.01.2024 20:43 22,8 °C 3,6 °C 46 % 80 % 1030,0 hPa 0,0 l/m² 0,0 km/h (0 Bft) S-SO 153 ° 0 min 0 W/m² 0,5 °C 3,6 °C 0,0 km/h (0 Bft)
29.01.2024 20:45 22,8 °C 3,4 °C 46 % 79 % 1030,0 hPa 0,0 l/m² 0,0 km/h (0 Bft) S-SO 153 ° 0 min 0 W/m² 0,1 °C 3,4 °C 0,0 km/h (0 Bft)
29.01.2024 20:47 22,8 °C 3,3 °C 46 % 80 % 1030,0 hPa 0,0 l/m² 0,1 km/h (0 Bft) S-SO 153 ° 0 min 0 W/m² 0,2 °C 3,3 °C 1,6 km/h (1 Bft)
29.01.2024 20:49 22,8 °C 3,3 °C 46 % 80 % 1030,0 hPa 0,0 l/m² 0,0 km/h (0 Bft) S-SO 153 ° 0 min 0 W/m² 0,2 °C 3,3 °C 0,0 km/h (0 Bft)
29.01.2024 20:51 22,8 °C 3,2 °C 46 % 80 % 1029,9 hPa 0,0 l/m² 0,7 km/h (0 Bft) S-SO 153 ° 0 min 0 W/m² 0,1 °C 3,2 °C 1,6 km/h (1 Bft)
29.01.2024 20:53 22,8 °C 3,1 °C 46 % 81 % 1030,0 hPa 0,0 l/m² 2,2 km/h (1 Bft) S-SO 153 ° 0 min 0 W/m² 0,2 °C 3,1 °C 3,2 km/h (1 Bft)
29.01.2024 20:55 22,8 °C 3,1 °C 47 % 81 % 1029,9 hPa 0,0 l/m² 1,1 km/h (1 Bft) S-SO 153 ° 0 min 0 W/m² 0,2 °C 3,1 °C 4,8 km/h (1 Bft)
29.01.2024 20:57 22,8 °C 3,1 °C 47 % 81 % 1030,0 hPa 0,0 l/m² 3,2 km/h (1 Bft) S-SO 153 ° 0 min 0 W/m² 0,2 °C 3,1 °C 4,8 km/h (1 Bft)
29.01.2024 20:59 22,8 °C 3,1 °C 47 % 81 % 1030,0 hPa 0,0 l/m² 3,8 km/h (1 Bft) S-SO 153 ° 0 min 0 W/m² 0,2 °C 3,1 °C 6,4 km/h (2 Bft)
29.01.2024 21:01 22,8 °C 3,0 °C 47 % 82 % 1030,0 hPa 0,0 l/m² 4,2 km/h (1 Bft) S-SO 153 ° 0 min 0 W/m² 0,2 °C 3,0 °C 4,8 km/h (1 Bft)
29.01.2024 21:03 22,8 °C 3,1 °C 47 % 82 % 1030,0 hPa 0,0 l/m² 3,9 km/h (1 Bft) S-SO 153 ° 0 min 0 W/m² 0,3 °C 3,1 °C 4,8 km/h (1 Bft)
29.01.2024 21:05 22,8 °C 3,1 °C 47 % 82 % 1030,1 hPa 0,0 l/m² 3,2 km/h (1 Bft) S-SO 153 ° 0 min 0 W/m² 0,3 °C 3,1 °C 4,8 km/h (1 Bft)
29.01.2024 21:07 22,8 °C 3,2 °C 47 % 82 % 1030,0 hPa 0,0 l/m² 1,7 km/h (1 Bft) S-SO 153 ° 0 min 0 W/m² 0,4 °C 3,2 °C 3,2 km/h (1 Bft)
29.01.2024 21:09 22,9 °C 3,2 °C 47 % 81 % 1029,9 hPa 0,0 l/m² 0,1 km/h (0 Bft) S-SO 153 ° 0 min 0 W/m² 0,3 °C 3,2 °C 1,6 km/h (1 Bft)
29.01.2024 21:11 22,9 °C 3,3 °C 47 % 81 % 1030,0 hPa 0,0 l/m² 0,2 km/h (0 Bft) S-SO 153 ° 0 min 0 W/m² 0,4 °C 3,3 °C 1,6 km/h (1 Bft)
29.01.2024 21:13 22,9 °C 3,3 °C 47 % 81 % 1030,0 hPa 0,0 l/m² 0,0 km/h (0 Bft) S-SO 153 ° 0 min 0 W/m² 0,4 °C 3,3 °C 1,6 km/h (1 Bft)
29.01.2024 21:15 22,8 °C 3,3 °C 47 % 81 % 1030,0 hPa 0,0 l/m² 0,0 km/h (0 Bft) S-SO 153 ° 0 min 0 W/m² 0,4 °C 3,3 °C 0,0 km/h (0 Bft)
29.01.2024 21:17 22,9 °C 3,3 °C 47 % 81 % 1030,0 hPa 0,0 l/m² 0,0 km/h (0 Bft) S-SO 153 ° 0 min 0 W/m² 0,4 °C 3,3 °C 0,0 km/h (0 Bft)
29.01.2024 21:19 22,9 °C 3,2 °C 47 % 81 % 1030,0 hPa 0,0 l/m² 1,4 km/h (1 Bft) S-SO 153 ° 0 min 0 W/m² 0,3 °C 3,2 °C 3,2 km/h (1 Bft)
29.01.2024 21:21 22,8 °C 3,1 °C 47 % 81 % 1030,0 hPa 0,0 l/m² 1,3 km/h (1 Bft) S-SO 153 ° 0 min 0 W/m² 0,2 °C 3,1 °C 3,2 km/h (1 Bft)
29.01.2024 21:23 22,8 °C 2,7 °C 47 % 81 % 1029,9 hPa 0,0 l/m² 1,7 km/h (1 Bft) S-SO 153 ° 0 min 0 W/m² -0,2 °C 2,7 °C 4,8 km/h (1 Bft)
29.01.2024 21:25 22,9 °C 2,6 °C 47 % 81 % 1030,0 hPa 0,0 l/m² 0,4 km/h (0 Bft) S-SO 153 ° 0 min 0 W/m² -0,3 °C 2,6 °C 1,6 km/h (1 Bft)
29.01.2024 21:27 22,9 °C 2,6 °C 47 % 82 % 1030,0 hPa 0,0 l/m² 1,1 km/h (1 Bft) S-SO 155 ° 0 min 0 W/m² -0,2 °C 2,6 °C 4,8 km/h (1 Bft)
29.01.2024 21:29 22,9 °C 3,1 °C 47 % 84 % 1030,0 hPa 0,0 l/m² 3,2 km/h (1 Bft) S 187 ° 0 min 0 W/m² 0,7 °C 3,1 °C 9,7 km/h (2 Bft)
29.01.2024 21:31 22,9 °C 3,4 °C 47 % 83 % 1029,9 hPa 0,0 l/m² 5,0 km/h (1 Bft) S-SO 166 ° 0 min 0 W/m² 0,8 °C 3,4 °C 9,7 km/h (2 Bft)
29.01.2024 21:33 22,9 °C 3,3 °C 47 % 81 % 1029,9 hPa 0,0 l/m² 4,2 km/h (1 Bft) S-SO 166 ° 0 min 0 W/m² 0,4 °C 3,3 °C 6,4 km/h (2 Bft)
29.01.2024 21:35 22,9 °C 3,3 °C 47 % 81 % 1030,0 hPa 0,0 l/m² 3,4 km/h (1 Bft) S-SO 166 ° 0 min 0 W/m² 0,4 °C 3,3 °C 4,8 km/h (1 Bft)
29.01.2024 21:37 22,9 °C 3,2 °C 47 % 81 % 1029,9 hPa 0,0 l/m² 2,1 km/h (1 Bft) S-SO 166 ° 0 min 0 W/m² 0,3 °C 3,2 °C 6,4 km/h (2 Bft)
29.01.2024 21:39 22,9 °C 3,2 °C 47 % 82 % 1029,9 hPa 0,0 l/m² 0,3 km/h (0 Bft) S-SO 166 ° 0 min 0 W/m² 0,4 °C 3,2 °C 4,8 km/h (1 Bft)
29.01.2024 21:41 22,9 °C 3,2 °C 47 % 82 % 1029,8 hPa 0,0 l/m² 0,3 km/h (0 Bft) S-SO 166 ° 0 min 0 W/m² 0,4 °C 3,2 °C 1,6 km/h (1 Bft)
29.01.2024 21:43 22,9 °C 3,1 °C 47 % 82 % 1030,0 hPa 0,0 l/m² 0,0 km/h (0 Bft) S-SO 166 ° 0 min 0 W/m² 0,3 °C 3,1 °C 0,0 km/h (0 Bft)
29.01.2024 21:46 22,9 °C 3,3 °C 47 % 82 % 1030,0 hPa 0,0 l/m² 0,0 km/h (0 Bft) S-SO 166 ° 0 min 0 W/m² 0,5 °C 3,3 °C 0,0 km/h (0 Bft)
29.01.2024 21:48 22,9 °C 3,4 °C 47 % 82 % 1030,1 hPa 0,0 l/m² 0,0 km/h (0 Bft) S-SO 166 ° 0 min 0 W/m² 0,6 °C 3,4 °C 1,6 km/h (1 Bft)
29.01.2024 21:50 22,9 °C 3,6 °C 47 % 82 % 1030,0 hPa 0,0 l/m² 0,0 km/h (0 Bft) S-SO 166 ° 0 min 0 W/m² 0,8 °C 3,6 °C 0,0 km/h (0 Bft)
29.01.2024 21:52 22,9 °C 3,6 °C 47 % 81 % 1030,0 hPa 0,0 l/m² 0,0 km/h (0 Bft) S-SO 166 ° 0 min 0 W/m² 0,7 °C 3,6 °C 0,0 km/h (0 Bft)
29.01.2024 21:54 22,9 °C 3,4 °C 47 % 81 % 1030,0 hPa 0,0 l/m² 0,0 km/h (0 Bft) S-SO 166 ° 0 min 0 W/m² 0,5 °C 3,4 °C 0,0 km/h (0 Bft)
29.01.2024 21:56 22,9 °C 3,4 °C 47 % 81 % 1030,0 hPa 0,0 l/m² 0,0 km/h (0 Bft) S-SO 166 ° 0 min 0 W/m² 0,5 °C 3,4 °C 0,0 km/h (0 Bft)
29.01.2024 21:58 22,9 °C 3,3 °C 47 % 81 % 1030,0 hPa 0,0 l/m² 0,0 km/h (0 Bft) S-SO 166 ° 0 min 0 W/m² 0,4 °C 3,3 °C 0,0 km/h (0 Bft)
29.01.2024 22:00 22,9 °C 3,3 °C 47 % 81 % 1030,0 hPa 0,0 l/m² 0,0 km/h (0 Bft) S-SO 166 ° 0 min 0 W/m² 0,4 °C 3,3 °C 0,0 km/h (0 Bft)
29.01.2024 22:02 22,9 °C 3,2 °C 47 % 81 % 1029,9 hPa 0,0 l/m² 0,0 km/h (0 Bft) S-SO 166 ° 0 min 0 W/m² 0,3 °C 3,2 °C 0,0 km/h (0 Bft)
29.01.2024 22:04 22,9 °C 3,2 °C 47 % 82 % 1029,9 hPa 0,0 l/m² 0,0 km/h (0 Bft) S-SO 166 ° 0 min 0 W/m² 0,4 °C 3,2 °C 0,0 km/h (0 Bft)
29.01.2024 22:06 22,9 °C 3,2 °C 47 % 82 % 1029,9 hPa 0,0 l/m² 0,0 km/h (0 Bft) S-SO 166 ° 0 min 0 W/m² 0,4 °C 3,2 °C 0,0 km/h (0 Bft)
29.01.2024 22:08 22,9 °C 3,2 °C 47 % 82 % 1029,9 hPa 0,0 l/m² 0,0 km/h (0 Bft) S-SO 166 ° 0 min 0 W/m² 0,4 °C 3,2 °C 0,0 km/h (0 Bft)
29.01.2024 22:10 22,9 °C 3,1 °C 47 % 82 % 1029,9 hPa 0,0 l/m² 0,0 km/h (0 Bft) S-SO 166 ° 0 min 0 W/m² 0,3 °C 3,1 °C 0,0 km/h (0 Bft)
29.01.2024 22:12 22,9 °C 3,2 °C 47 % 82 % 1030,0 hPa 0,0 l/m² 0,0 km/h (0 Bft) S-SO 166 ° 0 min 0 W/m² 0,4 °C 3,2 °C 0,0 km/h (0 Bft)
29.01.2024 22:14 22,9 °C 3,1 °C 47 % 82 % 1030,0 hPa 0,0 l/m² 0,4 km/h (0 Bft) S-SO 166 ° 0 min 0 W/m² 0,3 °C 3,1 °C 1,6 km/h (1 Bft)
29.01.2024 22:16 22,9 °C 2,9 °C 47 % 82 % 1030,0 hPa 0,0 l/m² 0,1 km/h (0 Bft) S-SO 166 ° 0 min 0 W/m² 0,1 °C 2,9 °C 1,6 km/h (1 Bft)
29.01.2024 22:18 22,9 °C 2,7 °C 46 % 82 % 1030,0 hPa 0,0 l/m² 0,0 km/h (0 Bft) S-SO 166 ° 0 min 0 W/m² -0,1 °C 2,7 °C 0,0 km/h (0 Bft)
29.01.2024 22:20 22,9 °C 2,7 °C 46 % 83 % 1030,0 hPa 0,0 l/m² 0,0 km/h (0 Bft) S-SO 166 ° 0 min 0 W/m² 0,1 °C 2,7 °C 0,0 km/h (0 Bft)
29.01.2024 22:22 22,8 °C 2,7 °C 46 % 83 % 1030,0 hPa 0,0 l/m² 0,0 km/h (0 Bft) S-SO 166 ° 0 min 0 W/m² 0,1 °C 2,7 °C 0,0 km/h (0 Bft)
29.01.2024 22:24 22,9 °C 2,8 °C 46 % 83 % 1030,0 hPa 0,0 l/m² 0,0 km/h (0 Bft) S-SO 166 ° 0 min 0 W/m² 0,2 °C 2,8 °C 0,0 km/h (0 Bft)
29.01.2024 22:26 22,8 °C 2,8 °C 46 % 83 % 1030,1 hPa 0,0 l/m² 0,0 km/h (0 Bft) S-SO 166 ° 0 min 0 W/m² 0,2 °C 2,8 °C 0,0 km/h (0 Bft)
29.01.2024 22:28 22,8 °C 2,8 °C 46 % 82 % 1030,0 hPa 0,0 l/m² 0,0 km/h (0 Bft) S-SO 166 ° 0 min 0 W/m² 0,0 °C 2,8 °C 0,0 km/h (0 Bft)
29.01.2024 22:30 22,8 °C 2,2 °C 46 % 81 % 1030,0 hPa 0,0 l/m² 0,0 km/h (0 Bft) S-SO 166 ° 0 min 0 W/m² -0,7 °C 2,2 °C 0,0 km/h (0 Bft)
29.01.2024 22:32 22,8 °C 1,7 °C 46 % 82 % 1029,9 hPa 0,0 l/m² 0,0 km/h (0 Bft) S-SO 166 ° 0 min 0 W/m² -1,0 °C 1,7 °C 0,0 km/h (0 Bft)
29.01.2024 22:34 22,8 °C 1,6 °C 47 % 84 % 1030,0 hPa 0,0 l/m² 0,0 km/h (0 Bft) S-SO 166 ° 0 min 0 W/m² -0,8 °C 1,6 °C 0,0 km/h (0 Bft)
29.01.2024 22:36 22,8 °C 1,5 °C 47 % 84 % 1030,0 hPa 0,0 l/m² 0,0 km/h (0 Bft) S-SO 166 ° 0 min 0 W/m² -0,9 °C 1,5 °C 0,0 km/h (0 Bft)
29.01.2024 22:38 22,8 °C 1,4 °C 47 % 84 % 1030,0 hPa 0,0 l/m² 0,2 km/h (0 Bft) S-SO 166 ° 0 min 0 W/m² -1,0 °C 1,4 °C 1,6 km/h (1 Bft)
29.01.2024 22:40 22,8 °C 1,4 °C 47 % 85 % 1030,1 hPa 0,0 l/m² 1,4 km/h (1 Bft) S-SO 166 ° 0 min 0 W/m² -0,8 °C 1,4 °C 4,8 km/h (1 Bft)
29.01.2024 22:42 22,8 °C 1,4 °C 47 % 85 % 1030,0 hPa 0,0 l/m² 0,9 km/h (0 Bft) S-SO 166 ° 0 min 0 W/m² -0,8 °C 1,4 °C 4,8 km/h (1 Bft)
29.01.2024 22:44 22,8 °C 1,3 °C 47 % 85 % 1030,0 hPa 0,0 l/m² 1,3 km/h (1 Bft) S-SO 166 ° 0 min 0 W/m² -0,9 °C 1,3 °C 4,8 km/h (1 Bft)
29.01.2024 22:46 22,8 °C 1,3 °C 47 % 85 % 1030,0 hPa 0,0 l/m² 0,0 km/h (0 Bft) S-SO 166 ° 0 min 0 W/m² -0,9 °C 1,3 °C 0,0 km/h (0 Bft)
29.01.2024 22:48 22,7 °C 1,3 °C 47 % 86 % 1030,1 hPa 0,0 l/m² 0,0 km/h (0 Bft) S-SO 166 ° 0 min 0 W/m² -0,8 °C 1,3 °C 0,0 km/h (0 Bft)
29.01.2024 22:50 22,7 °C 1,4 °C 47 % 86 % 1030,1 hPa 0,0 l/m² 0,0 km/h (0 Bft) S-SO 166 ° 0 min 0 W/m² -0,7 °C 1,4 °C 0,0 km/h (0 Bft)
29.01.2024 22:52 22,7 °C 1,3 °C 47 % 86 % 1030,0 hPa 0,0 l/m² 0,0 km/h (0 Bft) S-SO 166 ° 0 min 0 W/m² -0,8 °C 1,3 °C 0,0 km/h (0 Bft)
29.01.2024 22:54 22,7 °C 1,2 °C 47 % 85 % 1030,1 hPa 0,0 l/m² 0,0 km/h (0 Bft) S-SO 166 ° 0 min 0 W/m² -1,0 °C 1,2 °C 0,0 km/h (0 Bft)
29.01.2024 22:56 22,7 °C 1,0 °C 47 % 85 % 1030,1 hPa 0,0 l/m² 0,0 km/h (0 Bft) S-SO 166 ° 0 min 0 W/m² -1,2 °C 1,0 °C 0,0 km/h (0 Bft)
29.01.2024 22:58 22,7 °C 0,8 °C 47 % 86 % 1030,1 hPa 0,0 l/m² 1,0 km/h (0 Bft) S-SO 166 ° 0 min 0 W/m² -1,3 °C 0,8 °C 4,8 km/h (1 Bft)
29.01.2024 23:00 22,7 °C 0,9 °C 47 % 86 % 1030,1 hPa 0,0 l/m² 2,7 km/h (1 Bft) S-SO 166 ° 0 min 0 W/m² -1,2 °C 0,9 °C 4,8 km/h (1 Bft)
29.01.2024 23:02 22,7 °C 1,1 °C 47 % 87 % 1030,1 hPa 0,0 l/m² 1,0 km/h (0 Bft) S-SO 166 ° 0 min 0 W/m² -0,8 °C 1,1 °C 4,8 km/h (1 Bft)
29.01.2024 23:04 22,7 °C 0,9 °C 47 % 86 % 1030,1 hPa 0,0 l/m² 0,0 km/h (0 Bft) S-SO 166 ° 0 min 0 W/m² -1,2 °C 0,9 °C 0,0 km/h (0 Bft)
29.01.2024 23:06 22,7 °C 0,7 °C 47 % 86 % 1030,0 hPa 0,0 l/m² 0,9 km/h (0 Bft) S-SO 166 ° 0 min 0 W/m² -1,4 °C 0,7 °C 4,8 km/h (1 Bft)
29.01.2024 23:08 22,7 °C 0,6 °C 47 % 86 % 1030,0 hPa 0,0 l/m² 0,4 km/h (0 Bft) S-SO 166 ° 0 min 0 W/m² -1,5 °C 0,6 °C 1,6 km/h (1 Bft)
29.01.2024 23:10 22,7 °C 0,6 °C 47 % 87 % 1030,0 hPa 0,0 l/m² 0,0 km/h (0 Bft) S-SO 166 ° 0 min 0 W/m² -1,3 °C 0,6 °C 0,0 km/h (0 Bft)
29.01.2024 23:12 22,7 °C 0,7 °C 47 % 87 % 1030,0 hPa 0,0 l/m² 0,0 km/h (0 Bft) S-SO 166 ° 0 min 0 W/m² -1,2 °C 0,7 °C 0,0 km/h (0 Bft)
29.01.2024 23:14 22,7 °C 0,6 °C 47 % 87 % 1030,0 hPa 0,0 l/m² 0,0 km/h (0 Bft) S-SO 166 ° 0 min 0 W/m² -1,3 °C 0,6 °C 0,0 km/h (0 Bft)
29.01.2024 23:15 22,7 °C 0,6 °C 47 % 87 % 1030,0 hPa 0,0 l/m² 0,0 km/h (0 Bft) S-SO 157 ° 0 min 0 W/m² -1,3 °C 0,6 °C 1,6 km/h (1 Bft)
29.01.2024 23:16 22,7 °C 0,6 °C 47 % 87 % 1030,0 hPa 0,0 l/m² 0,0 km/h (0 Bft) S-SO 157 ° 0 min 0 W/m² -1,3 °C 0,6 °C 1,6 km/h (1 Bft)
29.01.2024 23:17 22,7 °C 0,7 °C 47 % 87 % 1030,0 hPa 0,0 l/m² 0,0 km/h (0 Bft) S-SO 157 ° 0 min 0 W/m² -1,2 °C 0,7 °C 1,6 km/h (1 Bft)
29.01.2024 23:22 22,7 °C 0,6 °C 47 % 87 % 1030,1 hPa 0,0 l/m² 0,0 km/h (0 Bft) S-SO 166 ° 0 min 0 W/m² -1,3 °C 0,6 °C 0,0 km/h (0 Bft)
29.01.2024 23:24 22,7 °C 0,5 °C 47 % 87 % 1030,1 hPa 0,0 l/m² 0,0 km/h (0 Bft) S-SO 166 ° 0 min 0 W/m² -1,4 °C 0,5 °C 0,0 km/h (0 Bft)
29.01.2024 23:25 22,6 °C 0,5 °C 47 % 88 % 1030,1 hPa 0,0 l/m² 0,0 km/h (0 Bft) S-SO 166 ° 0 min 0 W/m² -1,3 °C 0,5 °C 0,0 km/h (0 Bft)
29.01.2024 23:27 22,6 °C 0,4 °C 47 % 88 % 1030,2 hPa 0,0 l/m² 0,0 km/h (0 Bft) S-SO 166 ° 0 min 0 W/m² -1,3 °C 0,4 °C 0,0 km/h (0 Bft)
29.01.2024 23:28 22,6 °C 0,4 °C 47 % 87 % 1030,2 hPa 0,0 l/m² 0,0 km/h (0 Bft) S-SO 166 ° 0 min 0 W/m² -1,5 °C 0,4 °C 0,0 km/h (0 Bft)
29.01.2024 23:29 22,6 °C 0,3 °C 47 % 87 % 1030,2 hPa 0,0 l/m² 0,7 km/h (0 Bft) S-SO 166 ° 0 min 0 W/m² -1,6 °C 0,3 °C 1,6 km/h (1 Bft)
29.01.2024 23:31 22,6 °C 0,2 °C 47 % 87 % 1030,1 hPa 0,0 l/m² 2,1 km/h (1 Bft) S-SO 166 ° 0 min 0 W/m² -1,7 °C 0,2 °C 4,8 km/h (1 Bft)
29.01.2024 23:32 22,6 °C 0,1 °C 47 % 87 % 1030,2 hPa 0,0 l/m² 0,3 km/h (0 Bft) S-SO 166 ° 0 min 0 W/m² -1,8 °C 0,1 °C 1,6 km/h (1 Bft)
29.01.2024 23:34 22,6 °C 0,2 °C 47 % 88 % 1030,3 hPa 0,0 l/m² 1,3 km/h (1 Bft) S-SO 166 ° 0 min 0 W/m² -1,5 °C 0,2 °C 4,8 km/h (1 Bft)
29.01.2024 23:36 22,6 °C 0,2 °C 47 % 88 % 1030,3 hPa 0,0 l/m² 3,3 km/h (1 Bft) S-SO 166 ° 0 min 0 W/m² -1,5 °C 0,2 °C 4,8 km/h (1 Bft)
29.01.2024 23:38 22,6 °C 0,2 °C 47 % 88 % 1030,3 hPa 0,0 l/m² 3,0 km/h (1 Bft) S-SO 166 ° 0 min 0 W/m² -1,5 °C 0,2 °C 4,8 km/h (1 Bft)
29.01.2024 23:40 22,6 °C 0,2 °C 47 % 88 % 1030,3 hPa 0,0 l/m² 2,1 km/h (1 Bft) S-SO 166 ° 0 min 0 W/m² -1,5 °C 0,2 °C 4,8 km/h (1 Bft)
29.01.2024 23:41 22,6 °C 0,2 °C 47 % 88 % 1030,4 hPa 0,0 l/m² 0,9 km/h (0 Bft) S-SO 166 ° 0 min 0 W/m² -1,5 °C 0,2 °C 1,6 km/h (1 Bft)
29.01.2024 23:42 22,6 °C 0,1 °C 47 % 88 % 1030,3 hPa 0,0 l/m² 0,8 km/h (0 Bft) S-SO 166 ° 0 min 0 W/m² -1,6 °C 0,1 °C 1,6 km/h (1 Bft)
29.01.2024 23:44 22,6 °C 0,0 °C 47 % 88 % 1030,4 hPa 0,0 l/m² 0,3 km/h (0 Bft) S-SO 166 ° 0 min 0 W/m² -1,7 °C 0,0 °C 4,8 km/h (1 Bft)
29.01.2024 23:46 22,6 °C 0,0 °C 47 % 89 % 1030,3 hPa 0,0 l/m² 2,3 km/h (1 Bft) S-SO 166 ° 0 min 0 W/m² -1,6 °C 0,0 °C 4,8 km/h (1 Bft)
29.01.2024 23:48 22,6 °C 0,1 °C 47 % 89 % 1030,4 hPa 0,0 l/m² 1,8 km/h (1 Bft) S-SO 166 ° 0 min 0 W/m² -1,5 °C 0,1 °C 4,8 km/h (1 Bft)
29.01.2024 23:50 22,6 °C 0,2 °C 47 % 89 % 1030,4 hPa 0,0 l/m² 0,5 km/h (0 Bft) S-SO 166 ° 0 min 0 W/m² -1,4 °C 0,2 °C 1,6 km/h (1 Bft)
29.01.2024 23:51 22,6 °C 0,2 °C 47 % 89 % 1030,4 hPa 0,0 l/m² 2,4 km/h (1 Bft) S-SO 166 ° 0 min 0 W/m² -1,4 °C 0,2 °C 4,8 km/h (1 Bft)
29.01.2024 23:52 22,6 °C 0,3 °C 47 % 89 % 1030,5 hPa 0,0 l/m² 3,8 km/h (1 Bft) S-SO 166 ° 0 min 0 W/m² -1,3 °C 0,3 °C 4,8 km/h (1 Bft)
29.01.2024 23:54 22,6 °C 0,4 °C 47 % 89 % 1030,4 hPa 0,0 l/m² 2,8 km/h (1 Bft) S-SO 166 ° 0 min 0 W/m² -1,2 °C 0,4 °C 4,8 km/h (1 Bft)
29.01.2024 23:56 22,6 °C 0,5 °C 47 % 89 % 1030,5 hPa 0,0 l/m² 0,8 km/h (0 Bft) S-SO 166 ° 0 min 0 W/m² -1,1 °C 0,5 °C 4,8 km/h (1 Bft)
29.01.2024 23:58 22,6 °C 0,7 °C 47 % 89 % 1030,4 hPa 0,0 l/m² 1,6 km/h (1 Bft) S-SO 166 ° 0 min 0 W/m² -0,9 °C 0,7 °C 4,8 km/h (1 Bft)
_ Min-Zeit 04:44 07:56 17:34 13:10 14:54 - 23:28 - - - - 07:56 00:28 23:28
Minimum _ 22,2 °C -2,3 °C 43 % 63 % 1028,8 hPa - 0,0 km/h (0 Bft) - - - - -4,3 °C -5,7 °C 0,0 km/h (0 Bft)
_ Max-Zeit 12:52 14:48 04:28 23:58 00:28 23:58 00:39 - - 12:46 12:09 15:08 14:48 13:06
Maximum _ 24,3 °C 10,0 °C 51 % 89 % 1031,4 hPa 0,0 l/m² 14,5 km/h
O (3 Bft)
- - 3 min 381 W/m² 4,1 °C 10,0 °C 17,7 km/h
S (3 Bft)
Durchschnitt _ 23,0 °C 3,3 °C 47 % 78 % 1029,8 hPa #0,0 l/m² 2,8 km/h (1 Bft) O - #7:25 h 69 W/m² -0,3 °C 3,0 °C 4,4 km/h (1 Bft)
© 2009 Mathias Hoßbach